[[{"header":{"parameterUnit":"m.s-1","parameterCategory":1,"la1":31.0,"la2":29.5877,"lo1":-88.7671,"lo2":-86.6584,"dy":0.0162,"dx":0.0185,"nx":115,"ny":88,"refTime":"2023-06-24T12:00:00:Z","depth":0,"parameterNumber":2,"parameterNumberName":"U-component_of_WINDS"},"data":[0.0,0.0,0.0,0.0,0.0,0.0,0.0,0.0,0.0,0.0,0.0,0.0,0.0,0.0,0.0,0.0,0.0,0.0,0.0,0.0,0.0,0.0,0.0,0.0,0.0,0.0,0.0,0.0,0.0,0.0,0.0,0.0,0.0,0.0,0.0,0.0,0.0,0.0,0.0,0.0,0.0,0.0,0.0,0.0,0.0,0.0,0.0,0.0,0.0,0.0,0.0,0.0,0.0,0.0,0.0,0.0,0.0,0.0,0.0,0.0,0.0,0.0,0.0,0.0,0.0,0.0,0.0,0.0,0.0,0.0,0.0,0.0,0.0,0.0,0.0,0.0,0.0,0.0,0.0,0.0,0.0,0.0,0.0,0.0,0.0,0.0,0.0,0.0,0.0,0.0,0.0,0.0,0.0,0.0,0.0,0.0,0.0,0.0,0.0,0.0,0.0,0.0,0.0,0.0,0.0,0.0,0.0,0.0,0.0,0.0,0.0,0.0,0.0,0.0,0.0,0.0,0.0,0.0,0.0,0.0,0.0,0.0,0.0,0.0,0.0,0.0,0.0,0.0,0.0,0.0,0.0,0.0,0.0,0.0,0.0,0.0,0.0,0.0,0.0,0.0,0.0,0.0,0.0,0.0,0.0,0.0,0.0,0.0,0.0,0.0,0.0,0.0,0.0,0.0,0.0,0.0,0.0,0.0,0.0,0.0,0.0,0.0,0.0,0.0,0.0,0.0,0.0,0.0,0.0,0.0,0.0,0.0,0.0,0.0,0.0,0.0,0.0,0.0,0.0,0.0,0.0,0.0,0.0,0.0,0.0,0.0,0.0,0.0,0.0,0.0,0.0,0.0,0.0,0.0,0.0,0.0,0.0,0.0,0.0,0.0,0.0,0.0,0.0,0.0,0.0,0.0,0.0,0.0,0.0,0.0,0.0,0.0,0.0,0.0,0.0,0.0,0.0,0.0,0.0,0.0,0.0,0.0,0.0,0.0,0.0,0.0,0.0,0.0,0.0,0.0,0.0,0.0,0.0,0.0,0.0,0.0,0.0,0.0,0.0,0.0,0.0,0.0,0.0,0.0,0.0,0.0,0.0,0.0,0.0,0.0,0.0,0.0,0.0,0.0,0.0,0.0,0.0,0.0,0.0,0.0,0.0,0.0,0.0,0.0,0.0,0.0,0.0,0.0,0.0,0.0,0.0,0.0,0.0,0.0,0.0,0.0,0.0,0.0,0.0,0.0,0.0,0.0,0.0,0.0,0.0,0.0,0.0,0.0,0.0,0.0,0.0,0.0,0.0,0.0,0.0,0.0,0.0,0.0,0.0,0.0,0.0,0.0,0.0,0.0,0.0,0.0,0.0,0.0,0.0,0.0,0.0,0.0,0.0,0.0,0.0,0.0,0.0,0.0,0.0,0.0,0.0,0.0,0.0,0.0,0.0,0.0,0.0,0.0,0.0,0.0,0.0,0.0,0.0,0.0,0.0,0.0,0.0,0.0,0.0,0.0,0.0,0.0,0.0,0.0,0.0,0.0,0.0,0.0,0.0,0.0,0.0,0.0,0.0,0.0,0.0,0.0,0.0,0.0,0.0,0.0,0.0,0.0,0.0,0.0,0.0,0.0,0.0,0.0,0.0,0.0,0.0,0.0,0.0,0.0,0.0,0.0,0.0,0.0,0.0,0.0,0.0,0.0,0.0,0.0,0.0,0.0,0.0,0.0,0.0,0.0,0.0,0.0,0.0,0.0,0.0,0.0,0.0,0.0,0.0,0.0,0.0,0.0,0.0,0.0,0.0,0.0,0.0,0.0,0.0,0.0,0.0,0.0,0.0,0.0,0.0,0.0,0.0,0.0,0.0,0.0,0.0,0.0,0.0,0.0,0.0,0.0,0.0,0.0,0.0,0.0,0.0,0.0,0.0,0.0,0.0,0.0,0.0,0.0,0.0,0.0,0.0,0.0,0.0,0.0,0.0,0.0,0.0,0.0,0.0,0.0,0.0,0.0,0.0,0.0,0.0,0.0,0.0,0.0,0.0,0.0,0.0,0.0,0.0,0.0,0.0,0.0,0.0,0.0,0.0,0.0,0.0,0.0,0.0,0.0,0.0,0.0,0.0,0.0,0.0,0.0,0.0,0.0,0.0,0.0,0.0,0.0,0.0,0.0,0.0,0.0,0.0,0.0,0.0,0.0,0.0,0.0,0.0,0.0,0.0,0.0,0.0,0.0,0.0,0.0,0.0,0.0,0.0,0.0,0.0,0.0,0.0,0.0,0.0,0.0,0.0,0.0,0.0,0.0,0.0,0.0,0.0,0.0,0.0,0.0,0.0,0.0,0.0,0.0,0.0,0.0,0.0,0.0,0.0,0.0,0.0,0.0,0.0,0.0,0.0,0.0,0.0,0.0,0.0,0.0,0.0,0.0,0.0,0.0,0.0,0.0,0.0,0.0,0.0,0.0,0.0,0.0,0.0,0.0,0.0,0.0,0.0,0.0,0.0,0.0,0.0,0.0,0.0,0.0,0.0,0.0,0.0,0.0,0.0,0.0,0.0,0.0,0.0,0.0,0.0,0.0,0.0,0.0,0.0,0.0,0.0,0.0,0.0,0.0,0.0,0.0,0.0,0.0,0.0,0.0,0.0,0.0,0.0,0.0,0.0,0.0,0.0,0.0,0.0,0.0,0.0,0.0,0.0,0.0,0.0,0.0,0.0,0.0,0.0,0.0,0.0,0.0,0.0,0.0,0.0,0.0,0.0,0.0,0.0,0.0,0.0,0.0,0.0,0.0,0.0,0.0,0.0,0.0,0.0,0.0,0.0,0.0,0.0,0.0,0.0,0.0,0.0,0.0,0.0,0.0,0.0,0.0,0.0,0.0,0.0,0.0,0.0,0.0,0.0,0.0,0.0,0.0,0.0,0.0,0.0,0.0,0.0,0.0,0.0,0.0,0.0,0.0,0.0,0.0,0.0,0.0,0.0,0.0,0.0,0.0,0.0,0.0,0.0,0.0,0.0,0.0,0.0,0.0,0.0,0.0,0.0,0.0,0.0,0.0,0.0,0.0,0.0,0.0,0.0,0.0,0.0,0.0,0.0,0.0,0.0,0.0,0.0,0.0,0.0,0.0,0.0,0.0,0.0,0.0,0.0,0.0,0.0,0.0,0.0,0.0,0.0,0.0,0.0,0.0,0.0,0.0,0.0,0.0,0.0,0.0,0.0,0.0,0.0,0.0,0.0,0.0,0.0,0.0,0.0,0.0,0.0,0.0,0.0,0.0,0.0,0.0,0.0,0.0,0.0,0.0,0.0,0.0,0.0,0.0,0.0,0.0,0.0,0.0,0.0,0.0,0.0,0.0,0.0,0.0,0.0,0.0,0.0,0.0,0.0,0.0,0.0,0.0,0.0,0.0,0.0,0.0,0.0,0.0,0.0,0.0,0.0,0.0,0.0,0.0,0.0,0.0,0.0,0.0,0.0,0.0,0.0,0.0,0.0,0.0,0.0,0.0,0.0,0.0,0.0,0.0,0.0,0.0,0.0,0.0,0.0,0.0,0.0,0.0,0.0,0.0,0.0,0.0,0.0,0.0,0.0,0.0,0.0,0.0,0.0,0.0,0.0,0.0,0.0,0.0,0.0,0.0,0.0,0.0,0.0,0.0,0.0,0.0,0.0,0.0,0.0,0.0,0.0,0.0,0.0,0.0,0.0,0.0,0.0,0.0,0.0,0.0,0.0,0.0,0.0,0.0,0.0,0.0,0.0,0.0,0.0,0.0,0.0,0.0,0.0,0.0,0.0,0.0,0.0,0.0,0.0,0.0,0.0,0.0,0.0,0.0,0.0,0.0,0.0,0.0,0.0,0.0,0.0,0.0,0.0,0.0,0.0,0.0,0.0,0.0,0.0,0.0,0.0,0.0,0.0,0.0,0.0,0.0,0.0,0.0,0.0,0.0,0.0,0.0,0.0,0.0,0.0,0.0,0.0,0.0,0.0,0.0,0.0,0.0,0.0,0.0,0.0,0.0,0.0,0.0,0.0,0.0,0.0,0.0,0.0,0.0,0.0,0.0,0.0,0.0,0.0,0.0,0.0,0.0,0.0,0.0,0.0,0.0,0.0,0.0,0.0,0.0,0.0,0.0,0.0,0.0,0.0,0.0,0.0,0.0,0.0,0.0,0.0,0.0,0.0,0.0,0.0,0.0,0.0,0.0,0.0,0.0,0.0,0.0,0.0,0.0,0.0,0.0,0.0,0.0,0.0,0.0,0.0,0.0,0.0,0.0,0.0,0.0,-2.42,0.0,0.0,0.0,0.0,0.0,0.0,0.0,0.0,0.0,0.0,0.0,0.0,0.0,0.0,0.0,0.0,0.0,0.0,0.0,0.0,0.0,0.0,0.0,0.0,0.0,0.0,0.0,0.0,0.0,0.0,0.0,0.0,0.0,0.0,0.0,0.0,0.0,0.0,0.0,0.0,0.0,0.0,0.0,0.0,0.0,0.0,0.0,0.0,0.0,0.0,0.0,0.0,0.0,0.0,0.0,0.0,0.0,0.0,0.0,0.0,0.0,0.0,0.0,0.0,0.0,0.0,0.0,0.0,0.0,0.0,0.0,0.0,0.0,0.0,0.0,0.0,0.0,0.0,0.0,0.0,0.0,0.0,0.0,0.0,0.0,0.0,0.0,0.0,0.0,0.0,0.0,0.0,0.0,0.0,0.0,0.0,0.0,0.0,0.0,0.0,0.0,0.0,0.0,0.0,0.0,0.0,0.0,0.0,0.0,0.0,-2.5543,-2.5518,-2.5046,-2.4568,-2.4134,0.0,0.0,0.0,0.0,0.0,0.0,0.0,0.0,0.0,0.0,0.0,0.0,0.0,0.0,0.0,0.0,0.0,0.0,0.0,0.0,0.0,0.0,0.0,0.0,0.0,0.0,0.0,0.0,0.0,0.0,0.0,0.0,0.0,0.0,0.0,0.0,0.0,0.0,0.0,0.0,0.0,0.0,0.0,0.0,0.0,0.0,0.0,0.0,0.0,0.0,0.0,0.0,0.0,0.0,0.0,0.0,0.0,0.0,0.0,0.0,0.0,0.0,0.0,0.0,0.0,0.0,0.0,0.0,0.0,0.0,0.0,0.0,0.0,0.0,0.0,0.0,0.0,0.0,0.0,0.0,0.0,0.0,0.0,0.0,0.0,0.0,0.0,0.0,0.0,0.0,0.0,0.0,0.0,0.0,0.0,0.0,0.0,0.0,0.0,0.0,0.0,0.0,0.0,0.0,0.0,0.0,0.0,0.0,0.0,0.0,0.0,0.0,-2.4775,-2.4204,-2.3762,0.0,0.0,0.0,0.0,0.0,0.0,0.0,0.0,0.0,0.0,0.0,0.0,0.0,0.0,0.0,0.0,0.0,0.0,0.0,0.0,0.0,0.0,0.0,0.0,0.0,0.0,0.0,0.0,0.0,0.0,0.0,0.0,0.0,0.0,0.0,0.0,0.0,0.0,0.0,0.0,0.0,0.0,0.0,0.0,0.0,0.0,0.0,0.0,0.0,0.0,0.0,0.0,0.0,0.0,0.0,0.0,0.0,0.0,0.0,0.0,0.0,0.0,0.0,0.0,0.0,0.0,0.0,0.0,0.0,0.0,0.0,0.0,0.0,0.0,0.0,0.0,0.0,0.0,0.0,0.0,0.0,0.0,0.0,0.0,0.0,0.0,0.0,0.0,0.0,0.0,0.0,0.0,0.0,0.0,0.0,0.0,0.0,0.0,0.0,0.0,0.0,0.0,0.0,0.0,0.0,0.0,0.0,0.0,0.0,0.0,-2.5369,-2.5326,-2.5149,0.0,-2.2767,0.0,0.0,0.0,0.0,0.0,0.0,0.0,0.0,0.0,0.0,0.0,0.0,0.0,0.0,0.0,0.0,0.0,0.0,0.0,0.0,0.0,0.0,0.0,0.0,0.0,0.0,0.0,0.0,0.0,0.0,0.0,0.0,0.0,0.0,0.0,0.0,0.0,0.0,0.0,0.0,0.0,0.0,0.0,0.0,0.0,0.0,0.0,0.0,0.0,0.0,0.0,0.0,0.0,0.0,0.0,0.0,0.0,0.0,0.0,0.0,0.0,0.0,0.0,0.0,0.0,0.0,0.0,0.0,0.0,0.0,0.0,0.0,0.0,0.0,0.0,0.0,0.0,0.0,0.0,0.0,0.0,0.0,0.0,0.0,0.0,0.0,0.0,0.0,0.0,0.0,0.0,0.0,0.0,0.0,0.0,0.0,0.0,0.0,0.0,0.0,0.0,0.0,0.0,0.0,0.0,0.0,0.0,0.0,0.0,0.0,-2.5293,-2.5308,-2.4264,-2.312,0.0,0.0,0.0,0.0,0.0,0.0,0.0,0.0,0.0,0.0,0.0,0.0,0.0,0.0,0.0,0.0,0.0,0.0,0.0,0.0,0.0,0.0,0.0,0.0,0.0,0.0,0.0,0.0,0.0,0.0,0.0,0.0,0.0,0.0,0.0,0.0,0.0,0.0,0.0,0.0,0.0,0.0,0.0,0.0,0.0,0.0,0.0,0.0,0.0,0.0,0.0,0.0,0.0,0.0,0.0,0.0,0.0,0.0,0.0,0.0,0.0,0.0,0.0,0.0,0.0,0.0,0.0,0.0,0.0,0.0,0.0,0.0,0.0,0.0,0.0,0.0,0.0,0.0,0.0,0.0,0.0,0.0,0.0,0.0,0.0,0.0,0.0,0.0,0.0,0.0,0.0,0.0,0.0,0.0,0.0,0.0,0.0,0.0,0.0,0.0,0.0,0.0,0.0,0.0,0.0,0.0,0.0,0.0,0.0,0.0,-2.5132,-2.5187,-2.5122,-2.3557,-2.2324,-2.1602,0.0,0.0,0.0,0.0,0.0,0.0,0.0,0.0,0.0,0.0,0.0,0.0,0.0,0.0,0.0,0.0,0.0,0.0,0.0,0.0,0.0,0.0,0.0,0.0,0.0,0.0,0.0,0.0,0.0,0.0,0.0,0.0,0.0,0.0,0.0,0.0,0.0,0.0,0.0,0.0,0.0,0.0,0.0,0.0,0.0,0.0,0.0,0.0,0.0,0.0,0.0,0.0,0.0,0.0,0.0,0.0,0.0,0.0,0.0,0.0,0.0,0.0,0.0,0.0,0.0,0.0,0.0,0.0,0.0,0.0,0.0,0.0,0.0,0.0,0.0,0.0,0.0,0.0,0.0,0.0,0.0,0.0,0.0,0.0,0.0,0.0,0.0,0.0,0.0,0.0,0.0,0.0,0.0,0.0,0.0,0.0,0.0,0.0,0.0,0.0,0.0,0.0,0.0,0.0,0.0,0.0,0.0,0.0,-2.4919,-2.4968,-2.5,-2.4974,-2.3443,-2.2517,0.0,0.0,0.0,0.0,0.0,0.0,0.0,0.0,0.0,0.0,0.0,0.0,0.0,0.0,0.0,0.0,0.0,0.0,0.0,0.0,0.0,0.0,0.0,0.0,0.0,0.0,0.0,0.0,0.0,0.0,0.0,0.0,0.0,0.0,0.0,0.0,0.0,0.0,0.0,0.0,0.0,0.0,0.0,0.0,0.0,0.0,0.0,0.0,0.0,0.0,0.0,0.0,0.0,0.0,0.0,0.0,0.0,0.0,0.0,0.0,0.0,0.0,0.0,0.0,0.0,0.0,0.0,0.0,0.0,0.0,0.0,0.0,0.0,0.0,0.0,0.0,0.0,0.0,0.0,0.0,0.0,0.0,0.0,0.0,0.0,0.0,0.0,0.0,0.0,0.0,0.0,0.0,0.0,0.0,0.0,0.0,0.0,0.0,0.0,0.0,0.0,0.0,0.0,0.0,0.0,0.0,0.0,0.0,0.0,-2.4971,-2.498,-2.4733,-2.4183,-2.3038,-2.2205,0.0,0.0,0.0,0.0,0.0,0.0,0.0,0.0,0.0,0.0,0.0,0.0,0.0,0.0,0.0,0.0,0.0,0.0,0.0,0.0,0.0,0.0,0.0,0.0,0.0,0.0,0.0,0.0,0.0,0.0,0.0,0.0,0.0,0.0,0.0,0.0,0.0,0.0,0.0,0.0,0.0,0.0,0.0,0.0,0.0,0.0,0.0,0.0,0.0,0.0,0.0,0.0,0.0,0.0,0.0,0.0,0.0,0.0,0.0,0.0,0.0,0.0,0.0,0.0,0.0,0.0,0.0,0.0,0.0,0.0,0.0,0.0,0.0,0.0,0.0,0.0,0.0,0.0,0.0,0.0,0.0,0.0,0.0,0.0,0.0,0.0,0.0,0.0,0.0,0.0,0.0,0.0,0.0,0.0,0.0,0.0,0.0,0.0,0.0,0.0,0.0,0.0,0.0,0.0,0.0,0.0,0.0,0.0,0.0,-2.5322,0.0,-2.4761,-2.4406,-2.31,-2.2053,0.0,0.0,0.0,0.0,0.0,0.0,0.0,0.0,0.0,0.0,0.0,0.0,0.0,0.0,0.0,0.0,0.0,0.0,0.0,0.0,0.0,0.0,0.0,0.0,0.0,0.0,0.0,0.0,0.0,0.0,0.0,0.0,0.0,0.0,0.0,0.0,0.0,0.0,0.0,0.0,0.0,0.0,0.0,0.0,0.0,0.0,0.0,0.0,0.0,0.0,0.0,0.0,0.0,0.0,0.0,0.0,0.0,0.0,0.0,0.0,0.0,0.0,0.0,0.0,0.0,0.0,0.0,0.0,0.0,0.0,0.0,0.0,0.0,0.0,0.0,0.0,0.0,0.0,0.0,0.0,0.0,0.0,0.0,0.0,0.0,0.0,0.0,0.0,0.0,0.0,0.0,0.0,0.0,0.0,0.0,0.0,0.0,0.0,0.0,0.0,0.0,0.0,0.0,0.0,0.0,0.0,0.0,0.0,-2.5295,-2.6065,-2.5348,-2.5355,-2.5927,-2.3677,-2.2311,0.0,0.0,0.0,0.0,0.0,0.0,0.0,0.0,0.0,0.0,0.0,0.0,0.0,0.0,0.0,0.0,0.0,0.0,0.0,0.0,0.0,0.0,0.0,0.0,0.0,0.0,0.0,0.0,0.0,0.0,0.0,0.0,0.0,0.0,0.0,0.0,0.0,0.0,0.0,0.0,0.0,0.0,0.0,0.0,0.0,0.0,0.0,0.0,0.0,0.0,0.0,0.0,0.0,0.0,0.0,0.0,0.0,0.0,0.0,0.0,0.0,0.0,0.0,0.0,0.0,0.0,0.0,0.0,0.0,0.0,0.0,0.0,0.0,0.0,0.0,0.0,0.0,0.0,0.0,0.0,0.0,0.0,0.0,0.0,0.0,0.0,0.0,0.0,0.0,0.0,0.0,0.0,0.0,0.0,0.0,0.0,0.0,0.0,0.0,0.0,0.0,0.0,0.0,0.0,0.0,0.0,0.0,0.0,0.0,-2.761,-2.7838,-2.7708,-2.7133,-2.5449,-2.3599,0.0,0.0,0.0,0.0,0.0,0.0,0.0,0.0,0.0,0.0,0.0,0.0,0.0,0.0,0.0,0.0,0.0,0.0,0.0,0.0,0.0,0.0,0.0,0.0,0.0,0.0,0.0,0.0,0.0,0.0,0.0,0.0,0.0,0.0,0.0,0.0,0.0,0.0,0.0,0.0,0.0,0.0,0.0,0.0,0.0,0.0,0.0,0.0,0.0,0.0,0.0,0.0,0.0,0.0,0.0,0.0,0.0,0.0,0.0,0.0,0.0,0.0,0.0,0.0,0.0,0.0,0.0,0.0,0.0,0.0,0.0,0.0,0.0,0.0,0.0,0.0,0.0,0.0,0.0,0.0,0.0,0.0,0.0,0.0,0.0,0.0,0.0,0.0,0.0,0.0,0.0,0.0,0.0,0.0,0.0,0.0,0.0,0.0,0.0,0.0,0.0,0.0,0.0,0.0,0.0,0.0,0.0,0.0,0.0,-3.2634,-3.2341,-3.1799,-3.1104,-2.9004,-2.6238,-2.2741,0.0,0.0,0.0,0.0,0.0,0.0,0.0,0.0,0.0,0.0,0.0,0.0,0.0,0.0,0.0,0.0,0.0,0.0,0.0,0.0,0.0,0.0,0.0,0.0,0.0,0.0,0.0,0.0,0.0,0.0,0.0,0.0,0.0,0.0,0.0,0.0,0.0,0.0,0.0,0.0,0.0,0.0,0.0,0.0,0.0,0.0,0.0,0.0,0.0,0.0,0.0,0.0,0.0,0.0,0.0,0.0,0.0,0.0,0.0,0.0,0.0,0.0,0.0,0.0,0.0,0.0,0.0,0.0,0.0,0.0,0.0,0.0,0.0,0.0,0.0,0.0,0.0,0.0,0.0,0.0,0.0,0.0,0.0,0.0,0.0,0.0,0.0,0.0,0.0,0.0,0.0,0.0,0.0,0.0,0.0,0.0,0.0,0.0,0.0,0.0,0.0,0.0,0.0,0.0,0.0,0.0,0.0,0.0,-4.0334,-3.8672,-3.761,-3.7162,-3.3968,-2.9962,0.0,0.0,0.0,0.0,0.0,0.0,0.0,0.0,0.0,0.0,0.0,0.0,0.0,0.0,0.0,0.0,0.0,0.0,0.0,0.0,0.0,0.0,0.0,0.0,0.0,0.0,0.0,0.0,0.0,0.0,0.0,0.0,0.0,0.0,0.0,0.0,0.0,0.0,0.0,0.0,0.0,0.0,0.0,0.0,0.0,0.0,0.0,0.0,0.0,0.0,0.0,0.0,0.0,0.0,0.0,0.0,0.0,0.0,0.0,0.0,0.0,0.0,0.0,0.0,0.0,0.0,0.0,0.0,0.0,0.0,0.0,0.0,0.0,0.0,0.0,0.0,0.0,0.0,0.0,0.0,0.0,0.0,0.0,0.0,0.0,0.0,0.0,0.0,0.0,0.0,0.0,0.0,0.0,0.0,0.0,0.0,0.0,0.0,0.0,0.0,0.0,0.0,0.0,0.0,0.0,0.0,0.0,0.0,0.0,-4.4084,-4.7611,-4.7507,-4.3512,-3.8678,-3.3852,0.0,0.0,0.0,0.0,0.0,0.0,0.0,0.0,0.0,0.0,0.0,0.0,0.0,0.0,0.0,0.0,0.0,0.0,0.0,0.0,0.0,0.0,0.0,0.0,0.0,0.0,0.0,0.0,0.0,0.0,0.0,0.0,0.0,0.0,0.0,0.0,0.0,0.0,0.0,0.0,0.0,0.0,0.0,0.0,0.0,0.0,0.0,0.0,0.0,0.0,0.0,0.0,0.0,0.0,0.0,0.0,0.0,0.0,0.0,0.0,0.0,0.0,0.0,0.0,0.0,0.0,0.0,0.0,0.0,0.0,0.0,0.0,0.0,0.0,0.0,0.0,0.0,0.0,0.0,0.0,0.0,0.0,0.0,0.0,0.0,0.0,0.0,0.0,0.0,0.0,0.0,0.0,0.0,0.0,0.0,0.0,0.0,0.0,0.0,0.0,0.0,0.0,0.0,0.0,0.0,0.0,0.0,0.0,-4.196,-4.7803,-5.2901,-5.4262,-5.1744,-4.4569,-3.7897,0.0,0.0,0.0,0.0,0.0,0.0,0.0,0.0,0.0,0.0,0.0,0.0,0.0,0.0,0.0,0.0,0.0,0.0,0.0,0.0,0.0,0.0,0.0,0.0,0.0,0.0,0.0,0.0,0.0,0.0,0.0,0.0,0.0,0.0,0.0,0.0,0.0,0.0,0.0,0.0,0.0,0.0,0.0,0.0,0.0,0.0,0.0,0.0,0.0,0.0,0.0,0.0,0.0,0.0,0.0,0.0,0.0,0.0,0.0,0.0,0.0,0.0,0.0,0.0,0.0,0.0,0.0,0.0,0.0,0.0,0.0,0.0,0.0,0.0,0.0,0.0,0.0,0.0,0.0,0.0,0.0,0.0,0.0,0.0,0.0,0.0,0.0,0.0,0.0,0.0,0.0,0.0,0.0,0.0,0.0,0.0,0.0,0.0,0.0,0.0,0.0,0.0,0.0,0.0,0.0,0.0,0.0,0.0,-4.4701,-5.0986,-5.5618,-5.8546,-5.9358,-5.0396,-4.1938,0.0,0.0,0.0,0.0,0.0,0.0,0.0,0.0,0.0,0.0,0.0,0.0,0.0,0.0,0.0,0.0,0.0,0.0,0.0,0.0,0.0,0.0,0.0,0.0,0.0,0.0,0.0,0.0,0.0,0.0,0.0,0.0,0.0,0.0,0.0,0.0,0.0,0.0,0.0,0.0,0.0,0.0,0.0,0.0,0.0,0.0,0.0,0.0,0.0,0.0,0.0,0.0,0.0,0.0,0.0,0.0,0.0,0.0,0.0,0.0,0.0,0.0,0.0,0.0,0.0,0.0,0.0,0.0,0.0,0.0,0.0,0.0,0.0,0.0,0.0,0.0,0.0,0.0,0.0,0.0,0.0,0.0,0.0,0.0,0.0,0.0,0.0,0.0,0.0,0.0,0.0,0.0,0.0,0.0,0.0,0.0,0.0,0.0,0.0,0.0,0.0,0.0,0.0,0.0,0.0,0.0,0.0,0.0,-4.708,-5.2471,-5.7125,-5.9411,-5.9066,-5.1731,-4.5072,0.0,0.0,0.0,0.0,0.0,0.0,0.0,0.0,0.0,0.0,0.0,0.0,0.0,0.0,0.0,0.0,0.0,0.0,0.0,0.0,0.0,0.0,0.0,0.0,0.0,0.0,0.0,0.0,0.0,0.0,0.0,0.0,0.0,0.0,0.0,0.0,0.0,0.0,0.0,0.0,0.0,0.0,0.0,0.0,0.0,0.0,0.0,0.0,-2.1475,0.0,0.0,0.0,0.0,0.0,0.0,0.0,0.0,0.0,0.0,0.0,0.0,0.0,0.0,0.0,0.0,0.0,0.0,0.0,0.0,0.0,0.0,0.0,0.0,0.0,0.0,0.0,0.0,0.0,0.0,0.0,0.0,0.0,0.0,0.0,0.0,0.0,0.0,0.0,0.0,0.0,0.0,0.0,0.0,0.0,0.0,0.0,0.0,0.0,0.0,0.0,0.0,0.0,0.0,0.0,0.0,0.0,0.0,0.0,-4.8308,-5.4278,-5.7737,-5.9463,-5.9198,-5.3587,-4.7552,0.0,0.0,0.0,0.0,0.0,0.0,0.0,0.0,0.0,0.0,0.0,0.0,0.0,0.0,0.0,0.0,0.0,0.0,0.0,0.0,0.0,0.0,0.0,0.0,0.0,0.0,0.0,0.0,0.0,0.0,0.0,0.0,0.0,0.0,0.0,0.0,0.0,0.0,0.0,0.0,0.0,0.0,0.0,0.0,0.0,0.0,0.0,0.0,0.0,0.0,0.0,0.0,0.0,0.0,0.0,0.0,0.0,0.0,0.0,0.0,0.0,0.0,0.0,0.0,0.0,0.0,0.0,0.0,0.0,0.0,0.0,0.0,0.0,0.0,0.0,0.0,0.0,0.0,0.0,0.0,0.0,0.0,0.0,0.0,0.0,0.0,0.0,0.0,0.0,0.0,0.0,0.0,0.0,0.0,0.0,0.0,0.0,0.0,0.0,0.0,0.0,0.0,0.0,0.0,0.0,0.0,0.0,-4.3311,-4.9185,-5.5933,-5.7997,-5.9198,-5.9728,-5.5136,-4.9227,-4.2172,0.0,0.0,0.0,0.0,0.0,0.0,0.0,0.0,0.0,0.0,0.0,0.0,0.0,0.0,0.0,0.0,0.0,0.0,0.0,0.0,0.0,0.0,0.0,0.0,0.0,0.0,0.0,0.0,0.0,0.0,0.0,0.0,0.0,0.0,0.0,0.0,0.0,0.0,-2.1949,-2.2385,0.0,0.0,0.0,0.0,0.0,0.0,0.0,0.0,-2.3417,0.0,0.0,0.0,0.0,0.0,0.0,0.0,0.0,0.0,0.0,0.0,0.0,0.0,0.0,0.0,0.0,0.0,0.0,0.0,0.0,0.0,0.0,0.0,0.0,0.0,0.0,0.0,0.0,0.0,0.0,0.0,0.0,0.0,0.0,0.0,0.0,0.0,0.0,0.0,0.0,0.0,0.0,0.0,0.0,0.0,0.0,0.0,0.0,0.0,0.0,0.0,0.0,0.0,0.0,0.0,0.0,-4.0285,-4.5336,-5.0726,-5.6464,-5.8111,-5.8966,-5.8933,-5.4763,-4.9327,-4.2737,0.0,0.0,0.0,0.0,0.0,0.0,0.0,0.0,0.0,0.0,0.0,0.0,0.0,0.0,0.0,0.0,0.0,0.0,0.0,0.0,0.0,0.0,0.0,0.0,0.0,0.0,0.0,0.0,0.0,0.0,0.0,0.0,0.0,0.0,0.0,0.0,0.0,0.0,0.0,-2.5832,-2.6426,0.0,0.0,0.0,0.0,0.0,0.0,0.0,0.0,-2.6163,0.0,0.0,0.0,0.0,0.0,0.0,0.0,0.0,0.0,0.0,0.0,0.0,0.0,0.0,0.0,0.0,0.0,0.0,0.0,0.0,0.0,0.0,0.0,0.0,0.0,0.0,0.0,0.0,0.0,0.0,0.0,0.0,0.0,0.0,0.0,0.0,0.0,0.0,0.0,0.0,0.0,0.0,0.0,0.0,0.0,0.0,0.0,0.0,0.0,0.0,0.0,0.0,0.0,0.0,0.0,-4.1115,-4.589,-5.1023,-5.6487,-5.7773,-5.8138,-5.7674,-5.3606,-4.8431,0.0,0.0,0.0,0.0,0.0,0.0,0.0,0.0,0.0,0.0,0.0,0.0,0.0,0.0,0.0,0.0,0.0,0.0,0.0,0.0,0.0,0.0,0.0,0.0,0.0,0.0,0.0,0.0,0.0,0.0,0.0,0.0,0.0,0.0,0.0,0.0,0.0,0.0,0.0,0.0,-2.837,-2.9033,-3.016,0.0,0.0,0.0,0.0,0.0,0.0,-2.9211,-2.8647,0.0,0.0,0.0,0.0,0.0,0.0,0.0,0.0,0.0,0.0,0.0,0.0,0.0,0.0,0.0,0.0,0.0,0.0,0.0,0.0,0.0,0.0,0.0,0.0,0.0,0.0,0.0,0.0,0.0,0.0,0.0,0.0,0.0,0.0,0.0,0.0,0.0,0.0,0.0,0.0,0.0,0.0,0.0,0.0,0.0,0.0,0.0,0.0,0.0,0.0,0.0,0.0,0.0,0.0,0.0,-4.1483,-4.5906,-5.0687,-5.5786,-5.6746,-5.6912,-5.6382,-5.1916,-4.6869,0.0,0.0,0.0,0.0,0.0,0.0,0.0,0.0,0.0,0.0,0.0,0.0,0.0,0.0,0.0,0.0,0.0,0.0,0.0,0.0,0.0,0.0,0.0,0.0,0.0,0.0,0.0,0.0,0.0,0.0,0.0,0.0,0.0,0.0,0.0,0.0,0.0,0.0,0.0,0.0,0.0,-3.109,-3.2294,-3.0887,0.0,0.0,0.0,0.0,-3.0689,-3.1476,0.0,0.0,0.0,0.0,0.0,0.0,0.0,0.0,0.0,0.0,0.0,0.0,0.0,0.0,0.0,0.0,0.0,0.0,0.0,0.0,0.0,0.0,0.0,0.0,0.0,0.0,0.0,0.0,0.0,0.0,0.0,0.0,0.0,0.0,0.0,0.0,0.0,0.0,0.0,0.0,0.0,0.0,0.0,0.0,0.0,0.0,0.0,0.0,0.0,0.0,0.0,0.0,0.0,0.0,0.0,0.0,-4.151,-4.5654,-4.9719,-5.3563,-5.4527,-5.5118,-5.5582,-4.9658,-4.452,0.0,0.0,0.0,0.0,0.0,0.0,0.0,0.0,0.0,0.0,0.0,0.0,0.0,0.0,0.0,0.0,0.0,0.0,0.0,0.0,0.0,0.0,0.0,0.0,0.0,0.0,0.0,0.0,0.0,0.0,0.0,0.0,0.0,0.0,0.0,0.0,0.0,0.0,0.0,0.0,0.0,-3.2322,-3.3515,-3.2485,-3.1518,0.0,0.0,-3.2795,-3.4533,-3.5717,0.0,0.0,0.0,0.0,0.0,0.0,0.0,0.0,0.0,0.0,0.0,0.0,0.0,0.0,0.0,0.0,0.0,0.0,0.0,0.0,0.0,0.0,0.0,0.0,0.0,0.0,0.0,0.0,0.0,0.0,0.0,0.0,0.0,0.0,0.0,0.0,0.0,0.0,0.0,0.0,0.0,0.0,0.0,0.0,0.0,0.0,0.0,0.0,0.0,0.0,0.0,0.0,0.0,0.0,0.0,-3.6561,-4.1148,-4.5828,-4.9612,-5.2415,-5.382,-5.4295,-5.3798,-4.8265,-4.3385,0.0,0.0,0.0,0.0,0.0,0.0,0.0,0.0,0.0,0.0,0.0,0.0,0.0,0.0,0.0,0.0,0.0,0.0,0.0,0.0,0.0,0.0,0.0,0.0,0.0,0.0,0.0,0.0,0.0,0.0,0.0,0.0,0.0,0.0,0.0,0.0,0.0,0.0,0.0,0.0,0.0,0.0,-3.4455,-3.4483,0.0,0.0,0.0,-3.4486,-3.5853,0.0,0.0,0.0,0.0,0.0,0.0,0.0,0.0,0.0,0.0,0.0,0.0,0.0,0.0,0.0,0.0,0.0,0.0,0.0,0.0,0.0,0.0,0.0,0.0,0.0,0.0,0.0,0.0,0.0,0.0,0.0,0.0,0.0,0.0,0.0,0.0,0.0,0.0,0.0,0.0,0.0,0.0,0.0,0.0,0.0,0.0,0.0,0.0,0.0,0.0,0.0,0.0,0.0,0.0,0.0,0.0,0.0,-4.0893,-4.5473,-4.8893,-5.103,-5.2598,-5.2913,-5.19,-4.6909,0.0,0.0,0.0,0.0,0.0,0.0,0.0,0.0,0.0,0.0,0.0,0.0,0.0,0.0,0.0,0.0,0.0,0.0,0.0,0.0,0.0,0.0,0.0,0.0,0.0,0.0,0.0,-1.9545,0.0,0.0,0.0,0.0,0.0,0.0,0.0,0.0,0.0,0.0,0.0,0.0,0.0,0.0,-3.5269,-3.5362,-3.6271,-3.6709,0.0,0.0,-3.6227,-3.6957,-3.6793,-3.5766,0.0,0.0,0.0,0.0,0.0,0.0,0.0,0.0,0.0,0.0,0.0,0.0,0.0,0.0,0.0,0.0,0.0,0.0,0.0,0.0,0.0,0.0,0.0,0.0,0.0,0.0,0.0,0.0,0.0,0.0,0.0,0.0,0.0,0.0,0.0,0.0,0.0,0.0,0.0,0.0,0.0,0.0,0.0,0.0,0.0,0.0,0.0,0.0,0.0,0.0,0.0,0.0,0.0,0.0,0.0,-4.0834,-4.409,-4.6857,-4.9127,-4.9945,-5.0522,-5.0716,-4.5209,-4.1259,0.0,0.0,0.0,0.0,0.0,0.0,0.0,0.0,0.0,0.0,0.0,0.0,0.0,0.0,0.0,0.0,0.0,0.0,0.0,0.0,0.0,0.0,0.0,0.0,0.0,0.0,0.0,0.0,0.0,0.0,0.0,0.0,0.0,0.0,0.0,0.0,0.0,0.0,0.0,0.0,0.0,-3.6231,-3.6294,-3.7482,-3.8399,0.0,0.0,-3.837,-3.8605,-3.9903,-3.9048,-3.354,0.0,0.0,0.0,0.0,0.0,0.0,0.0,0.0,0.0,0.0,0.0,0.0,0.0,0.0,0.0,0.0,0.0,0.0,0.0,0.0,0.0,0.0,0.0,0.0,0.0,0.0,0.0,0.0,0.0,0.0,0.0,0.0,0.0,0.0,0.0,0.0,0.0,0.0,0.0,0.0,0.0,0.0,0.0,0.0,0.0,0.0,0.0,0.0,0.0,0.0,0.0,0.0,0.0,-3.6077,-3.9934,-4.3617,-4.6139,-4.7448,-4.9195,-4.9754,-4.9053,-4.4724,-4.1268,0.0,0.0,0.0,0.0,0.0,0.0,0.0,0.0,0.0,0.0,0.0,0.0,0.0,0.0,0.0,0.0,0.0,0.0,0.0,0.0,0.0,0.0,0.0,0.0,0.0,0.0,0.0,0.0,-2.2748,-2.2744,-2.2038,0.0,0.0,0.0,0.0,0.0,0.0,0.0,0.0,0.0,0.0,-3.7769,-3.8502,-3.9585,0.0,0.0,-3.8643,-3.824,-3.8089,-3.7676,-3.6403,-3.3403,-3.0435,0.0,0.0,0.0,0.0,0.0,0.0,0.0,0.0,0.0,0.0,0.0,0.0,0.0,0.0,0.0,0.0,0.0,0.0,0.0,0.0,0.0,0.0,0.0,0.0,0.0,0.0,0.0,0.0,0.0,0.0,0.0,0.0,0.0,0.0,0.0,0.0,0.0,0.0,0.0,0.0,0.0,0.0,0.0,0.0,0.0,0.0,0.0,0.0,0.0,0.0,0.0,0.0,-3.6075,-3.9661,-4.3255,-4.5584,-4.6573,-4.8451,-4.8937,-4.7787,-4.4332,-4.1326,0.0,0.0,0.0,0.0,0.0,0.0,0.0,0.0,0.0,0.0,0.0,0.0,0.0,0.0,0.0,0.0,0.0,0.0,0.0,0.0,0.0,0.0,0.0,0.0,0.0,0.0,0.0,0.0,-2.3331,-2.2885,-2.1932,0.0,0.0,0.0,0.0,0.0,0.0,0.0,0.0,0.0,0.0,-3.87,-3.915,-4.013,-4.039,-3.8948,-3.791,-3.725,-3.6996,-3.5487,-3.391,-3.2542,0.0,0.0,0.0,0.0,0.0,0.0,0.0,0.0,0.0,0.0,0.0,0.0,0.0,0.0,0.0,0.0,0.0,0.0,0.0,0.0,0.0,0.0,0.0,0.0,0.0,0.0,0.0,0.0,0.0,0.0,0.0,0.0,0.0,0.0,0.0,0.0,0.0,0.0,0.0,0.0,0.0,0.0,0.0,0.0,0.0,0.0,0.0,0.0,0.0,0.0,0.0,0.0,0.0,-3.6557,-4.0323,-4.2854,-4.4994,-4.6694,-4.754,-4.7786,-4.7357,-4.3898,-4.1179,-3.9318,0.0,0.0,0.0,0.0,0.0,0.0,0.0,0.0,0.0,0.0,0.0,0.0,0.0,0.0,0.0,0.0,0.0,0.0,0.0,0.0,0.0,0.0,0.0,0.0,0.0,0.0,-2.3686,-2.329,-2.2645,0.0,0.0,0.0,0.0,0.0,0.0,0.0,0.0,0.0,0.0,-3.6502,-3.8856,-3.7571,-3.8649,-3.9172,-3.794,-3.6344,-3.5337,-3.552,-3.422,-3.257,0.0,0.0,0.0,0.0,0.0,0.0,0.0,0.0,0.0,0.0,0.0,0.0,0.0,0.0,0.0,0.0,0.0,0.0,0.0,0.0,0.0,0.0,0.0,0.0,0.0,0.0,0.0,-3.1723,-3.229,0.0,0.0,0.0,0.0,0.0,0.0,0.0,0.0,0.0,0.0,0.0,-3.6707,-3.6996,0.0,0.0,0.0,0.0,0.0,0.0,0.0,0.0,0.0,0.0,0.0,0.0,-3.6445,-3.9568,-4.2508,-4.4529,-4.5511,-4.6601,-4.6899,-4.6353,-4.3815,-4.0483,-3.6341,0.0,0.0,0.0,0.0,0.0,0.0,0.0,0.0,0.0,0.0,0.0,0.0,0.0,0.0,0.0,0.0,0.0,0.0,0.0,0.0,0.0,0.0,0.0,0.0,0.0,-2.4111,0.0,0.0,0.0,0.0,0.0,0.0,0.0,0.0,0.0,0.0,0.0,-3.0925,-3.3862,-3.6237,-3.7572,-3.7346,-3.761,-3.7719,0.0,0.0,0.0,0.0,0.0,0.0,0.0,0.0,0.0,0.0,0.0,0.0,0.0,0.0,-2.6745,-2.5157,-2.5065,-2.5102,-2.4587,0.0,0.0,0.0,0.0,0.0,0.0,0.0,0.0,0.0,0.0,0.0,0.0,0.0,0.0,0.0,0.0,-3.5556,0.0,0.0,0.0,0.0,0.0,0.0,0.0,0.0,-3.9354,-4.0458,-4.0537,-4.0852,-4.0776,0.0,-3.9128,-3.7452,0.0,0.0,0.0,0.0,0.0,0.0,0.0,0.0,-3.6931,-3.9902,-4.2848,-4.478,-4.5597,-4.6647,-4.6861,-4.6134,-4.3643,-4.0324,-3.6161,-3.5036,-3.2978,0.0,0.0,0.0,0.0,0.0,0.0,0.0,0.0,0.0,0.0,0.0,0.0,0.0,0.0,0.0,0.0,0.0,0.0,0.0,0.0,0.0,0.0,0.0,-2.5589,0.0,0.0,0.0,0.0,0.0,0.0,0.0,0.0,0.0,-2.8639,-2.9401,-3.102,-3.4159,-3.5886,-3.6603,-3.589,0.0,0.0,0.0,0.0,0.0,0.0,0.0,-3.0709,-3.0335,-2.976,-2.9547,-3.0094,-3.0164,-3.005,-2.9821,0.0,0.0,-2.7165,-2.7028,-2.713,-2.6875,-2.7478,-2.7931,-2.7468,-2.7427,-2.7427,0.0,0.0,0.0,0.0,0.0,0.0,0.0,0.0,-3.8485,-3.878,0.0,-3.8108,0.0,0.0,0.0,0.0,0.0,0.0,0.0,0.0,-4.2691,-4.4102,-4.4109,-4.4284,-4.4088,-4.3606,-4.2697,-4.1766,-4.0707,-3.6043,0.0,0.0,0.0,0.0,0.0,0.0,-3.8075,-4.125,-4.3739,-4.5597,-4.6852,-4.7497,-4.7423,-4.6608,-4.3421,-4.0695,-3.8738,-3.6704,-3.4798,-3.2964,-3.0867,0.0,0.0,0.0,0.0,0.0,0.0,0.0,0.0,0.0,0.0,0.0,0.0,0.0,0.0,0.0,0.0,0.0,0.0,0.0,0.0,-2.6598,0.0,0.0,0.0,0.0,0.0,0.0,0.0,0.0,0.0,0.0,-2.9927,-3.0438,-3.1452,-3.3368,0.0,0.0,0.0,0.0,-3.563,-3.2995,-3.2062,-3.1685,-3.167,-3.0806,-3.0272,-3.0594,0.0,0.0,-3.0723,-3.0413,-3.0429,-3.0885,-3.1037,-3.0632,-2.9542,-2.9314,-2.9391,-2.9717,-2.9984,-3.0125,-3.0125,-3.0125,-3.0125,-4.6394,0.0,0.0,0.0,0.0,-4.0051,-4.1918,-4.4793,-4.4679,-4.4805,-4.4923,-4.326,0.0,0.0,0.0,0.0,0.0,0.0,-4.1328,-4.3478,-4.573,-4.6727,-4.6735,-4.7219,-4.7118,-4.6534,-4.4902,-4.3803,-4.3008,-4.0288,-3.7775,-3.5625,0.0,0.0,0.0,0.0,-3.9434,-4.179,-4.3826,-4.5548,-4.6902,-4.659,-4.585,-4.4693,-4.3214,-4.125,-3.8876,-3.7714,-3.6004,-3.3658,-3.2471,0.0,0.0,0.0,0.0,0.0,0.0,0.0,0.0,0.0,0.0,0.0,0.0,0.0,0.0,0.0,0.0,0.0,0.0,0.0,-2.7249,-2.8139,-2.8256,0.0,0.0,0.0,0.0,0.0,0.0,0.0,0.0,0.0,-3.1948,-3.2033,-3.2449,0.0,0.0,-3.4157,-3.383,-3.4301,-3.464,-3.4464,0.0,0.0,0.0,-3.2713,-3.2043,-3.1151,-3.1949,-3.2634,-3.2617,-3.2995,-3.3262,-3.3079,-3.3028,-3.2802,-3.2147,-3.1644,-3.1377,-3.1537,-3.2181,-3.2777,-3.2777,-3.2777,-3.2751,-5.4061,-5.0041,-4.6284,-4.5035,-4.5478,-4.5404,-4.7125,-4.989,-4.9201,-4.8993,-4.8921,-4.7062,-4.4512,-4.1603,-3.9974,0.0,0.0,0.0,-4.3815,-4.5799,-4.7448,-4.8336,-4.8584,-4.8943,-4.8769,-4.8101,-4.6969,-4.5837,-4.4734,-4.3621,-4.1718,-3.91,0.0,0.0,-3.7685,-3.9082,-4.0925,-4.3139,-4.4571,-4.6053,-4.764,-4.7025,-4.5735,-4.3876,-4.3118,-4.1589,-3.9023,-3.8205,-3.6748,-3.4546,-3.3697,-3.2497,0.0,0.0,0.0,0.0,0.0,0.0,0.0,0.0,0.0,0.0,0.0,-2.503,-2.5925,0.0,0.0,0.0,-2.7418,-2.842,-2.9086,-2.9571,0.0,0.0,0.0,0.0,0.0,0.0,0.0,-3.0279,-3.07,-3.1478,-3.3033,-3.3375,-3.3615,-3.3909,-3.3581,-3.3375,-3.3612,0.0,-3.482,-3.5395,-3.5958,-3.5845,-3.4484,-3.4029,-3.346,-3.2158,-3.2684,-3.3258,-3.3308,-3.3733,-3.3922,-3.3671,-3.3571,-3.347,-3.3144,-3.2792,-3.2566,-3.2566,-3.3093,-3.3545,-3.3571,-3.3571,-3.3571,-6.0729,-5.9074,-5.1915,-5.0153,-5.1846,-5.0944,-5.186,-5.382,-5.263,-5.1874,-5.1493,-4.9757,-4.8089,-4.6399,-4.4504,0.0,0.0,-4.4918,-4.6151,-4.7039,-4.8275,-4.9117,-4.9717,-4.9717,-4.9378,-4.8798,-4.8711,-4.7753,-4.6085,-4.6004,-4.5042,-4.3239,-4.0761,-3.9817,-4.037,-4.0965,-4.2518,-4.5078,-4.5698,-4.6882,-4.8645,-4.8122,-4.6498,-4.3784,-4.3071,-4.1551,-3.9133,-3.8211,-3.7019,-3.5477,-3.4498,-3.3427,-3.2138,0.0,0.0,0.0,0.0,0.0,0.0,0.0,0.0,0.0,0.0,0.0,0.0,0.0,0.0,0.0,-2.9837,0.0,-3.097,-3.0891,0.0,0.0,0.0,-2.8612,-2.8631,-2.9577,-3.0378,-3.0808,0.0,0.0,-3.3631,0.0,-3.4733,-3.3602,-3.3449,-3.3365,-3.3146,-3.4566,-3.5683,-3.5686,-3.6503,-3.6543,-3.4968,-3.4605,-3.4131,-3.3174,-3.3136,-3.3111,-3.3111,-3.3136,-3.3136,-3.3018,-3.3018,-3.2968,-3.2986,-3.2842,-3.2943,-3.291,-3.2993,-3.3111,-3.3018,-3.3068,-3.3119,-6.3167,-6.2674,-5.9859,-5.7936,-5.6628,-5.6427,-5.6897,-5.7797,-5.652,-5.5384,-5.4327,-5.2478,-5.0368,-4.808,-4.7144,-4.6924,-4.7282,-4.7748,-4.8341,-4.9001,-4.9291,-4.9524,-4.9669,-4.9746,-4.9582,-4.9407,-4.8449,-4.7782,-4.7335,-4.6411,-4.5799,-4.5388,-4.4162,-4.3208,-4.2591,-4.3175,-4.4295,-4.5898,-4.6559,-4.7007,-4.7314,-4.72,-4.5801,-4.3102,-4.2001,-4.0419,-3.8347,-3.7207,-3.616,-3.5237,-3.4633,-3.3856,-3.2793,-3.1819,0.0,0.0,0.0,0.0,0.0,0.0,0.0,0.0,0.0,-2.7705,-2.8904,0.0,-3.0254,0.0,-3.0697,-3.1069,-3.1128,-3.1478,0.0,0.0,-3.0848,-3.1334,-3.1684,-3.2037,-3.2643,-3.3745,-3.4019,-3.4432,-3.5198,-3.5521,-3.5548,-3.5009,-3.4292,-3.406,-3.4551,-3.506,-3.5373,-3.5328,-3.6497,-3.6628,-3.464,-3.3777,-3.3428,-3.3154,-3.3111,-3.3136,-3.3111,-3.3136,-3.2943,-3.2541,-3.2416,-3.2265,-3.1888,-3.1788,-3.1813,-3.1863,-3.2508,-3.2943,-3.2541,-3.2767,-3.3111,-6.4473,-6.4386,-6.337,-6.2151,-6.0787,-5.9945,-5.98,-6.0032,-5.8755,-5.7448,-5.6113,-5.3965,-5.1904,-5.0046,-4.964,-4.9524,-4.9611,-4.9901,-4.9901,-4.9746,-5.0008,-4.9959,-4.9746,-4.9746,-4.9746,-4.9717,-4.8943,-4.8478,-4.8159,-4.7201,-4.6661,-4.6476,-4.5697,-4.5215,-4.503,-4.4488,-4.4918,-4.6361,-4.7503,-4.7539,-4.6413,-4.6695,-4.5616,-4.3069,-4.1657,-3.9882,-3.7763,-3.661,-3.5617,-3.4716,-3.4403,-3.4022,-3.3513,-3.2652,-3.1835,0.0,0.0,0.0,0.0,0.0,0.0,0.0,0.0,0.0,0.0,0.0,-3.2419,-3.206,-3.2403,-3.2521,-3.2254,-3.2771,-3.291,-3.2342,-3.2364,-3.2845,-3.3788,-3.3804,-3.4079,-3.5073,-3.5176,-3.5398,-3.6012,-3.591,-3.5678,-3.5504,-3.4824,-3.4517,-3.5073,-3.5493,-3.5706,-3.5701,-3.6772,-3.6891,-3.4796,-3.3495,-3.2692,-3.2667,-3.2491,-3.2315,-3.2357,-3.234,-3.2215,-3.1913,-3.1838,-3.1763,-3.1461,-3.1386,-3.1336,-3.121,-3.1738,-3.2139,-3.1913,-3.2114,-3.2407,-6.4938,-6.4793,-6.4183,-6.3864,-6.3661,-6.1832,-6.1135,-6.1106,-5.9916,-5.8581,-5.7042,-5.4691,-5.3036,-5.1991,-5.1817,-5.141,-5.083,-5.1294,-5.0859,-4.9776,-5.0328,-5.0299,-4.9698,-4.9746,-4.9746,-4.9669,-4.9582,-4.9233,-4.8595,-4.7985,-4.7364,-4.6816,-4.6295,-4.6383,-4.7007,-4.5284,-4.5139,-4.674,-4.839,-4.8137,-4.5938,-4.6327,-4.5462,-4.3019,-4.142,-3.9565,-3.7336,-3.6344,-3.5366,-3.4394,-3.4333,-3.4273,-3.4243,-3.3429,-3.2857,0.0,-3.1296,0.0,0.0,0.0,0.0,0.0,0.0,0.0,0.0,-3.4485,-3.4696,-3.412,-3.4352,-3.4297,-3.3777,-3.4225,-3.4511,-3.4444,-3.3658,-3.3706,-3.5106,-3.5111,-3.5102,-3.5558,-3.6081,-3.6405,-3.6229,-3.5881,-3.5583,-3.5382,-3.5052,-3.4781,-3.4874,-3.5323,-3.5738,-3.6151,-3.6599,-3.6162,-3.4949,-3.3377,-3.224,-3.219,-3.1813,-3.1386,-3.1461,-3.1436,-3.1386,-3.1311,-3.1286,-3.126,-3.121,-3.116,-3.1009,-3.0583,-3.0884,-3.121,-3.1286,-3.1411,-3.1562,-6.4677,-6.4091,-6.3545,-6.2964,-6.2354,-6.0961,-6.07,-6.1135,-6.0351,-5.8726,-5.649,-5.4981,-5.4197,-5.3878,-5.2862,-5.2049,-5.141,-5.1033,-5.0473,-4.9746,-4.9834,-4.9814,-4.9746,-4.9746,-4.9746,-4.964,-4.9146,-4.8566,-4.7956,-4.7317,-4.706,-4.7138,-4.6856,-4.6709,-4.6705,0.0,0.0,0.0,-4.8797,-4.8381,-4.6275,-4.5835,-4.4334,-4.1597,-4.0173,0.0,-3.6909,-3.6351,-3.5948,-3.558,-3.5548,0.0,0.0,0.0,0.0,0.0,0.0,0.0,0.0,0.0,0.0,0.0,-3.5272,-3.5364,-3.397,-3.4907,-3.5593,-3.5591,-3.564,-3.5463,-3.4939,-3.4724,-3.4594,-3.4444,-3.4358,-3.4641,-3.538,-3.5798,-3.6153,-3.6229,-3.6307,-3.6182,-3.5805,-3.5981,-3.583,-3.5002,-3.5107,-3.4821,-3.3629,-3.402,-3.4216,-3.3905,-3.4024,-3.3879,-3.3589,-3.2743,-3.2114,-3.2139,-3.1763,-3.1386,-3.1336,-3.1336,-3.1185,-3.0859,-3.0758,-3.0608,-3.0206,-3.0105,-3.0131,-2.998,-3.003,-3.0231,-3.0658,-3.1085,-3.1537,-6.4154,0.0,-6.2877,-6.2238,0.0,-6.0961,-6.0148,-5.9248,-5.89,-5.7536,-5.5416,-5.4458,-5.4023,-5.3965,-5.3007,-5.2223,-5.1643,-5.1614,-5.1141,-5.0191,-5.0211,-5.0336,-5.0627,-5.0307,-5.0336,-5.0598,-4.9988,-4.9524,-4.9194,-4.7927,-4.7391,-4.7494,-4.677,-4.6518,-4.6758,-4.7228,-4.6975,-4.5949,-4.6903,-4.6785,-4.5634,-4.4725,-4.3385,-4.1749,0.0,0.0,0.0,0.0,0.0,0.0,0.0,0.0,0.0,0.0,0.0,-3.3994,-3.418,-3.4301,-3.4351,-3.5008,-3.5565,-3.5984,-3.6606,-3.6713,-3.5905,-3.6272,-3.6566,-3.6646,-3.6641,-3.6367,-3.5695,-3.5725,-3.5904,-3.6035,-3.544,-3.5421,-3.6527,-3.6055,-3.5827,-3.6254,-3.5881,-3.5529,-3.5508,-3.4977,-3.455,-3.3997,-3.3872,-3.3477,-3.2591,-3.2968,-3.3219,-3.2432,-3.2282,-3.224,-3.2215,-3.1788,-3.1436,-3.1361,-3.0959,-3.0633,-3.0608,-3.0608,-3.0507,-3.0256,-3.0206,-3.0105,-2.988,-2.9779,-2.9779,-2.9754,-2.9553,-2.9327,-2.9453,-3.003,-3.0758,-6.3661,-6.3022,-6.2267,-6.1571,-6.1019,-6.0787,-5.9277,-5.6955,0.0,0.0,0.0,-5.3791,-5.35,-5.3471,-5.2862,-5.2281,-5.1817,-5.2194,-5.1846,-5.0859,-5.0763,-5.1004,-5.1585,-5.0859,-5.083,-5.141,-5.0801,-5.0452,-5.0249,-4.8595,-4.7724,-4.7521,-4.6583,-4.6358,-4.6901,-4.7745,-4.6884,-4.4415,-4.5169,-4.534,-4.4769,-4.3571,-4.2585,-4.1966,-3.9971,-3.8443,-3.7451,-3.7162,-3.6788,-3.6339,-3.6341,-3.6277,-3.6181,-3.6181,-3.5874,-3.5138,-3.5589,-3.5959,-3.6207,-3.6851,-3.738,-3.7738,-3.7593,-3.7631,-3.8007,-3.7704,-3.7447,-3.7476,-3.7476,-3.7189,-3.6458,-3.6652,-3.7175,-3.7793,-3.64,-3.6141,-3.7677,-3.6191,-3.5218,-3.5907,-3.5138,-3.4525,-3.4731,-3.3897,-3.3011,-3.2792,-3.2566,-3.1964,-3.1537,-3.2114,-3.2483,-3.1687,-3.1578,-3.1436,-3.1336,-3.1009,-3.0658,-3.0683,-3.0206,-2.9804,-2.9779,-2.9779,-2.9779,-2.9854,-2.9779,-2.9804,-2.9804,-2.9779,-2.9779,-2.9779,-2.9327,-2.8712,-2.8348,-2.875,-2.9503,-6.3661,-6.2993,-6.1832,-6.0961,-6.0264,-5.9161,-5.7565,-5.5649,-5.5126,-5.4749,-5.4458,-5.3791,-5.35,-5.3471,-5.2862,-5.2514,-5.2449,-5.1962,-5.1643,0.0,-5.0917,-5.1004,-5.1556,-5.0394,-5.0162,-5.0714,-5.0133,-4.9524,-4.8943,-4.8188,-4.7521,-4.6986,-4.68,-4.68,-4.6812,-4.5943,-4.5227,-4.4805,-4.6357,-4.6253,-4.4429,-4.3184,-4.192,-4.0601,-3.9623,-3.8656,-3.7761,-3.7831,-3.7801,-3.7546,-3.7546,-3.7375,-3.6965,-3.693,-3.6694,-3.6155,-3.6143,-3.6493,-3.7092,-3.7666,-3.851,-3.9509,-3.8696,-3.8123,-3.8169,-3.8094,-3.8086,-3.8086,-3.8115,-3.8049,-3.787,-3.7347,-3.7231,-3.7714,-3.6921,-3.6656,-3.7362,-3.6065,-3.5159,-3.5297,-3.415,-3.3144,-3.2918,-3.2918,-3.2591,-3.1938,-3.1813,-3.1813,-3.106,-3.1235,-3.1537,-3.1436,-3.1386,-3.1386,-3.1235,-3.0959,-3.0608,-3.0608,-3.0131,-2.9779,-2.9779,-2.9779,-2.9779,-2.9779,-2.9754,-2.9754,-2.9754,-2.9779,-2.9704,-2.9654,-2.9202,-2.8662,-2.8122,-2.7896,-2.8047,-6.2732,-6.1513,-6.0903,-6.009,-5.9045,-5.7419,-5.6258,-5.5329,-5.4371,-5.3965,-5.3907,-5.3268,-5.3181,-5.3442,-5.2862,-5.2368,-5.2049,-5.2107,-5.1933,-5.1614,-5.1323,-5.1527,-5.202,-5.1178,-5.0888,-5.112,-5.054,-5.0075,-4.9698,-4.8449,-4.7637,-4.7288,-4.6677,-4.6535,-4.6828,-4.6307,-4.5992,-4.5941,-4.5686,-4.5079,-4.4086,-4.2552,-4.1405,-4.0728,-3.9373,-3.843,-3.8026,-3.8098,-3.8098,-3.8026,-3.8026,-3.7919,-3.7696,-3.7696,-3.7441,-3.6896,-3.7157,-3.7476,-3.7767,-3.8376,-3.9131,-3.9973,-3.9247,-3.8754,-3.8754,-3.8754,-3.887,-3.9189,-3.9218,-3.9218,-3.9218,-3.8582,-3.8263,-3.851,-3.7798,-3.7219,-3.6893,-3.5716,-3.4779,-3.4533,-3.319,-3.2164,-3.2215,-3.1938,-3.1612,-3.1035,-3.1009,-3.0708,-3.0256,-3.0382,-3.0532,-3.0507,-3.0532,-3.0532,-3.0507,-3.0357,-3.0181,-3.0156,-2.9955,-2.9804,-2.9779,-2.9779,-2.9779,-2.9754,-2.9578,-2.9352,-2.9327,-2.9327,-2.9202,-2.89,-2.8699,-2.8197,-2.7444,-2.7027,-2.7304,-6.2064,-6.0409,-6.0119,-5.9248,-5.7942,-5.6345,-5.5562,-5.53,-5.4226,-5.3646,-5.3442,-5.3007,-5.3065,-5.3442,-5.3007,-5.2426,-5.1991,-5.2484,-5.2455,-5.1875,-5.1846,-5.2107,-5.2478,-5.1788,-5.1352,-5.1149,-5.0685,-5.0357,-4.9872,-4.8555,-4.7637,-4.7288,-4.6359,-4.6164,-4.6668,-4.6648,-4.6599,-4.6471,-4.5102,-4.4274,-4.4021,-4.2162,-4.1083,-4.0991,-3.9358,-3.8347,-3.8231,-3.8202,-3.8202,-3.8202,-3.8202,-3.8202,-3.8202,-3.8202,-3.7999,-3.7622,-3.7941,-3.8347,-3.8638,-3.9102,-3.9741,-4.0466,-3.9712,-3.9305,-3.9567,-3.9479,-3.9509,-3.9857,-3.9944,-4.006,-4.0002,-3.9683,-3.9392,-3.9354,-3.8674,-3.8025,-3.731,-3.576,-3.4484,-3.4053,-3.2478,-3.1402,-3.1427,-3.0959,-3.0482,-3.0382,-3.0055,-2.9804,-2.9779,-2.9779,-2.9779,-2.9779,-2.9779,-2.9829,-2.9779,-2.9654,-2.9603,-2.9603,-2.9453,-2.9402,-2.9453,-2.9503,-2.9603,-2.9603,-2.9289,-2.8988,-2.8913,-2.8787,-2.8512,-2.8097,-2.7695,-2.7168,-2.6289,-2.6088,-2.6474,-6.2296,-6.1019,-5.9829,-5.861,-5.7332,-5.6578,-5.591,-5.5329,-5.4691,-5.4052,-5.353,-5.3442,-5.3442,-5.35,-5.3442,-5.3065,-5.2514,-5.3123,-5.3065,-5.2565,-5.2484,-5.2565,-5.2397,-5.1323,-5.0452,-4.9988,-4.9814,-4.9233,-4.8304,-4.7898,-4.7248,-4.6185,-4.5924,-4.594,-4.5974,-4.5955,-4.5919,-4.59,-4.5708,-4.5321,-4.4631,-4.2346,-4.1125,-4.1088,-3.9827,-3.8812,-3.8289,-3.8202,-3.8202,-3.8202,-3.8202,-3.8202,-3.8202,-3.8202,-3.8173,-3.8115,-3.8173,-3.8696,-3.977,-3.9973,-4.0554,-4.1628,-4.0205,-3.9683,-4.067,-4.0321,-3.977,-3.9538,-3.9799,-4.0176,-4.0089,-4.0031,-3.9944,-3.9886,-3.9363,-3.9045,-3.8467,-3.6722,-3.4853,-3.4077,-3.2287,-3.0751,-3.0441,-3.0094,-2.993,-2.9955,-2.988,-2.9779,-2.9779,-2.9779,-2.9779,-2.9779,-2.9779,-2.9779,-2.9704,-2.9327,-2.9013,-2.8938,-2.8562,-2.8599,-2.8825,-2.8699,-2.8524,-2.9277,-2.9252,-2.8838,-2.8712,-2.8512,-2.8021,-2.7394,-2.6666,-2.5737,-2.5159,-2.5109,-2.5586,-6.1222,-5.9974,-5.8668,-5.7361,-5.62,-5.5533,-5.5126,-5.4836,-5.4197,-5.3762,-5.353,-5.35,-5.35,-5.35,-5.35,-5.3181,-5.2601,-5.2833,-5.2804,-5.2623,-5.2623,-5.2245,-5.149,-5.0946,-5.0133,-4.9156,-4.9117,-4.8856,-4.8304,-4.7579,-4.6766,-4.5982,-4.5895,-4.5895,-4.5882,-4.5874,-4.5878,-4.5843,-4.5475,-4.5135,-4.4716,-4.3163,-4.1872,-4.1047,-3.9896,-3.9102,-3.8783,-3.8434,-3.8202,-3.8202,-3.8202,-3.8202,-3.8202,-3.8202,-3.8202,-3.8231,-3.8928,-3.9712,-4.0612,-4.0699,-4.1076,-4.2034,-4.0641,-3.9973,-4.0437,-4.0234,-3.9857,-3.9479,-4.0466,-4.1279,-4.1163,-4.0583,-4.0089,-4.0031,-3.9567,-3.8736,-3.7377,-3.6779,-3.5749,-3.4164,-3.2517,-3.138,-3.0997,-3.0304,-2.9843,-2.9779,-2.9779,-2.9779,-2.9779,-2.9779,-2.9779,-2.9779,-2.9779,-2.9628,-2.9352,-2.88,-2.8461,-2.8423,-2.8273,-2.8273,-2.8298,-2.8323,-2.8323,-2.8775,-2.8599,-2.8448,-2.8423,-2.8273,-2.7871,-2.6967,-2.5963,-2.5026,-2.4825,-2.5084,-2.5485,-6.0351,-5.8929,-5.7594,-5.6432,-5.5358,-5.4575,-5.4226,-5.4168,-5.3559,-5.3239,-5.3268,-5.3442,-5.35,-5.35,-5.35,-5.3094,-5.2426,-5.2659,-5.263,-5.2397,-5.2659,-5.2165,-5.1033,-5.0917,-5.0162,-4.8943,-4.8943,-4.8827,-4.8391,-4.7201,-4.633,-4.5924,-4.5895,-4.5895,-4.5911,-4.59,-4.5903,-4.5836,-4.5394,-4.4956,-4.4549,-4.3754,-4.2662,-4.1408,-4.0284,-3.9567,-3.9189,-3.8725,-3.8376,-3.8231,-3.8202,-3.8202,-3.8202,-3.8202,-3.8289,-3.8551,-3.9654,-4.0583,-4.1076,-4.125,-4.157,-4.1918,-4.0873,-4.0089,-4.006,-3.9944,-3.9654,-3.9392,-4.0641,-4.1453,-4.1424,-4.067,-4.0147,-4.006,-3.9567,-3.8486,-3.7244,-3.7024,-3.6046,-3.4372,-3.293,-3.1902,-3.15,-3.0622,-3.003,-2.9829,-2.9779,-2.9779,-2.9779,-2.9779,-2.9779,-2.9779,-2.9654,-2.9402,-2.8938,-2.8461,-2.8147,-2.7846,-2.777,-2.762,-2.777,-2.7795,-2.7971,-2.8172,-2.7996,-2.7871,-2.7821,-2.7745,-2.7243,-2.6138,-2.5285,-2.4825,-2.48,-2.5159,-2.5485,-6.009,-5.8232,-5.6984,-5.5968,-5.5271,-5.4081,-5.353,-5.3471,-5.2891,-5.263,-5.2798,-5.3268,-5.35,-5.35,-5.35,-5.2862,-5.1991,-5.2891,-5.2775,-5.1962,-5.2891,-5.2775,-5.1643,-5.1556,-5.0569,-4.8943,-4.9233,-4.8943,-4.784,-4.6592,-4.5924,-4.5895,-4.5895,-4.5895,-4.5898,-4.5918,-4.5882,-4.5865,-4.5777,-4.518,-4.4132,-4.3872,-4.3218,-4.1982,-4.1309,-4.0408,-3.9421,-3.9189,-3.887,-3.8231,-3.8202,-3.8202,-3.8202,-3.8231,-3.8522,-3.9218,-4.035,-4.1047,-4.1192,-4.1686,-4.2034,-4.1918,-4.0873,-4.0089,-4.006,-3.9538,-3.9189,-3.9189,-3.9741,-4.0205,-4.0205,-4.0089,-3.9963,-3.9894,-3.9509,-3.9064,-3.8823,-3.7148,-3.583,-3.4741,-3.3488,-3.2201,-3.0947,-3.0647,-3.0331,-3.0005,-2.9829,-2.9804,-2.9779,-2.9779,-2.9779,-2.9704,-2.9402,-2.8938,-2.8838,-2.8436,-2.7946,-2.767,-2.7394,-2.6901,-2.6952,-2.7102,-2.7394,-2.7595,-2.7544,-2.7444,-2.7304,-2.6801,-2.6072,-2.5335,-2.5059,-2.475,-2.4983,-2.485,-2.5259,-5.861,-5.6403,-5.5562,-5.4575,-5.3559,-5.3094,-5.2688,-5.2339,-5.2514,-5.2623,-5.2739,-5.3239,-5.35,-5.35,-5.35,-5.3268,-5.2862,-5.292,-5.2659,-5.2281,-5.2717,-5.2252,-5.112,-5.1004,-5.0481,-4.9465,-4.9146,-4.8624,-4.7724,-4.6505,-4.5895,-4.5895,-4.5895,-4.5895,-4.5882,-4.5886,-4.5873,-4.5903,-4.5878,-4.5268,-4.4099,-4.395,-4.3312,-4.2111,-4.143,-4.0873,-4.0437,-3.9654,-3.9102,-3.8841,-3.8434,-3.8202,-3.8231,-3.8609,-3.9334,-4.0292,-4.0844,-4.1279,-4.1686,-4.1947,-4.2092,-4.2005,-4.0844,-4.0089,-3.9915,-3.9189,-3.858,-3.8609,-3.8725,-3.887,-3.8957,-3.9247,-3.9314,-3.8807,-3.8621,-3.8131,-3.7321,-3.7137,-3.692,-3.5459,-3.4033,-3.2665,-3.1544,-3.111,-3.0909,-3.0432,-3.0306,-3.0156,-2.988,-2.9779,-2.9779,-2.9754,-2.9603,-2.9352,-2.8888,-2.8473,-2.7996,-2.777,-2.7494,-2.7243,-2.7193,-2.6901,-2.7077,-2.7203,-2.7153,-2.7218,-2.7128,-2.6826,-2.5896,-2.541,-2.5109,-2.5034,-2.5259,-2.5184,-2.5586,-5.7216,-5.5474,-5.4778,-5.3762,-5.2652,-5.2339,-5.1904,-5.141,-5.1759,-5.2049,-5.2339,-5.292,-5.3326,-5.3471,-5.35,-5.35,-5.3471,-5.3065,-5.2659,-5.231,-5.2536,-5.1904,-5.083,-5.0656,-5.0336,-4.9669,-4.903,-4.8391,-4.7724,-4.6708,-4.6098,-4.5895,-4.5895,-4.5895,-4.5895,-4.5895,-4.5895,-4.5913,-4.5874,-4.5346,-4.4429,-4.4057,-4.3453,-4.2466,-4.1744,-4.1308,-4.1105,-4.0263,-3.9683,-3.945,-3.887,-3.8522,-3.858,-3.916,-3.9973,-4.096,-4.1308,-4.1599,-4.2005,-4.2092,-4.2092,-4.2034,-4.0902,-4.0089,-4.0002,-3.8928,-3.8318,-3.8202,-3.8202,-3.8202,-3.8289,-3.8638,-3.8611,-3.809,-3.7901,-3.7337,-3.6227,-3.657,-3.6148,-3.4967,-3.4211,-3.3152,-3.1994,-3.1729,-3.1411,-3.0934,-3.0733,-3.0432,-3.0156,-2.988,-2.9779,-2.9779,-2.9779,-2.9603,-2.9377,-2.9026,-2.8423,-2.8122,-2.7896,-2.7645,-2.7419,-2.7017,-2.6776,-2.6801,-2.6851,-2.7002,-2.6927,-2.67,-2.6298,-2.5737,-2.5435,-2.531,-2.5435,-2.5536,-2.5946,-5.6055,-5.5358,-5.4749,-5.3704,-5.2484,-5.1933,-5.1294,-5.0743,-5.0772,-5.1178,-5.1788,-5.2339,-5.2978,-5.3413,-5.35,-5.35,-5.3413,-5.3413,-5.2775,-5.1846,-5.2252,-5.1846,-5.0714,-5.0656,-5.0307,-4.9669,-4.903,-4.842,-4.784,-4.7172,-4.6563,-4.604,-4.5982,-4.6011,-4.5924,-4.5982,-4.5953,-4.5998,-4.5985,-4.5591,-4.4879,-4.4298,-4.3658,-4.2963,-4.2353,-4.1744,-4.1192,-4.1047,-4.067,-4.0089,-3.9479,-3.9218,-3.9247,-3.9712,-4.0408,-4.1105,-4.1715,-4.2034,-4.2092,-4.2092,-4.2092,-4.1918,-4.0873,-4.0089,-3.9944,-3.8957,-3.8202,-3.8202,-3.8202,-3.8202,-3.8202,-3.826,-3.8214,-3.8089,-3.7453,-3.6961,-3.6531,-3.5399,-3.4147,-3.3641,-3.3817,-3.3679,-3.2684,-3.234,-3.2155,-3.1527,-3.1165,-3.0813,-3.0547,-3.0156,-2.988,-2.9779,-2.9779,-2.9704,-2.9729,-2.9704,-2.9051,-2.8499,-2.8298,-2.8097,-2.7921,-2.7595,-2.7178,-2.7077,-2.67,-2.6801,-2.6751,-2.6524,-2.6373,-2.5946,-2.5711,-2.5611,-2.5737,-2.5921,-2.6047,-5.5591,-5.53,-5.4255,-5.3094,-5.1962,-5.1701,-5.1004,-5.0075,-5.0452,-5.1033,-5.1643,-5.2281,-5.292,-5.3384,-5.35,-5.3297,-5.292,-5.3239,-5.2833,-5.1817,-5.1846,-5.1497,-5.0801,-5.0656,-5.0386,-4.9669,-4.903,-4.8576,-4.8362,-4.7782,-4.7172,-4.665,-4.6534,-4.6534,-4.6534,-4.6534,-4.6534,-4.6488,-4.6534,-4.6011,-4.4966,-4.4298,-4.3689,-4.3021,-4.2411,-4.1976,-4.1802,-4.1337,-4.0989,-4.0786,-3.977,-3.9392,-3.977,-4.0002,-4.0612,-4.1628,-4.1976,-4.2092,-4.2092,-4.2092,-4.2092,-4.186,-4.0873,-4.0205,-3.9973,-3.8928,-3.8231,-3.8202,-3.8202,-3.8202,-3.8202,-3.8202,-3.8014,-3.7376,-3.7039,-3.657,-3.5909,-3.5047,-3.4397,-3.4021,-3.3751,-3.331,-3.3098,-3.3149,-3.3062,-3.2272,-3.223,-3.2111,-3.0943,-3.0572,-3.0181,-2.9905,-2.9854,-2.9804,-2.9779,-2.9779,-2.9453,-2.9051,-2.885,-2.8674,-2.8499,-2.7971,-2.757,-2.7128,-2.6751,-2.6549,-2.6499,-2.6424,-2.6298,-2.6298,-2.6172,-2.6172,-2.6197,-2.6273,-2.6323,-5.5271,-5.4952,-5.3936,-5.2775,-5.1672,-5.1643,-5.0888,-4.9843,-5.0104,-5.0656,-5.1294,-5.1933,-5.2572,-5.3123,-5.3413,-5.3297,-5.2949,-5.3123,-5.2601,-5.1759,-5.1643,-5.1178,-5.0423,-5.0307,-5.0182,-4.9698,-4.9291,-4.8943,-4.8663,-4.8304,-4.7811,-4.7288,-4.7201,-4.7172,-4.7172,-4.7201,-4.7172,-4.7172,-4.6894,-4.6446,-4.5605,-4.4763,-4.4124,-4.366,-4.3108,-4.2702,-4.244,-4.2005,-4.1686,-4.1337,-4.0466,-4.0147,-4.0437,-4.0495,-4.096,-4.1802,-4.2092,-4.2092,-4.2092,-4.2092,-4.2092,-4.186,-4.0873,-4.0118,-3.9886,-3.8928,-3.8231,-3.8202,-3.8202,-3.8202,-3.8202,-3.8202,-3.7938,-3.7424,-3.6766,-3.5949,-3.4965,-3.4538,-3.423,-3.3937,-3.3751,-3.3454,-3.3368,-3.3428,-3.3766,-3.3113,-3.2982,-3.3079,-3.1741,-3.1236,-3.0712,-3.0281,-3.0206,-3.0055,-2.9829,-2.9779,-2.9779,-2.9603,-2.9428,-2.9302,-2.9176,-2.8298,-2.767,-2.7052,-2.66,-2.6524,-2.6499,-2.6499,-2.6424,-2.6474,-2.6499,-2.6424,-2.6373,-2.6399,-2.6449,-5.5068,-5.4487,-5.382,-5.2775,-5.1701,-5.1643,-5.0888,-4.9814,-4.9776,-5.0182,-5.0772,-5.1323,-5.1962,-5.2601,-5.3152,-5.3297,-5.3355,-5.2978,-5.2397,-5.1817,-5.1556,-5.1004,-4.993,-4.9863,-4.9805,-4.9746,-4.964,-4.9349,-4.8885,-4.8798,-4.8449,-4.7898,-4.784,-4.784,-4.784,-4.784,-4.784,-4.7753,-4.7317,-4.6998,-4.6749,-4.5692,-4.4966,-4.4879,-4.4298,-4.3689,-4.3137,-4.2876,-4.2586,-4.2034,-4.125,-4.0931,-4.1047,-4.1076,-4.1366,-4.2034,-4.2092,-4.2092,-4.2092,-4.2092,-4.2092,-4.1976,-4.1018,-4.0118,-3.9973,-3.9102,-3.8318,-3.8231,-3.8202,-3.8202,-3.8202,-3.8202,-3.8127,-3.7872,-3.6621,-3.5102,-3.3513,-3.381,-3.3878,-3.3496,-3.3793,-3.4021,-3.3197,-3.3283,-3.3615,-3.3682,-3.3181,-3.2998,-3.2608,-3.1955,-3.1266,-3.0834,-3.0482,-3.0181,-2.9905,-2.9779,-2.9779,-2.9754,-2.9603,-2.9528,-2.9277,-2.8398,-2.757,-2.6952,-2.6575,-2.6524,-2.6499,-2.6499,-2.6499,-2.6499,-2.6499,-2.6499,-2.6499,-2.6499,-2.6499,-5.5329,-5.5068,-5.3965,-5.2775,-5.1701,-5.1643,-5.0888,-4.9805,-4.9746,-5.0095,-5.0598,-5.083,-5.1527,-5.2514,-5.2717,-5.2804,-5.2891,-5.3123,-5.263,-5.1759,-5.1643,-5.0888,-4.9901,-4.9746,-4.9746,-4.9746,-4.9746,-4.9582,-4.9436,-4.9378,-4.9088,-4.8508,-4.8478,-4.8478,-4.8478,-4.8478,-4.8478,-4.8478,-4.8286,-4.7927,-4.7462,-4.6766,-4.6098,-4.5576,-4.5024,-4.4385,-4.3747,-4.3253,-4.2469,-4.1453,-4.1221,-4.1105,-4.1134,-4.1134,-4.1424,-4.1947,-4.2092,-4.2092,-4.2092,-4.2092,-4.2092,-4.2034,-4.1279,-4.0641,-4.0118,-3.9392,-3.8754,-3.8376,-3.8202,-3.8202,-3.8202,-3.8202,-3.7976,-3.726,-3.6267,-3.4938,-3.3641,-3.324,-3.3326,-3.3154,-3.3368,-3.3326,-3.3326,-3.3539,-3.381,-3.3658,-3.3614,-3.3466,-3.3049,-3.2663,-3.1969,-3.1025,-3.0493,-3.0231,-3.0005,-2.9854,-2.9779,-2.9779,-2.9654,-2.9478,-2.8976,-2.8147,-2.7369,-2.6675,-2.6549,-2.6499,-2.6499,-2.6499,-2.6499,-2.6499,-2.6499,-2.6499,-2.6499,-2.6499,-2.6499,-5.5271,-5.4952,-5.3936,-5.2775,-5.1701,-5.1643,-5.0859,-4.9843,-4.9746,-4.9921,-5.0328,-5.0569,-5.1141,-5.1788,-5.231,-5.2623,-5.263,-5.2949,-5.2688,-5.2078,-5.1468,-5.0627,-4.9921,-4.9746,-4.9746,-4.9746,-4.9746,-4.9746,-4.9717,-4.9746,-4.9465,-4.9204,-4.9117,-4.9117,-4.9117,-4.9117,-4.9117,-4.9088,-4.8885,-4.8508,-4.8159,-4.755,-4.7114,-4.6621,-4.604,-4.5314,-4.4443,-4.3485,-4.2615,-4.2005,-4.1686,-4.1512,-4.1512,-4.1512,-4.1715,-4.2092,-4.2092,-4.2092,-4.2092,-4.2092,-4.2092,-4.1976,-4.1482,-4.0815,-4.0176,-3.9538,-3.8928,-3.8318,-3.8231,-3.8202,-3.8202,-3.8202,-3.7796,-3.7028,-3.6108,-3.5061,-3.3768,-3.3368,-3.3154,-3.3136,-3.3136,-3.3136,-3.3136,-3.3581,-3.3751,-3.3793,-3.4105,-3.3814,-3.3441,-3.3129,-3.2523,-3.1433,-3.0758,-3.0532,-3.008,-2.9829,-2.9779,-2.9779,-2.9478,-2.9289,-2.895,-2.8147,-2.7469,-2.6927,-2.6675,-2.6499,-2.6549,-2.6549,-2.6499,-2.6499,-2.6499,-2.6499,-2.6499,-2.66,-2.66,-5.5155,-5.4546,-5.3907,-5.2833,-5.173,-5.1614,-5.0859,-4.9892,-4.9746,-4.9698,-4.9843,-5.0336,-5.0627,-5.0793,-5.181,-5.2449,-5.2623,-5.2659,-5.2681,-5.2216,-5.1468,-5.054,-5.0008,-4.9776,-4.9746,-4.9746,-4.9746,-4.9746,-4.9746,-4.9746,-4.9746,-4.9582,-4.9611,-4.9669,-4.9582,-4.9611,-4.9717,-4.9524,-4.9146,-4.8943,-4.8769,-4.8333,-4.8014,-4.7695,-4.6969,-4.6185,-4.514,-4.4037,-4.3166,-4.3079,-4.2469,-4.2063,-4.2034,-4.2063,-4.2092,-4.215,-4.2208,-4.2266,-4.2208,-4.2266,-4.2237,-4.215,-4.1628,-4.0902,-4.035,-3.9741,-3.9131,-3.8492,-3.826,-3.8202,-3.8202,-3.8202,-3.7938,-3.7183,-3.6267,-3.5305,-3.4579,-3.3683,-3.3136,-3.3136,-3.3136,-3.3136,-3.3136,-3.3154,-3.3368,-3.3581,-3.3852,-3.3691,-3.353,-3.3394,-3.2583,-3.1502,-3.1085,-3.0884,-3.0331,-2.9779,-2.9779,-2.9754,-2.9264,-2.9038,-2.9076,-2.8448,-2.7795,-2.7329,-2.7077,-2.6876,-2.6725,-2.6675,-2.6575,-2.6499,-2.6499,-2.6499,-2.6499,-2.6725,-2.6801,-5.5823,-5.5155,-5.4546,-5.3268,-5.1788,-5.1614,-5.0888,-4.9776,-4.9746,-4.9746,-4.9776,-4.9843,-5.0191,-5.0656,-5.1083,-5.1585,-5.2478,-5.2565,-5.2623,-5.2507,-5.1817,-5.1091,-5.0452,-4.9988,-4.9698,-4.9698,-4.9746,-4.9746,-4.9746,-4.9746,-4.9746,-4.9746,-4.9746,-4.9746,-4.9746,-4.9746,-4.9746,-4.9717,-4.9524,-4.9465,-4.9465,-4.9262,-4.8914,-4.8391,-4.7358,-4.6766,-4.6272,-4.5169,-4.4269,-4.3631,-4.2789,-4.215,-4.2092,-4.2092,-4.2092,-4.2179,-4.2557,-4.2789,-4.2789,-4.2702,-4.276,-4.2615,-4.2121,-4.1599,-4.0931,-4.0234,-3.9625,-3.9015,-3.8522,-3.8231,-3.8202,-3.8202,-3.8014,-3.7529,-3.6464,-3.5507,-3.5102,-3.3995,-3.3197,-3.3154,-3.3154,-3.3111,-3.3154,-3.3197,-3.3326,-3.3411,-3.3454,-3.3411,-3.3454,-3.3513,-3.2701,-3.1685,-3.1311,-3.1009,-3.0256,-2.9779,-2.9779,-2.9779,-2.9377,-2.9088,-2.9126,-2.89,-2.8298,-2.7821,-2.7469,-2.7304,-2.7153,-2.6776,-2.665,-2.6575,-2.6575,-2.66,-2.6725,-2.6901,-2.6927,-5.62,-5.5794,-5.4894,-5.3733,-5.2514,-5.1875,-5.1062,-5.0191,-4.9785,-4.9746,-4.9746,-4.9746,-4.9921,-5.022,-5.0589,-5.117,-5.1701,-5.2339,-5.2746,-5.2804,-5.2368,-5.173,-5.1091,-5.0452,-5.0017,-4.9805,-4.9746,-4.9746,-4.9746,-4.9746,-4.9746,-4.9746,-4.9746,-4.9746,-4.9746,-4.9746,-4.9921,-5.0095,-4.9863,-4.9863,-5.0075,-4.9863,-4.9223,-4.8333,-4.7346,-4.6708,-4.6272,-4.543,-4.4792,-4.4182,-4.3224,-4.2382,-4.215,-4.2092,-4.2092,-4.2179,-4.2644,-4.2789,-4.2673,-4.2818,-4.2847,-4.2615,-4.2266,-4.1773,-4.1163,-4.0466,-3.9857,-3.9218,-3.8638,-3.8202,-3.8202,-3.8202,-3.8089,-3.7453,-3.6425,-3.5507,-3.4924,-3.3894,-3.3326,-3.3581,-3.3793,-3.3725,-3.3683,-3.3496,-3.3283,-3.3368,-3.3852,-3.381,-3.3454,-3.3437,-3.281,-3.2035,-3.1593,-3.1009,-3.0181,-2.9779,-2.9779,-2.9754,-2.9628,-2.9528,-2.9528,-2.9252,-2.8875,-2.8448,-2.8072,-2.7795,-2.7595,-2.7203,-2.7002,-2.7228,-2.7218,-2.7027,-2.7002,-2.7329,-2.7128,-5.6432,-5.6171,-5.5097,-5.4168,-5.3239,-5.2107,-5.1236,-5.0598,-5.0008,-4.9746,-4.9746,-4.9746,-4.9776,-4.9814,-5.0249,-5.0589,-5.1054,-5.1817,-5.2572,-5.3007,-5.2484,-5.1962,-5.1439,-5.0859,-5.0299,-4.9805,-4.9746,-4.9746,-4.9746,-4.9746,-4.9746,-4.9746,-4.9746,-4.9746,-4.9746,-4.9892,-5.0153,-5.0502,-5.0307,-5.022,-5.0423,-5.0037,-4.9088,-4.7956,-4.7201,-4.665,-4.6185,-4.5547,-4.5024,-4.485,-4.3863,-4.2992,-4.2382,-4.2121,-4.2092,-4.2121,-4.2789,-4.305,-4.2934,-4.305,-4.3166,-4.244,-4.2295,-4.1947,-4.1337,-4.0583,-3.9944,-3.9334,-3.8754,-3.8202,-3.8202,-3.8202,-3.7834,-3.7222,-3.6306,-3.5346,-3.462,-3.3768,-3.3496,-3.381,-3.3793,-3.3641,-3.381,-3.3751,-3.3539,-3.3411,-3.3894,-3.4105,-3.3683,-3.3301,-3.2777,-3.2355,-3.1896,-3.126,-3.0407,-2.9829,-2.9804,-2.9804,-2.9754,-2.9754,-2.9779,-2.9578,-2.9252,-2.9051,-2.8699,-2.8423,-2.8097,-2.772,-2.7695,-2.7971,-2.7645,-2.7178,-2.7304,-2.7695,-2.7429,-5.6549,-5.5562,-5.5358,-5.4313,-5.2746,-5.1933,-5.1265,-5.0676,-4.9959,-4.9746,-4.9746,-4.9746,-4.9746,-4.9776,-4.9805,-5.0182,-5.0772,-5.1468,-5.2107,-5.2543,-5.2136,-5.1701,-5.1439,-5.0946,-5.0357,-4.9892,-4.9776,-4.9756,-4.9805,-4.9746,-4.9863,-4.9776,-4.9746,-4.9746,-4.9843,-5.0191,-5.0511,-5.083,-5.0946,-5.1004,-5.0685,-4.9872,-4.8943,-4.7753,-4.7056,-4.6737,-4.6563,-4.604,-4.5459,-4.4937,-4.4676,-4.3921,-4.3108,-4.2498,-4.2237,-4.2382,-4.3166,-4.3602,-4.3573,-4.4095,-4.4182,-4.3747,-4.3108,-4.2528,-4.1802,-4.0844,-4.0147,-3.9654,-3.8928,-3.826,-3.8202,-3.8289,-3.8165,-3.7606,-3.6582,-3.5588,-3.5128,-3.4204,-3.3326,-3.3666,-3.3556,-3.3513,-3.3768,-3.3878,-3.3581,-3.3326,-3.3454,-3.3624,-3.3411,-3.3139,-3.2869,-3.25,-3.2164,-3.1461,-3.0708,-3.0156,-2.9854,-2.988,-2.9854,-2.9754,-2.9779,-2.9779,-2.9603,-2.9377,-2.9176,-2.89,-2.8574,-2.8273,-2.8047,-2.8021,-2.762,-2.7228,-2.7494,-2.7821,-2.7846,-5.6287,-5.5387,-5.5097,-5.4226,-5.3007,-5.202,-5.1265,-5.0676,-4.9988,-4.9746,-4.9746,-4.9746,-4.9746,-4.9746,-4.9746,-5.0046,-5.0627,-5.0946,-5.1497,-5.1875,-5.1759,-5.1381,-5.1207,-5.0772,-5.0307,-5.0008,-4.9988,-5.0162,-5.0191,-5.027,-5.024,-5.0104,-4.9901,-4.9746,-4.9892,-5.0307,-5.083,-5.1149,-5.1439,-5.1468,-5.0946,-4.9698,-4.8246,-4.7404,-4.6766,-4.6534,-4.6679,-4.6214,-4.5924,-4.5779,-4.5256,-4.4618,-4.4008,-4.3427,-4.2905,-4.2818,-4.3485,-4.4008,-4.4095,-4.4501,-4.4414,-4.3544,-4.3166,-4.2731,-4.2063,-4.1221,-4.0379,-3.9741,-3.9654,-3.887,-3.8318,-3.8492,-3.8332,-3.7471,-3.6385,-3.5789,-3.5386,-3.4428,-3.3953,-3.3725,-3.3937,-3.4021,-3.3937,-3.3852,-3.3581,-3.3326,-3.3154,-3.3136,-3.3136,-3.3036,-3.291,-3.2558,-3.2256,-3.1795,-3.1206,-3.0767,-3.017,-3.008,-2.998,-2.9905,-2.9779,-2.9779,-2.9779,-2.9679,-2.9478,-2.9277,-2.9176,-2.8925,-2.8524,-2.8172,-2.8122,-2.8047,-2.7896,-2.7896,-2.8021,-5.5736,-5.4981,-5.4517,-5.3849,-5.3007,-5.1904,-5.1149,-5.0598,-5.0008,-4.9746,-4.9746,-4.9746,-4.9746,-4.9746,-4.9776,-5.0008,-5.0531,-5.0531,-5.083,-5.1323,-5.1381,-5.1091,-5.0801,-5.0647,-5.0386,-4.9872,-5.0307,-5.0656,-5.0627,-5.0772,-5.0801,-5.054,-5.0124,-4.9805,-4.9892,-5.0336,-5.0975,-5.1439,-5.1614,-5.1556,-5.0569,-4.9001,-4.7375,-4.6708,-4.6156,-4.6156,-4.6446,-4.6359,-4.6359,-4.633,-4.5924,-4.5256,-4.5024,-4.4501,-4.395,-4.3573,-4.3921,-4.4095,-4.4327,-4.4792,-4.4734,-4.3805,-4.3485,-4.3021,-4.2266,-4.1541,-4.067,-3.9886,-3.9538,-3.945,-3.8696,-3.8754,-3.8371,-3.7546,-3.661,-3.5869,-3.5749,-3.5251,-3.4579,-3.4454,-3.4538,-3.4454,-3.4314,-3.3793,-3.3454,-3.3624,-3.3454,-3.3136,-3.3136,-3.3136,-3.296,-3.2643,-3.229,-3.2044,-3.1721,-3.1512,-3.0922,-3.0407,-3.0256,-3.008,-2.993,-2.9779,-2.9779,-2.9779,-2.9754,-2.9578,-2.9553,-2.9453,-2.9026,-2.88,-2.89,-2.8674,-2.8197,-2.8273,-2.8524,-5.4836,-5.3733,-5.3646,-5.2949,-5.1846,-5.112,-5.0772,-5.0618,-4.9979,-4.9746,-4.9746,-4.9746,-4.9746,-4.9746,-4.9746,-4.9776,-4.9863,-4.9979,-5.022,-5.0714,-5.0772,-5.0714,-5.0656,-5.0656,-5.0299,-4.9872,-5.0415,-5.0676,-5.083,-5.1236,-5.1178,-5.0822,-5.0618,-5.0299,-4.9805,-5.0336,-5.0975,-5.1497,-5.1643,-5.0888,-4.9407,-4.8333,-4.7288,-4.6359,-4.5953,-4.604,-4.633,-4.6505,-4.672,-4.6836,-4.672,-4.6301,-4.5779,-4.5184,-4.4821,-4.4705,-4.4763,-4.4792,-4.4908,-4.5285,-4.5343,-4.4589,-4.4501,-4.3979,-4.3021,-4.1947,-4.1192,-4.0931,-4.0089,-3.9392,-3.8986,-3.8638,-3.8301,-3.7815,-3.7078,-3.6766,-3.661,-3.6029,-3.5372,-3.5047,-3.5128,-3.4827,-3.4579,-3.3937,-3.3411,-3.3624,-3.3641,-3.3326,-3.3136,-3.3136,-3.3368,-3.314,-3.3037,-3.2813,-3.2516,-3.2305,-3.169,-3.0964,-3.0532,-3.0306,-3.0105,-2.993,-2.9779,-2.9779,-2.9779,-2.9779,-2.9704,-2.9578,-2.9377,-2.9227,-2.9063,-2.8699,-2.8222,-2.8524,-2.9001,-5.3471,-5.2949,-5.2601,-5.1933,-5.1091,-5.0772,-5.0502,-5.0153,-4.9814,-4.9746,-4.9746,-4.9746,-4.9746,-4.9746,-4.9746,-4.9746,-4.9746,-4.9746,-4.9863,-5.0075,-5.0182,-5.0182,-5.0153,-5.0153,-4.9921,-5.0008,-5.0336,-5.0946,-5.1178,-5.1381,-5.141,-5.1207,-5.083,-5.0357,-4.9834,-5.0336,-5.0975,-5.1527,-5.1788,-5.1149,-4.964,-4.8595,-4.755,-4.6011,-4.5924,-4.6243,-4.6737,-4.6766,-4.7242,-4.7532,-4.7637,-4.7259,-4.6998,-4.6724,-4.6417,-4.5982,-4.6011,-4.5837,-4.5576,-4.5779,-4.5518,-4.5111,-4.4879,-4.4443,-4.3573,-4.276,-4.1976,-4.1657,-4.0844,-4.006,-3.9421,-3.8957,-3.858,-3.8149,-3.7691,-3.7615,-3.7384,-3.6766,-3.6255,-3.5949,-3.5588,-3.5251,-3.4868,-3.4314,-3.3709,-3.3496,-3.3539,-3.324,-3.3136,-3.3136,-3.3496,-3.3885,-3.3856,-3.3825,-3.355,-3.329,-3.2557,-3.1797,-3.0809,-3.0583,-3.0331,-3.0156,-2.998,-2.9829,-2.9804,-2.9804,-2.9779,-2.9704,-2.9528,-2.9377,-2.9164,-2.8925,-2.8725,-2.9026,-2.9402,-5.2158,-5.21,-5.1585,-5.1004,-5.0473,-5.0473,-5.0182,-4.9776,-4.9746,-4.9746,-4.9746,-4.9746,-4.9746,-4.9746,-4.9746,-4.9746,-4.9746,-4.9746,-4.9746,-4.9746,-4.9746,-4.9776,-4.9805,-4.9776,-4.9776,-4.9746,-5.0075,-5.0656,-5.1178,-5.1527,-5.1614,-5.1614,-5.1207,-5.0481,-5.0066,-5.0182,-5.0656,-5.1294,-5.1904,-5.1352,-5.0104,-4.9069,-4.7898,-4.6795,-4.6214,-4.6388,-4.7288,-4.7346,-4.7695,-4.8304,-4.8246,-4.7985,-4.7927,-4.7637,-4.7201,-4.6795,-4.6575,-4.6505,-4.6214,-4.6127,-4.5837,-4.5576,-4.5372,-4.5343,-4.485,-4.4008,-4.3224,-4.2702,-4.1773,-4.0815,-3.9973,-3.9596,-3.9247,-3.8832,-3.8312,-3.8294,-3.8198,-3.7699,-3.7091,-3.6492,-3.6096,-3.5575,-3.5169,-3.4662,-3.4147,-3.3556,-3.3326,-3.3154,-3.3111,-3.3154,-3.3368,-3.3852,-3.4526,-3.4365,-3.3788,-3.3498,-3.3002,-3.2504,-3.1508,-3.0959,-3.0783,-3.0457,-3.0206,-3.0055,-2.9905,-2.9804,-2.9779,-2.9729,-2.9704,-2.9578,-2.9478,-2.9428,-2.9428,-2.9679,-2.988,-5.0851,-5.0801,-5.0743,-5.0365,-4.9834,-4.9805,-4.9776,-4.9746,-4.9746,-4.9746,-4.9746,-4.9746,-4.9746,-4.9746,-4.9746,-4.9746,-4.9746,-4.9746,-4.9746,-4.9746,-4.9746,-4.9746,-4.9746,-4.9746,-4.9746,-4.9746,-4.9872,-5.022,-5.0743,-5.1294,-5.1497,-5.1585,-5.1527,-5.0743,-5.0162,-5.0046,-5.0336,-5.0946,-5.1585,-5.1497,-5.0452,-4.9524,-4.8449,-4.7579,-4.6621,-4.6214,-4.6865,-4.7433,-4.8043,-4.8798,-4.874,-4.8653,-4.8595,-4.8304,-4.7811,-4.73,-4.7097,-4.7027,-4.6824,-4.6563,-4.6604,-4.6604,-4.6621,-4.6505,-4.6272,-4.5343,-4.456,-4.3805,-4.276,-4.1831,-4.1018,-4.0466,-4.0147,-3.9778,-3.9419,-3.9256,-3.917,-3.8842,-3.8178,-3.7247,-3.6452,-3.5736,-3.4991,-3.4397,-3.4063,-3.3513,-3.3283,-3.3136,-3.3197,-3.324,-3.3283,-3.3768,-3.4815,-3.4733,-3.37,-3.342,-3.3591,-3.2986,-3.198,-3.1612,-3.1386,-3.0984,-3.0382,-3.0306,-3.0181,-2.998,-2.9829,-2.9905,-2.993,-2.9829,-2.9729,-2.9679,-2.9754,-2.9955,-3.0231,-5.0473,-5.0075,-5.0075,-4.9901,-4.9746,-4.9746,-4.9746,-4.9746,-4.9746,-4.9746,-4.9746,-4.9746,-4.9746,-4.9746,-4.9746,-4.9746,-4.9746,-4.9746,-4.9746,-4.9746,-4.9746,-4.9746,-4.9746,-4.9746,-4.9746,-4.9746,-4.9746,-5.0066,-5.0685,-5.0975,-5.1004,-5.1207,-5.173,-5.1323,-5.0685,-5.0162,-5.0394,-5.0801,-5.1497,-5.1751,-5.0743,-5.0278,-4.9436,-4.8333,-4.7608,-4.7433,-4.7956,-4.8217,-4.8711,-4.9117,-4.9262,-4.932,-4.932,-4.9001,-4.8595,-4.8043,-4.7851,-4.7753,-4.7317,-4.6882,-4.6417,-4.6836,-4.7143,-4.7433,-4.7375,-4.6272,-4.5576,-4.4734,-4.366,-4.2673,-4.2295,-4.1715,-4.125,-4.0873,-4.0612,-4.0408,-3.9992,-3.9663,-3.8773,-3.7614,-3.6488,-3.5534,-3.4703,-3.3894,-3.3683,-3.3454,-3.3283,-3.3111,-3.3197,-3.3368,-3.3411,-3.3725,-3.48,-3.4924,-3.3937,-3.4053,-3.435,-3.3409,-3.2441,-3.219,-3.1863,-3.1035,-3.0557,-3.0507,-3.0432,-3.0206,-3.0105,-3.0206,-3.0105,-2.988,-2.988,-2.993,-3.0055,-3.0231,-3.0608,-5.0104,-4.9746,-4.9746,-4.9746,-4.9746,-4.9746,-4.9746,-4.9746,-4.9746,-4.9746,-4.9746,-4.9746,-4.9746,-4.9746,-4.9746,-4.9746,-4.9746,-4.9746,-4.9746,-4.9746,-4.9746,-4.9746,-4.9746,-4.9746,-4.9746,-4.9746,-4.9746,-5.0037,-5.0307,-5.0569,-5.0763,-5.1062,-5.1614,-5.1323,-5.0569,-5.0394,-5.0531,-5.0938,-5.1345,-5.2042,-5.1228,-5.0822,-5.0598,-4.9436,-4.8653,-4.8362,-4.8653,-4.8827,-4.8972,-4.9465,-4.9814,-4.9959,-4.9988,-4.9901,-4.9611,-4.9233,-4.8827,-4.8595,-4.8159,-4.7521,-4.7056,-4.7869,-4.8159,-4.8246,-4.7869,-4.7201,-4.6766,-4.5692,-4.456,-4.3718,-4.3485,-4.2847,-4.2586,-4.2295,-4.186,-4.157,-4.0729,-4.0187,-3.907,-3.7929,-3.6673,-3.5325,-3.4826,-3.4101,-3.3623,-3.3401,-3.324,-3.3136,-3.3154,-3.3326,-3.3581,-3.4021,-3.48,-3.462,-3.4189,-3.4553,-3.4665,-3.3496,-3.2742,-3.2641,-3.2215,-3.1411,-3.106,-3.1235,-3.1035,-3.0532,-3.0306,-3.0231,-3.008,-2.9854,-3.0005,-3.0256,-3.0407,-3.0633,-3.1085,-4.9776,-4.9746,-4.9746,-4.9746,-4.9746,-4.9746,-4.9746,-4.9746,-4.9746,-4.9746,-4.9746,-4.9746,-4.9746,-4.9746,-4.9746,-4.9746,-4.9746,-4.9746,-4.9746,-4.9746,-4.9746,-4.9746,-4.9746,-4.9746,-4.9746,-4.9746,-4.9746,-4.9776,-4.9814,-5.0299,-5.056,-5.0685,-5.1033,-5.1033,-4.9814,-4.9776,-5.0095,-5.0647,-5.0793,-5.1432,-5.1839,-5.1236,-5.1004,-5.0859,-4.9843,-4.9436,-4.9669,-4.9524,-4.9611,-4.9814,-5.0394,-5.0569,-5.0511,-5.0627,-5.0365,-4.9901,-4.9291,-4.9204,-4.9465,-4.8943,-4.8972,-4.9175,-4.9233,-4.9291,-4.8885,-4.8449,-4.7782,-4.6534,-4.5721,-4.5053,-4.4531,-4.3979,-4.3892,-4.3689,-4.3253,-4.2607,-4.1804,-4.0539,-3.9417,-3.7965,-3.6419,-3.5155,-3.4856,-3.4392,-3.3723,-3.3399,-3.3187,-3.3136,-3.3154,-3.3496,-3.3768,-3.4204,-3.4841,-3.4883,-3.4718,-3.5047,-3.4856,-3.3742,-3.3061,-3.2867,-3.2692,-3.2139,-3.1938,-3.1989,-3.1587,-3.106,-3.0608,-3.0206,-3.0206,-3.0281,-3.0457,-3.0658,-3.0783,-3.106,-3.1562,-4.9746,-4.9746,-4.9746,-4.9746,-4.9746,-4.9746,-4.9746,-4.9746,-4.9746,-4.9746,-4.9746,-4.9746,-4.9746,-4.9746,-4.9746,-4.9746,-4.9746,-4.9746,-4.9746,-4.9746,-4.9746,-4.9746,-4.9746,-4.9746,-4.9746,-4.9746,-4.9746,-4.9746,-4.9776,-5.0066,-5.0017,-5.0133,-5.0365,-5.0386,-5.024,-5.0037,-4.9892,-5.0095,-5.0452,-5.1062,-5.1759,-5.1527,-5.1556,-5.2107,-5.1062,-5.0714,-5.0859,-5.054,-5.0423,-5.0365,-5.0888,-5.1062,-5.0917,-5.0975,-5.1178,-5.0975,-5.0627,-5.0511,-5.0598,-5.0307,-5.0249,-5.0162,-5.0104,-5.022,-5.0017,-4.9553,-4.8566,-4.7433,-4.6737,-4.6098,-4.5459,-4.5256,-4.5169,-4.5082,-4.4646,-4.3845,-4.2851,-4.1227,-3.9802,-3.8022,-3.6376,-3.4882,-3.4134,-3.4193,-3.3738,-3.3536,-3.3384,-3.3265,-3.324,-3.3836,-3.423,-3.4454,-3.4883,-3.502,-3.5224,-3.5427,-3.5169,-3.4163,-3.3454,-3.3061,-3.2817,-3.2591,-3.239,-3.2215,-3.1913,-3.1562,-3.1085,-3.0708,-3.0733,-3.0809,-3.1009,-3.121,-3.1361,-3.1687,-3.2114,-4.9746,-4.9746,-4.9746,-4.9746,-4.9746,-4.9746,-4.9746,-4.9746,-4.9746,-4.9746,-4.9746,-4.9746,-4.9746,-4.9746,-4.9746,-4.9746,-4.9746,-4.9746,-4.9746,-4.9746,-4.9746,-4.9746,-4.9746,-4.9746,-4.9746,-4.9746,-4.9746,-4.9746,-4.9746,-4.9746,-4.9776,-4.9756,-4.9746,-4.993,-5.0066,-4.9892,-4.9746,-4.9892,-5.0162,-5.0569,-5.1149,-5.1468,-5.1904,-5.2252,-5.2107,-5.1904,-5.1875,-5.1701,-5.1381,-5.1091,-5.1149,-5.141,-5.1265,-5.1352,-5.173,-5.1846,-5.1904,-5.1585,-5.1294,-5.1556,-5.1381,-5.1004,-5.1004,-5.0975,-5.0888,-5.0365,-4.9582,-4.8595,-4.7637,-4.6853,-4.6272,-4.6156,-4.5718,-4.5573,-4.4834,-4.3998,-4.3121,-4.1474,-3.9595,-3.7844,-3.6192,-3.4729,-3.3611,-3.3712,-3.3676,-3.3629,-3.3581,-3.3487,-3.3454,-3.3979,-3.4522,-3.4744,-3.5169,-3.5548,-3.5669,-3.5709,-3.5291,-3.4522,-3.3894,-3.3326,-3.3061,-3.2817,-3.2641,-3.2441,-3.2164,-3.1888,-3.1512,-3.1286,-3.1361,-3.1461,-3.1612,-3.1788,-3.1938,-3.2164,-3.2416,-4.9746,-4.9746,-4.9746,-4.9746,-4.9746,-4.9746,-4.9746,-4.9746,-4.9746,-4.9746,-4.9746,-4.9746,-4.9746,-4.9746,-4.9746,-4.9746,-4.9746,-4.9746,-4.9746,-4.9746,-4.9746,-4.9746,-4.9746,-4.9746,-4.9746,-4.9746,-4.9746,-4.9746,-4.9746,-4.9746,-4.9746,-4.9746,-4.9746,-4.9785,-4.9834,-4.9805,-4.9746,-4.9756,-4.9814,-5.0278,-5.0801,-5.1265,-5.1817,-5.2252,-5.2507,-5.2484,-5.2397,-5.2194,-5.1614,-5.1352,-5.1381,-5.1585,-5.1672,-5.1643,-5.2049,-5.2397,-5.2601,-5.2223,-5.1875,-5.2223,-5.2339,-5.1991,-5.1817,-5.173,-5.1468,-5.1033,-5.0162,-4.9146,-4.8043,-4.7346,-4.6766,-4.6136,-4.5582,-4.4989,-4.4259,-4.3546,-4.2888,-4.1295,-3.9362,-3.7598,-3.5902,-3.4583,-3.3809,-3.3683,-3.3619,-3.3862,-3.3879,-3.3904,-3.3894,-3.4121,-3.462,-3.4883,-3.5413,-3.6148,-3.6267,-3.6215,-3.5615,-3.4909,-3.4147,-3.3581,-3.3343,-3.3061,-3.2893,-3.2692,-3.2466,-3.2215,-3.2039,-3.2014,-3.2064,-3.2139,-3.2064,-3.2089,-3.2139,-3.2114,-3.224,-4.9746,-4.9746,-4.9746,-4.9746,-4.9746,-4.9746,-4.9746,-4.9746,-4.9746,-4.9746,-4.9746,-4.9746,-4.9746,-4.9746,-4.9746,-4.9746,-4.9746,-4.9746,-4.9746,-4.9746,-4.9746,-4.9746,-4.9746,-4.9746,-4.9746,-4.9746,-4.9746,-4.9746,-4.9746,-4.9746,-4.9746,-4.9746,-4.9746,-4.9746,-4.9746,-4.9746,-4.9746,-4.9746,-4.9746,-5.0046,-5.0452,-5.0888,-5.1585,-5.2187,-5.2507,-5.2601,-5.2775,-5.2862,-5.2397,-5.2078,-5.2136,-5.2281,-5.231,-5.231,-5.2572,-5.3123,-5.3181,-5.2978,-5.2484,-5.2507,-5.2594,-5.2536,-5.2252,-5.2339,-5.2136,-5.1527,-5.0598,-4.9349,-4.8014,-4.7085,-4.6015,-4.5286,-4.496,-4.4447,-4.3603,-4.2642,-4.2025,-4.1086,-3.9123,-3.7343,-3.5651,-3.4544,-3.3822,-3.3438,-3.346,-3.393,-3.4134,-3.4115,-3.4371,-3.4594,-3.48,-3.5102,-3.5829,-3.6582,-3.6727,-3.6649,-3.6016,-3.5291,-3.4496,-3.37,-3.3199,-3.2968,-3.3086,-3.2986,-3.2692,-3.2692,-3.2742,-3.2667,-3.2466,-3.2365,-3.229,-3.2315,-3.2315,-3.229,-3.224,-4.9436,-4.9669,-4.9746,-4.9746,-4.9746,-4.9746,-4.9601,-4.9378,-4.9601,-4.9746,-4.9746,-4.9746,-4.9746,-4.9746,-4.9746,-4.9746,-4.9746,-4.9746,-4.9746,-4.9746,-4.9746,-4.9746,-4.9746,-4.9746,-4.9746,-4.9746,-4.9746,-4.9746,-4.9746,-4.9746,-4.9746,-4.9746,-4.9746,-4.9746,-4.9746,-4.9746,-4.9746,-4.9746,-4.9805,-4.9979,-5.024,-5.056,-5.1207,-5.1701,-5.202,-5.2455,-5.2775,-5.2949,-5.2688,-5.2078,-5.1962,-5.2194,-5.2339,-5.2572,-5.2978,-5.3442,-5.3442,-5.3094,-5.2601,-5.2223,-5.2223,-5.2107,-5.1962,-5.1933,-5.1962,-5.1643,-5.0394,-4.904,-4.7677,-4.6413,-4.5257,-4.4281,-4.4146,-4.3975,-4.2854,-4.1668,-4.1085,-4.0526,-3.8973,-3.7146,-3.5755,-3.455,-3.3796,-3.3413,-3.3179,-3.3462,-3.3658,-3.3649,-3.4272,-3.5047,-3.5224,-3.5427,-3.6267,-3.7078,-3.7039,-3.6727,-3.5976,-3.521,-3.4579,-3.3801,-3.3148,-3.2767,-3.2717,-3.2817,-3.2935,-3.296,-3.2986,-3.2842,-3.2692,-3.2591,-3.2516,-3.2491,-3.2466,-3.239,-3.2365,-4.8972,-4.9494,-4.963,-4.9553,-4.9582,-4.9553,-4.9262,-4.8779,-4.932,-4.9582,-4.9582,-4.9717,-4.9746,-4.9746,-4.9746,-4.9746,-4.9746,-4.9746,-4.9746,-4.9746,-4.9746,-4.9746,-4.9746,-4.9746,-4.9746,-4.9746,-4.9746,-4.9746,-4.9746,-4.9746,-4.9746,-4.9746,-4.9746,-4.9746,-4.9746,-4.9746,-4.9746,-4.9746,-4.9746,-4.9834,-4.9921,-5.027,-5.0656,-5.083,-5.1236,-5.1643,-5.1817,-5.1875,-5.1904,-5.1323,-5.1062,-5.141,-5.202,-5.2775,-5.3297,-5.3471,-5.35,-5.3007,-5.2426,-5.1846,-5.1345,-5.1085,-5.0817,-5.0349,-5.0118,-5.0608,-4.9494,-4.823,-4.6818,-4.5321,-4.4044,-4.2896,-4.2387,-4.2223,-4.1484,-4.0813,-4.0442,-3.9638,-3.8178,-3.66,-3.5672,-3.4539,-3.3872,-3.3445,-3.3287,-3.3298,-3.3391,-3.3417,-3.3964,-3.511,-3.5467,-3.5602,-3.6108,-3.6699,-3.6805,-3.6413,-3.5696,-3.5032,-3.4397,-3.3775,-3.3038,-3.2616,-3.234,-3.2616,-3.2968,-3.3061,-3.3061,-3.2943,-3.2893,-3.2867,-3.2792,-3.2692,-3.2616,-3.2566,-3.2541,-4.8101,-4.8275,-4.8769,-4.8943,-4.8972,-4.8943,-4.8885,-4.874,-4.8856,-4.8943,-4.903,-4.9407,-4.9688,-4.9611,-4.9717,-4.9746,-4.9746,-4.9746,-4.9746,-4.9746,-4.9746,-4.9746,-4.9746,-4.9746,-4.9746,-4.9746,-4.9746,-4.9746,-4.9746,-4.9746,-4.9746,-4.9746,-4.9746,-4.9746,-4.9746,-4.9746,-4.9746,-4.9746,-4.9746,-4.9746,-4.9805,-4.9892,-5.0153,-5.0502,-5.0888,-5.1149,-5.1236,-5.1178,-5.1062,-5.0714,-5.0249,-5.0685,-5.1534,-5.2804,-5.3413,-5.35,-5.3442,-5.2862,-5.1969,-5.1085,-5.0227,-4.9123,-4.8446,-4.7718,-4.7673,-4.85,-4.8319,-4.7013,-4.5749,-4.4248,-4.2795,-4.165,-4.0704,-4.0445,-4.0147,-3.9912,-3.9675,-3.8584,-3.7286,-3.6434,-3.5552,-3.4785,-3.4117,-3.3696,-3.347,-3.3539,-3.369,-3.3852,-3.4038,-3.4777,-3.5325,-3.5506,-3.5615,-3.5989,-3.6215,-3.5976,-3.5155,-3.4538,-3.3894,-3.3352,-3.286,-3.2641,-3.2466,-3.2767,-3.3043,-3.3111,-3.3136,-3.3111,-3.3061,-3.3061,-3.3036,-3.2893,-3.2893,-3.2867,-3.2842,-4.7521,-4.7811,-4.8159,-4.8304,-4.8304,-4.8304,-4.8159,-4.7909,-4.8188,-4.813,-4.8083,-4.903,-4.9524,-4.9407,-4.9524,-4.9746,-4.9746,-4.9746,-4.9746,-4.9746,-4.9746,-4.9746,-4.9746,-4.9746,-4.9746,-4.9746,-4.9746,-4.9746,-4.9746,-4.9746,-4.9746,-4.9746,-4.9746,-4.9746,-4.9746,-4.9746,-4.9746,-4.9746,-4.9746,-4.9746,-4.9746,-4.9805,-4.9863,-5.024,-5.0307,-5.0511,-5.0481,-5.0365,-5.0133,-5.0017,-4.9727,-5.022,-5.1207,-5.2339,-5.3123,-5.3326,-5.3181,-5.2659,-5.1483,-5.0162,-4.8816,-4.7504,-4.5838,-4.5007,-4.4645,-4.5287,-4.4808,-4.3709,-4.4047,-4.2812,-4.1335,-4.0076,-3.9483,-3.9142,-3.8481,-3.799,-3.8105,-3.7852,-3.7053,-3.6543,-3.5793,-3.5248,-3.47,-3.4399,-3.4123,-3.3771,-3.3947,-3.4022,-3.4262,-3.4594,-3.5061,-3.5307,-3.5301,-3.5196,-3.521,-3.4991,-3.4454,-3.3894,-3.3454,-3.3055,-3.2667,-3.2641,-3.2667,-3.2792,-3.2943,-3.3111,-3.3136,-3.3136,-3.3136,-3.3111,-3.3111,-3.3086,-3.3136,-3.3136,-3.3061,-4.7027,-4.7521,-4.7637,-4.7666,-4.7666,-4.7666,-4.7375,-4.6981,-4.7521,-4.7433,-4.7288,-4.8914,-4.9175,-4.9117,-4.9349,-4.9553,-4.9746,-4.9746,-4.9746,-4.9746,-4.9746,-4.9746,-4.9746,-4.9746,-4.9746,-4.9746,-4.9746,-4.9746,-4.9746,-4.9746,-4.9746,-4.9746,-4.9746,-4.9746,-4.9746,-4.9746,-4.9746,-4.9746,-4.9746,-4.9746,-4.9746,-4.9746,-4.9776,-4.9746,-4.9582,-4.9582,-4.964,-4.932,-4.9059,-4.903,-4.9088,-4.9698,-5.0511,-5.1585,-5.2368,-5.2746,-5.2659,-5.1962,-5.0817,-4.8956,-4.7332,-4.558,-4.3678,-4.2602,-4.2253,-4.1668,-4.1181,-4.1194,-4.1544,-4.1204,-3.9726,-3.9024,-3.8512,-3.805,-3.7248,-3.6474,-3.6752,-3.698,-3.6578,-3.6225,-3.5902,-3.5382,-3.5232,-3.4931,-3.46,-3.4248,-3.4173,-3.4198,-3.4337,-3.466,-3.5113,-3.4994,-3.4842,-3.4659,-3.4533,-3.4189,-3.3852,-3.3624,-3.3215,-3.2827,-3.2591,-3.2717,-3.2742,-3.2616,-3.2767,-3.3036,-3.3136,-3.3136,-3.3136,-3.3136,-3.3136,-3.3136,-3.3136,-3.3136,-3.3136,-4.6127,-4.6272,-4.6795,-4.6998,-4.7027,-4.6981,-4.6894,-4.6894,-4.7462,-4.7404,-4.7375,-4.8624,-4.932,-4.8692,-4.9378,-4.9717,-4.9746,-4.9746,-4.9746,-4.9746,-4.9746,-4.9746,-4.9746,-4.9746,-4.9746,-4.9746,-4.9746,-4.9746,-4.9746,-4.9746,-4.9746,-4.9746,-4.9746,-4.9746,-4.9746,-4.9746,-4.9746,-4.9746,-4.9746,-4.9746,-4.9746,-4.9746,-4.9746,-4.9494,-4.9175,-4.9349,-4.9175,-4.8101,-4.7869,-4.7869,-4.8206,-4.8827,-4.964,-5.054,-5.1265,-5.173,-5.1672,-5.0888,-4.9531,-4.7921,-4.628,-4.3622,-4.1889,-4.0521,-3.9926,-3.8865,-3.8563,-3.846,-3.8715,-3.8833,-3.7958,-3.8167,-3.7913,-3.7665,-3.7062,-3.6396,-3.613,-3.5851,-3.5466,-3.5378,-3.5353,-3.5257,-3.5408,-3.5031,-3.46,-3.4399,-3.4525,-3.4505,-3.463,-3.4906,-3.5111,-3.4882,-3.4546,-3.4408,-3.4334,-3.3709,-3.3368,-3.3154,-3.3111,-3.2893,-3.2842,-3.2943,-3.2918,-3.2792,-3.2842,-3.3086,-3.3136,-3.3136,-3.3136,-3.3136,-3.3136,-3.3136,-3.3136,-3.3136,-3.3136]},{"header":{"parameterUnit":"m.s-1","parameterCategory":1,"la1":31.0,"la2":29.5877,"lo1":-88.7671,"lo2":-86.6584,"dy":0.0162,"dx":0.0185,"nx":115,"ny":88,"refTime":"2023-06-24T12:00:00:Z","depth":0,"parameterNumber":3,"parameterNumberName":"V-component_of_WINDS"},"data":[0.0,0.0,0.0,0.0,0.0,0.0,0.0,0.0,0.0,0.0,0.0,0.0,0.0,0.0,0.0,0.0,0.0,0.0,0.0,0.0,0.0,0.0,0.0,0.0,0.0,0.0,0.0,0.0,0.0,0.0,0.0,0.0,0.0,0.0,0.0,0.0,0.0,0.0,0.0,0.0,0.0,0.0,0.0,0.0,0.0,0.0,0.0,0.0,0.0,0.0,0.0,0.0,0.0,0.0,0.0,0.0,0.0,0.0,0.0,0.0,0.0,0.0,0.0,0.0,0.0,0.0,0.0,0.0,0.0,0.0,0.0,0.0,0.0,0.0,0.0,0.0,0.0,0.0,0.0,0.0,0.0,0.0,0.0,0.0,0.0,0.0,0.0,0.0,0.0,0.0,0.0,0.0,0.0,0.0,0.0,0.0,0.0,0.0,0.0,0.0,0.0,0.0,0.0,0.0,0.0,0.0,0.0,0.0,0.0,0.0,0.0,0.0,0.0,0.0,0.0,0.0,0.0,0.0,0.0,0.0,0.0,0.0,0.0,0.0,0.0,0.0,0.0,0.0,0.0,0.0,0.0,0.0,0.0,0.0,0.0,0.0,0.0,0.0,0.0,0.0,0.0,0.0,0.0,0.0,0.0,0.0,0.0,0.0,0.0,0.0,0.0,0.0,0.0,0.0,0.0,0.0,0.0,0.0,0.0,0.0,0.0,0.0,0.0,0.0,0.0,0.0,0.0,0.0,0.0,0.0,0.0,0.0,0.0,0.0,0.0,0.0,0.0,0.0,0.0,0.0,0.0,0.0,0.0,0.0,0.0,0.0,0.0,0.0,0.0,0.0,0.0,0.0,0.0,0.0,0.0,0.0,0.0,0.0,0.0,0.0,0.0,0.0,0.0,0.0,0.0,0.0,0.0,0.0,0.0,0.0,0.0,0.0,0.0,0.0,0.0,0.0,0.0,0.0,0.0,0.0,0.0,0.0,0.0,0.0,0.0,0.0,0.0,0.0,0.0,0.0,0.0,0.0,0.0,0.0,0.0,0.0,0.0,0.0,0.0,0.0,0.0,0.0,0.0,0.0,0.0,0.0,0.0,0.0,0.0,0.0,0.0,0.0,0.0,0.0,0.0,0.0,0.0,0.0,0.0,0.0,0.0,0.0,0.0,0.0,0.0,0.0,0.0,0.0,0.0,0.0,0.0,0.0,0.0,0.0,0.0,0.0,0.0,0.0,0.0,0.0,0.0,0.0,0.0,0.0,0.0,0.0,0.0,0.0,0.0,0.0,0.0,0.0,0.0,0.0,0.0,0.0,0.0,0.0,0.0,0.0,0.0,0.0,0.0,0.0,0.0,0.0,0.0,0.0,0.0,0.0,0.0,0.0,0.0,0.0,0.0,0.0,0.0,0.0,0.0,0.0,0.0,0.0,0.0,0.0,0.0,0.0,0.0,0.0,0.0,0.0,0.0,0.0,0.0,0.0,0.0,0.0,0.0,0.0,0.0,0.0,0.0,0.0,0.0,0.0,0.0,0.0,0.0,0.0,0.0,0.0,0.0,0.0,0.0,0.0,0.0,0.0,0.0,0.0,0.0,0.0,0.0,0.0,0.0,0.0,0.0,0.0,0.0,0.0,0.0,0.0,0.0,0.0,0.0,0.0,0.0,0.0,0.0,0.0,0.0,0.0,0.0,0.0,0.0,0.0,0.0,0.0,0.0,0.0,0.0,0.0,0.0,0.0,0.0,0.0,0.0,0.0,0.0,0.0,0.0,0.0,0.0,0.0,0.0,0.0,0.0,0.0,0.0,0.0,0.0,0.0,0.0,0.0,0.0,0.0,0.0,0.0,0.0,0.0,0.0,0.0,0.0,0.0,0.0,0.0,0.0,0.0,0.0,0.0,0.0,0.0,0.0,0.0,0.0,0.0,0.0,0.0,0.0,0.0,0.0,0.0,0.0,0.0,0.0,0.0,0.0,0.0,0.0,0.0,0.0,0.0,0.0,0.0,0.0,0.0,0.0,0.0,0.0,0.0,0.0,0.0,0.0,0.0,0.0,0.0,0.0,0.0,0.0,0.0,0.0,0.0,0.0,0.0,0.0,0.0,0.0,0.0,0.0,0.0,0.0,0.0,0.0,0.0,0.0,0.0,0.0,0.0,0.0,0.0,0.0,0.0,0.0,0.0,0.0,0.0,0.0,0.0,0.0,0.0,0.0,0.0,0.0,0.0,0.0,0.0,0.0,0.0,0.0,0.0,0.0,0.0,0.0,0.0,0.0,0.0,0.0,0.0,0.0,0.0,0.0,0.0,0.0,0.0,0.0,0.0,0.0,0.0,0.0,0.0,0.0,0.0,0.0,0.0,0.0,0.0,0.0,0.0,0.0,0.0,0.0,0.0,0.0,0.0,0.0,0.0,0.0,0.0,0.0,0.0,0.0,0.0,0.0,0.0,0.0,0.0,0.0,0.0,0.0,0.0,0.0,0.0,0.0,0.0,0.0,0.0,0.0,0.0,0.0,0.0,0.0,0.0,0.0,0.0,0.0,0.0,0.0,0.0,0.0,0.0,0.0,0.0,0.0,0.0,0.0,0.0,0.0,0.0,0.0,0.0,0.0,0.0,0.0,0.0,0.0,0.0,0.0,0.0,0.0,0.0,0.0,0.0,0.0,0.0,0.0,0.0,0.0,0.0,0.0,0.0,0.0,0.0,0.0,0.0,0.0,0.0,0.0,0.0,0.0,0.0,0.0,0.0,0.0,0.0,0.0,0.0,0.0,0.0,0.0,0.0,0.0,0.0,0.0,0.0,0.0,0.0,0.0,0.0,0.0,0.0,0.0,0.0,0.0,0.0,0.0,0.0,0.0,0.0,0.0,0.0,0.0,0.0,0.0,0.0,0.0,0.0,0.0,0.0,0.0,0.0,0.0,0.0,0.0,0.0,0.0,0.0,0.0,0.0,0.0,0.0,0.0,0.0,0.0,0.0,0.0,0.0,0.0,0.0,0.0,0.0,0.0,0.0,0.0,0.0,0.0,0.0,0.0,0.0,0.0,0.0,0.0,0.0,0.0,0.0,0.0,0.0,0.0,0.0,0.0,0.0,0.0,0.0,0.0,0.0,0.0,0.0,0.0,0.0,0.0,0.0,0.0,0.0,0.0,0.0,0.0,0.0,0.0,0.0,0.0,0.0,0.0,0.0,0.0,0.0,0.0,0.0,0.0,0.0,0.0,0.0,0.0,0.0,0.0,0.0,0.0,0.0,0.0,0.0,0.0,0.0,0.0,0.0,0.0,0.0,0.0,0.0,0.0,0.0,0.0,0.0,0.0,0.0,0.0,0.0,0.0,0.0,0.0,0.0,0.0,0.0,0.0,0.0,0.0,0.0,0.0,0.0,0.0,0.0,0.0,0.0,0.0,0.0,0.0,0.0,0.0,0.0,0.0,0.0,0.0,0.0,0.0,0.0,0.0,0.0,0.0,0.0,0.0,0.0,0.0,0.0,0.0,0.0,0.0,0.0,0.0,0.0,0.0,0.0,0.0,0.0,0.0,0.0,0.0,0.0,0.0,0.0,0.0,0.0,0.0,0.0,0.0,0.0,0.0,0.0,0.0,0.0,0.0,0.0,0.0,0.0,0.0,0.0,0.0,0.0,0.0,0.0,0.0,0.0,0.0,0.0,0.0,0.0,0.0,0.0,0.0,0.0,0.0,0.0,0.0,0.0,0.0,0.0,0.0,0.0,0.0,0.0,0.0,0.0,0.0,0.0,0.0,0.0,0.0,0.0,0.0,0.0,0.0,0.0,0.0,0.0,0.0,0.0,0.0,0.0,0.0,0.0,0.0,0.0,0.0,0.0,0.0,0.0,0.0,0.0,0.0,0.0,0.0,0.0,0.0,0.0,0.0,0.0,0.0,0.0,0.0,0.0,0.0,0.0,0.0,0.0,0.0,0.0,0.0,0.0,0.0,0.0,0.0,0.0,0.0,0.0,0.0,0.0,0.0,0.0,0.0,0.0,0.0,0.0,0.0,0.0,0.0,0.0,0.0,0.0,0.0,0.0,0.0,0.0,0.0,0.0,0.0,0.0,0.0,0.0,0.0,0.0,0.0,0.0,0.0,0.0,0.0,0.0,0.0,0.0,0.0,0.0,0.0,0.0,0.0,0.0,0.0,0.0,0.0,0.0,0.0,0.0,0.0,0.0,0.0,0.0,0.0,0.0,0.0,0.0,0.0,0.0,0.0,0.0,0.0,0.0,0.0,0.0,0.0,0.0,0.0,0.0,0.0,0.0,-0.3509,0.0,0.0,0.0,0.0,0.0,0.0,0.0,0.0,0.0,0.0,0.0,0.0,0.0,0.0,0.0,0.0,0.0,0.0,0.0,0.0,0.0,0.0,0.0,0.0,0.0,0.0,0.0,0.0,0.0,0.0,0.0,0.0,0.0,0.0,0.0,0.0,0.0,0.0,0.0,0.0,0.0,0.0,0.0,0.0,0.0,0.0,0.0,0.0,0.0,0.0,0.0,0.0,0.0,0.0,0.0,0.0,0.0,0.0,0.0,0.0,0.0,0.0,0.0,0.0,0.0,0.0,0.0,0.0,0.0,0.0,0.0,0.0,0.0,0.0,0.0,0.0,0.0,0.0,0.0,0.0,0.0,0.0,0.0,0.0,0.0,0.0,0.0,0.0,0.0,0.0,0.0,0.0,0.0,0.0,0.0,0.0,0.0,0.0,0.0,0.0,0.0,0.0,0.0,0.0,0.0,0.0,0.0,0.0,0.0,0.0,-0.3193,-0.3388,-0.3075,-0.3125,-0.3688,0.0,0.0,0.0,0.0,0.0,0.0,0.0,0.0,0.0,0.0,0.0,0.0,0.0,0.0,0.0,0.0,0.0,0.0,0.0,0.0,0.0,0.0,0.0,0.0,0.0,0.0,0.0,0.0,0.0,0.0,0.0,0.0,0.0,0.0,0.0,0.0,0.0,0.0,0.0,0.0,0.0,0.0,0.0,0.0,0.0,0.0,0.0,0.0,0.0,0.0,0.0,0.0,0.0,0.0,0.0,0.0,0.0,0.0,0.0,0.0,0.0,0.0,0.0,0.0,0.0,0.0,0.0,0.0,0.0,0.0,0.0,0.0,0.0,0.0,0.0,0.0,0.0,0.0,0.0,0.0,0.0,0.0,0.0,0.0,0.0,0.0,0.0,0.0,0.0,0.0,0.0,0.0,0.0,0.0,0.0,0.0,0.0,0.0,0.0,0.0,0.0,0.0,0.0,0.0,0.0,0.0,0.0,0.0,0.0,0.0,0.0,0.0,-0.3344,-0.3482,-0.403,0.0,0.0,0.0,0.0,0.0,0.0,0.0,0.0,0.0,0.0,0.0,0.0,0.0,0.0,0.0,0.0,0.0,0.0,0.0,0.0,0.0,0.0,0.0,0.0,0.0,0.0,0.0,0.0,0.0,0.0,0.0,0.0,0.0,0.0,0.0,0.0,0.0,0.0,0.0,0.0,0.0,0.0,0.0,0.0,0.0,0.0,0.0,0.0,0.0,0.0,0.0,0.0,0.0,0.0,0.0,0.0,0.0,0.0,0.0,0.0,0.0,0.0,0.0,0.0,0.0,0.0,0.0,0.0,0.0,0.0,0.0,0.0,0.0,0.0,0.0,0.0,0.0,0.0,0.0,0.0,0.0,0.0,0.0,0.0,0.0,0.0,0.0,0.0,0.0,0.0,0.0,0.0,0.0,0.0,0.0,0.0,0.0,0.0,0.0,0.0,0.0,0.0,0.0,0.0,0.0,0.0,0.0,0.0,0.0,0.0,-0.4132,-0.4153,-0.4491,0.0,-0.4865,0.0,0.0,0.0,0.0,0.0,0.0,0.0,0.0,0.0,0.0,0.0,0.0,0.0,0.0,0.0,0.0,0.0,0.0,0.0,0.0,0.0,0.0,0.0,0.0,0.0,0.0,0.0,0.0,0.0,0.0,0.0,0.0,0.0,0.0,0.0,0.0,0.0,0.0,0.0,0.0,0.0,0.0,0.0,0.0,0.0,0.0,0.0,0.0,0.0,0.0,0.0,0.0,0.0,0.0,0.0,0.0,0.0,0.0,0.0,0.0,0.0,0.0,0.0,0.0,0.0,0.0,0.0,0.0,0.0,0.0,0.0,0.0,0.0,0.0,0.0,0.0,0.0,0.0,0.0,0.0,0.0,0.0,0.0,0.0,0.0,0.0,0.0,0.0,0.0,0.0,0.0,0.0,0.0,0.0,0.0,0.0,0.0,0.0,0.0,0.0,0.0,0.0,0.0,0.0,0.0,0.0,0.0,0.0,0.0,0.0,-0.4574,-0.4491,-0.4552,-0.4704,0.0,0.0,0.0,0.0,0.0,0.0,0.0,0.0,0.0,0.0,0.0,0.0,0.0,0.0,0.0,0.0,0.0,0.0,0.0,0.0,0.0,0.0,0.0,0.0,0.0,0.0,0.0,0.0,0.0,0.0,0.0,0.0,0.0,0.0,0.0,0.0,0.0,0.0,0.0,0.0,0.0,0.0,0.0,0.0,0.0,0.0,0.0,0.0,0.0,0.0,0.0,0.0,0.0,0.0,0.0,0.0,0.0,0.0,0.0,0.0,0.0,0.0,0.0,0.0,0.0,0.0,0.0,0.0,0.0,0.0,0.0,0.0,0.0,0.0,0.0,0.0,0.0,0.0,0.0,0.0,0.0,0.0,0.0,0.0,0.0,0.0,0.0,0.0,0.0,0.0,0.0,0.0,0.0,0.0,0.0,0.0,0.0,0.0,0.0,0.0,0.0,0.0,0.0,0.0,0.0,0.0,0.0,0.0,0.0,0.0,-0.5199,-0.5124,-0.5054,-0.4712,-0.4694,-0.5062,0.0,0.0,0.0,0.0,0.0,0.0,0.0,0.0,0.0,0.0,0.0,0.0,0.0,0.0,0.0,0.0,0.0,0.0,0.0,0.0,0.0,0.0,0.0,0.0,0.0,0.0,0.0,0.0,0.0,0.0,0.0,0.0,0.0,0.0,0.0,0.0,0.0,0.0,0.0,0.0,0.0,0.0,0.0,0.0,0.0,0.0,0.0,0.0,0.0,0.0,0.0,0.0,0.0,0.0,0.0,0.0,0.0,0.0,0.0,0.0,0.0,0.0,0.0,0.0,0.0,0.0,0.0,0.0,0.0,0.0,0.0,0.0,0.0,0.0,0.0,0.0,0.0,0.0,0.0,0.0,0.0,0.0,0.0,0.0,0.0,0.0,0.0,0.0,0.0,0.0,0.0,0.0,0.0,0.0,0.0,0.0,0.0,0.0,0.0,0.0,0.0,0.0,0.0,0.0,0.0,0.0,0.0,0.0,-0.63,-0.5937,-0.58,-0.5909,-0.5251,-0.5095,0.0,0.0,0.0,0.0,0.0,0.0,0.0,0.0,0.0,0.0,0.0,0.0,0.0,0.0,0.0,0.0,0.0,0.0,0.0,0.0,0.0,0.0,0.0,0.0,0.0,0.0,0.0,0.0,0.0,0.0,0.0,0.0,0.0,0.0,0.0,0.0,0.0,0.0,0.0,0.0,0.0,0.0,0.0,0.0,0.0,0.0,0.0,0.0,0.0,0.0,0.0,0.0,0.0,0.0,0.0,0.0,0.0,0.0,0.0,0.0,0.0,0.0,0.0,0.0,0.0,0.0,0.0,0.0,0.0,0.0,0.0,0.0,0.0,0.0,0.0,0.0,0.0,0.0,0.0,0.0,0.0,0.0,0.0,0.0,0.0,0.0,0.0,0.0,0.0,0.0,0.0,0.0,0.0,0.0,0.0,0.0,0.0,0.0,0.0,0.0,0.0,0.0,0.0,0.0,0.0,0.0,0.0,0.0,0.0,-0.6255,-0.6055,-0.5909,-0.5862,-0.5611,-0.5562,0.0,0.0,0.0,0.0,0.0,0.0,0.0,0.0,0.0,0.0,0.0,0.0,0.0,0.0,0.0,0.0,0.0,0.0,0.0,0.0,0.0,0.0,0.0,0.0,0.0,0.0,0.0,0.0,0.0,0.0,0.0,0.0,0.0,0.0,0.0,0.0,0.0,0.0,0.0,0.0,0.0,0.0,0.0,0.0,0.0,0.0,0.0,0.0,0.0,0.0,0.0,0.0,0.0,0.0,0.0,0.0,0.0,0.0,0.0,0.0,0.0,0.0,0.0,0.0,0.0,0.0,0.0,0.0,0.0,0.0,0.0,0.0,0.0,0.0,0.0,0.0,0.0,0.0,0.0,0.0,0.0,0.0,0.0,0.0,0.0,0.0,0.0,0.0,0.0,0.0,0.0,0.0,0.0,0.0,0.0,0.0,0.0,0.0,0.0,0.0,0.0,0.0,0.0,0.0,0.0,0.0,0.0,0.0,0.0,-0.646,0.0,-0.6288,-0.6255,-0.6001,-0.5987,0.0,0.0,0.0,0.0,0.0,0.0,0.0,0.0,0.0,0.0,0.0,0.0,0.0,0.0,0.0,0.0,0.0,0.0,0.0,0.0,0.0,0.0,0.0,0.0,0.0,0.0,0.0,0.0,0.0,0.0,0.0,0.0,0.0,0.0,0.0,0.0,0.0,0.0,0.0,0.0,0.0,0.0,0.0,0.0,0.0,0.0,0.0,0.0,0.0,0.0,0.0,0.0,0.0,0.0,0.0,0.0,0.0,0.0,0.0,0.0,0.0,0.0,0.0,0.0,0.0,0.0,0.0,0.0,0.0,0.0,0.0,0.0,0.0,0.0,0.0,0.0,0.0,0.0,0.0,0.0,0.0,0.0,0.0,0.0,0.0,0.0,0.0,0.0,0.0,0.0,0.0,0.0,0.0,0.0,0.0,0.0,0.0,0.0,0.0,0.0,0.0,0.0,0.0,0.0,0.0,0.0,0.0,0.0,-0.6867,-0.7015,-0.697,-0.7091,-0.7221,-0.6566,-0.6371,0.0,0.0,0.0,0.0,0.0,0.0,0.0,0.0,0.0,0.0,0.0,0.0,0.0,0.0,0.0,0.0,0.0,0.0,0.0,0.0,0.0,0.0,0.0,0.0,0.0,0.0,0.0,0.0,0.0,0.0,0.0,0.0,0.0,0.0,0.0,0.0,0.0,0.0,0.0,0.0,0.0,0.0,0.0,0.0,0.0,0.0,0.0,0.0,0.0,0.0,0.0,0.0,0.0,0.0,0.0,0.0,0.0,0.0,0.0,0.0,0.0,0.0,0.0,0.0,0.0,0.0,0.0,0.0,0.0,0.0,0.0,0.0,0.0,0.0,0.0,0.0,0.0,0.0,0.0,0.0,0.0,0.0,0.0,0.0,0.0,0.0,0.0,0.0,0.0,0.0,0.0,0.0,0.0,0.0,0.0,0.0,0.0,0.0,0.0,0.0,0.0,0.0,0.0,0.0,0.0,0.0,0.0,0.0,0.0,-0.8015,-0.8345,-0.8769,-0.9145,-0.8392,-0.8011,0.0,0.0,0.0,0.0,0.0,0.0,0.0,0.0,0.0,0.0,0.0,0.0,0.0,0.0,0.0,0.0,0.0,0.0,0.0,0.0,0.0,0.0,0.0,0.0,0.0,0.0,0.0,0.0,0.0,0.0,0.0,0.0,0.0,0.0,0.0,0.0,0.0,0.0,0.0,0.0,0.0,0.0,0.0,0.0,0.0,0.0,0.0,0.0,0.0,0.0,0.0,0.0,0.0,0.0,0.0,0.0,0.0,0.0,0.0,0.0,0.0,0.0,0.0,0.0,0.0,0.0,0.0,0.0,0.0,0.0,0.0,0.0,0.0,0.0,0.0,0.0,0.0,0.0,0.0,0.0,0.0,0.0,0.0,0.0,0.0,0.0,0.0,0.0,0.0,0.0,0.0,0.0,0.0,0.0,0.0,0.0,0.0,0.0,0.0,0.0,0.0,0.0,0.0,0.0,0.0,0.0,0.0,0.0,0.0,-1.1757,-1.1532,-1.1653,-1.2057,-1.1097,-1.0236,-0.9507,0.0,0.0,0.0,0.0,0.0,0.0,0.0,0.0,0.0,0.0,0.0,0.0,0.0,0.0,0.0,0.0,0.0,0.0,0.0,0.0,0.0,0.0,0.0,0.0,0.0,0.0,0.0,0.0,0.0,0.0,0.0,0.0,0.0,0.0,0.0,0.0,0.0,0.0,0.0,0.0,0.0,0.0,0.0,0.0,0.0,0.0,0.0,0.0,0.0,0.0,0.0,0.0,0.0,0.0,0.0,0.0,0.0,0.0,0.0,0.0,0.0,0.0,0.0,0.0,0.0,0.0,0.0,0.0,0.0,0.0,0.0,0.0,0.0,0.0,0.0,0.0,0.0,0.0,0.0,0.0,0.0,0.0,0.0,0.0,0.0,0.0,0.0,0.0,0.0,0.0,0.0,0.0,0.0,0.0,0.0,0.0,0.0,0.0,0.0,0.0,0.0,0.0,0.0,0.0,0.0,0.0,0.0,0.0,-1.7642,-1.6465,-1.5868,-1.5822,-1.455,-1.2989,0.0,0.0,0.0,0.0,0.0,0.0,0.0,0.0,0.0,0.0,0.0,0.0,0.0,0.0,0.0,0.0,0.0,0.0,0.0,0.0,0.0,0.0,0.0,0.0,0.0,0.0,0.0,0.0,0.0,0.0,0.0,0.0,0.0,0.0,0.0,0.0,0.0,0.0,0.0,0.0,0.0,0.0,0.0,0.0,0.0,0.0,0.0,0.0,0.0,0.0,0.0,0.0,0.0,0.0,0.0,0.0,0.0,0.0,0.0,0.0,0.0,0.0,0.0,0.0,0.0,0.0,0.0,0.0,0.0,0.0,0.0,0.0,0.0,0.0,0.0,0.0,0.0,0.0,0.0,0.0,0.0,0.0,0.0,0.0,0.0,0.0,0.0,0.0,0.0,0.0,0.0,0.0,0.0,0.0,0.0,0.0,0.0,0.0,0.0,0.0,0.0,0.0,0.0,0.0,0.0,0.0,0.0,0.0,0.0,-2.18,-2.4521,-2.4468,-2.1281,-1.9074,-1.7109,0.0,0.0,0.0,0.0,0.0,0.0,0.0,0.0,0.0,0.0,0.0,0.0,0.0,0.0,0.0,0.0,0.0,0.0,0.0,0.0,0.0,0.0,0.0,0.0,0.0,0.0,0.0,0.0,0.0,0.0,0.0,0.0,0.0,0.0,0.0,0.0,0.0,0.0,0.0,0.0,0.0,0.0,0.0,0.0,0.0,0.0,0.0,0.0,0.0,0.0,0.0,0.0,0.0,0.0,0.0,0.0,0.0,0.0,0.0,0.0,0.0,0.0,0.0,0.0,0.0,0.0,0.0,0.0,0.0,0.0,0.0,0.0,0.0,0.0,0.0,0.0,0.0,0.0,0.0,0.0,0.0,0.0,0.0,0.0,0.0,0.0,0.0,0.0,0.0,0.0,0.0,0.0,0.0,0.0,0.0,0.0,0.0,0.0,0.0,0.0,0.0,0.0,0.0,0.0,0.0,0.0,0.0,0.0,-2.2428,-2.5084,-2.993,-3.1171,-2.8314,-2.401,-2.0416,0.0,0.0,0.0,0.0,0.0,0.0,0.0,0.0,0.0,0.0,0.0,0.0,0.0,0.0,0.0,0.0,0.0,0.0,0.0,0.0,0.0,0.0,0.0,0.0,0.0,0.0,0.0,0.0,0.0,0.0,0.0,0.0,0.0,0.0,0.0,0.0,0.0,0.0,0.0,0.0,0.0,0.0,0.0,0.0,0.0,0.0,0.0,0.0,0.0,0.0,0.0,0.0,0.0,0.0,0.0,0.0,0.0,0.0,0.0,0.0,0.0,0.0,0.0,0.0,0.0,0.0,0.0,0.0,0.0,0.0,0.0,0.0,0.0,0.0,0.0,0.0,0.0,0.0,0.0,0.0,0.0,0.0,0.0,0.0,0.0,0.0,0.0,0.0,0.0,0.0,0.0,0.0,0.0,0.0,0.0,0.0,0.0,0.0,0.0,0.0,0.0,0.0,0.0,0.0,0.0,0.0,0.0,0.0,-2.5226,-2.7827,-3.3336,-3.5965,-3.5226,-2.8804,-2.3366,0.0,0.0,0.0,0.0,0.0,0.0,0.0,0.0,0.0,0.0,0.0,0.0,0.0,0.0,0.0,0.0,0.0,0.0,0.0,0.0,0.0,0.0,0.0,0.0,0.0,0.0,0.0,0.0,0.0,0.0,0.0,0.0,0.0,0.0,0.0,0.0,0.0,0.0,0.0,0.0,0.0,0.0,0.0,0.0,0.0,0.0,0.0,0.0,0.0,0.0,0.0,0.0,0.0,0.0,0.0,0.0,0.0,0.0,0.0,0.0,0.0,0.0,0.0,0.0,0.0,0.0,0.0,0.0,0.0,0.0,0.0,0.0,0.0,0.0,0.0,0.0,0.0,0.0,0.0,0.0,0.0,0.0,0.0,0.0,0.0,0.0,0.0,0.0,0.0,0.0,0.0,0.0,0.0,0.0,0.0,0.0,0.0,0.0,0.0,0.0,0.0,0.0,0.0,0.0,0.0,0.0,0.0,0.0,-2.7594,-3.0523,-3.4921,-3.6944,-3.6462,-3.1083,-2.6616,0.0,0.0,0.0,0.0,0.0,0.0,0.0,0.0,0.0,0.0,0.0,0.0,0.0,0.0,0.0,0.0,0.0,0.0,0.0,0.0,0.0,0.0,0.0,0.0,0.0,0.0,0.0,0.0,0.0,0.0,0.0,0.0,0.0,0.0,0.0,0.0,0.0,0.0,0.0,0.0,0.0,0.0,0.0,0.0,0.0,0.0,0.0,0.0,-1.5567,0.0,0.0,0.0,0.0,0.0,0.0,0.0,0.0,0.0,0.0,0.0,0.0,0.0,0.0,0.0,0.0,0.0,0.0,0.0,0.0,0.0,0.0,0.0,0.0,0.0,0.0,0.0,0.0,0.0,0.0,0.0,0.0,0.0,0.0,0.0,0.0,0.0,0.0,0.0,0.0,0.0,0.0,0.0,0.0,0.0,0.0,0.0,0.0,0.0,0.0,0.0,0.0,0.0,0.0,0.0,0.0,0.0,0.0,0.0,-2.874,-3.2533,-3.5641,-3.7156,-3.6991,-3.2919,-2.8785,0.0,0.0,0.0,0.0,0.0,0.0,0.0,0.0,0.0,0.0,0.0,0.0,0.0,0.0,0.0,0.0,0.0,0.0,0.0,0.0,0.0,0.0,0.0,0.0,0.0,0.0,0.0,0.0,0.0,0.0,0.0,0.0,0.0,0.0,0.0,0.0,0.0,0.0,0.0,0.0,0.0,0.0,0.0,0.0,0.0,0.0,0.0,0.0,0.0,0.0,0.0,0.0,0.0,0.0,0.0,0.0,0.0,0.0,0.0,0.0,0.0,0.0,0.0,0.0,0.0,0.0,0.0,0.0,0.0,0.0,0.0,0.0,0.0,0.0,0.0,0.0,0.0,0.0,0.0,0.0,0.0,0.0,0.0,0.0,0.0,0.0,0.0,0.0,0.0,0.0,0.0,0.0,0.0,0.0,0.0,0.0,0.0,0.0,0.0,0.0,0.0,0.0,0.0,0.0,0.0,0.0,0.0,-2.5449,-2.9481,-3.4024,-3.5889,-3.6991,-3.7322,-3.4202,-3.024,-2.5528,0.0,0.0,0.0,0.0,0.0,0.0,0.0,0.0,0.0,0.0,0.0,0.0,0.0,0.0,0.0,0.0,0.0,0.0,0.0,0.0,0.0,0.0,0.0,0.0,0.0,0.0,0.0,0.0,0.0,0.0,0.0,0.0,0.0,0.0,0.0,0.0,0.0,0.0,-1.544,-1.6041,0.0,0.0,0.0,0.0,0.0,0.0,0.0,0.0,-1.8752,0.0,0.0,0.0,0.0,0.0,0.0,0.0,0.0,0.0,0.0,0.0,0.0,0.0,0.0,0.0,0.0,0.0,0.0,0.0,0.0,0.0,0.0,0.0,0.0,0.0,0.0,0.0,0.0,0.0,0.0,0.0,0.0,0.0,0.0,0.0,0.0,0.0,0.0,0.0,0.0,0.0,0.0,0.0,0.0,0.0,0.0,0.0,0.0,0.0,0.0,0.0,0.0,0.0,0.0,0.0,0.0,-2.3967,-2.7241,-3.0933,-3.5026,-3.6224,-3.6846,-3.6825,-3.4137,-3.0599,-2.6253,0.0,0.0,0.0,0.0,0.0,0.0,0.0,0.0,0.0,0.0,0.0,0.0,0.0,0.0,0.0,0.0,0.0,0.0,0.0,0.0,0.0,0.0,0.0,0.0,0.0,0.0,0.0,0.0,0.0,0.0,0.0,0.0,0.0,0.0,0.0,0.0,0.0,0.0,0.0,-1.9333,-1.9778,0.0,0.0,0.0,0.0,0.0,0.0,0.0,0.0,-2.1567,0.0,0.0,0.0,0.0,0.0,0.0,0.0,0.0,0.0,0.0,0.0,0.0,0.0,0.0,0.0,0.0,0.0,0.0,0.0,0.0,0.0,0.0,0.0,0.0,0.0,0.0,0.0,0.0,0.0,0.0,0.0,0.0,0.0,0.0,0.0,0.0,0.0,0.0,0.0,0.0,0.0,0.0,0.0,0.0,0.0,0.0,0.0,0.0,0.0,0.0,0.0,0.0,0.0,0.0,0.0,-2.5011,-2.7984,-3.142,-3.5211,-3.6101,-3.6328,-3.6039,-3.3334,-3.0043,0.0,0.0,0.0,0.0,0.0,0.0,0.0,0.0,0.0,0.0,0.0,0.0,0.0,0.0,0.0,0.0,0.0,0.0,0.0,0.0,0.0,0.0,0.0,0.0,0.0,0.0,0.0,0.0,0.0,0.0,0.0,0.0,0.0,0.0,0.0,0.0,0.0,0.0,0.0,0.0,-2.1868,-2.248,-2.3829,0.0,0.0,0.0,0.0,0.0,0.0,-2.4133,-2.3773,0.0,0.0,0.0,0.0,0.0,0.0,0.0,0.0,0.0,0.0,0.0,0.0,0.0,0.0,0.0,0.0,0.0,0.0,0.0,0.0,0.0,0.0,0.0,0.0,0.0,0.0,0.0,0.0,0.0,0.0,0.0,0.0,0.0,0.0,0.0,0.0,0.0,0.0,0.0,0.0,0.0,0.0,0.0,0.0,0.0,0.0,0.0,0.0,0.0,0.0,0.0,0.0,0.0,0.0,0.0,-2.5608,-2.8407,-3.1519,-3.4859,-3.5459,-3.5562,-3.5231,-3.2205,-2.9003,0.0,0.0,0.0,0.0,0.0,0.0,0.0,0.0,0.0,0.0,0.0,0.0,0.0,0.0,0.0,0.0,0.0,0.0,0.0,0.0,0.0,0.0,0.0,0.0,0.0,0.0,0.0,0.0,0.0,0.0,0.0,0.0,0.0,0.0,0.0,0.0,0.0,0.0,0.0,0.0,0.0,-2.473,-2.5977,-2.4734,0.0,0.0,0.0,0.0,-2.5411,-2.6236,0.0,0.0,0.0,0.0,0.0,0.0,0.0,0.0,0.0,0.0,0.0,0.0,0.0,0.0,0.0,0.0,0.0,0.0,0.0,0.0,0.0,0.0,0.0,0.0,0.0,0.0,0.0,0.0,0.0,0.0,0.0,0.0,0.0,0.0,0.0,0.0,0.0,0.0,0.0,0.0,0.0,0.0,0.0,0.0,0.0,0.0,0.0,0.0,0.0,0.0,0.0,0.0,0.0,0.0,0.0,0.0,-2.5562,-2.8736,-3.1371,-3.3551,-3.4072,-3.4526,-3.4816,-3.0954,-2.7751,0.0,0.0,0.0,0.0,0.0,0.0,0.0,0.0,0.0,0.0,0.0,0.0,0.0,0.0,0.0,0.0,0.0,0.0,0.0,0.0,0.0,0.0,0.0,0.0,0.0,0.0,0.0,0.0,0.0,0.0,0.0,0.0,0.0,0.0,0.0,0.0,0.0,0.0,0.0,0.0,0.0,-2.5942,-2.7201,-2.6424,-2.5694,0.0,0.0,-2.7155,-2.8913,-3.0237,0.0,0.0,0.0,0.0,0.0,0.0,0.0,0.0,0.0,0.0,0.0,0.0,0.0,0.0,0.0,0.0,0.0,0.0,0.0,0.0,0.0,0.0,0.0,0.0,0.0,0.0,0.0,0.0,0.0,0.0,0.0,0.0,0.0,0.0,0.0,0.0,0.0,0.0,0.0,0.0,0.0,0.0,0.0,0.0,0.0,0.0,0.0,0.0,0.0,0.0,0.0,0.0,0.0,0.0,0.0,-2.3236,-2.6214,-2.9337,-3.1759,-3.3392,-3.3876,-3.3927,-3.3617,-3.0013,-2.6913,0.0,0.0,0.0,0.0,0.0,0.0,0.0,0.0,0.0,0.0,0.0,0.0,0.0,0.0,0.0,0.0,0.0,0.0,0.0,0.0,0.0,0.0,0.0,0.0,0.0,0.0,0.0,0.0,0.0,0.0,0.0,0.0,0.0,0.0,0.0,0.0,0.0,0.0,0.0,0.0,0.0,0.0,-2.7901,-2.8362,0.0,0.0,0.0,-2.9453,-3.1098,0.0,0.0,0.0,0.0,0.0,0.0,0.0,0.0,0.0,0.0,0.0,0.0,0.0,0.0,0.0,0.0,0.0,0.0,0.0,0.0,0.0,0.0,0.0,0.0,0.0,0.0,0.0,0.0,0.0,0.0,0.0,0.0,0.0,0.0,0.0,0.0,0.0,0.0,0.0,0.0,0.0,0.0,0.0,0.0,0.0,0.0,0.0,0.0,0.0,0.0,0.0,0.0,0.0,0.0,0.0,0.0,0.0,-2.6683,-3.0098,-3.2362,-3.3377,-3.3832,-3.3628,-3.2746,-2.9383,0.0,0.0,0.0,0.0,0.0,0.0,0.0,0.0,0.0,0.0,0.0,0.0,0.0,0.0,0.0,0.0,0.0,0.0,0.0,0.0,0.0,0.0,0.0,0.0,0.0,0.0,0.0,-1.2065,0.0,0.0,0.0,0.0,0.0,0.0,0.0,0.0,0.0,0.0,0.0,0.0,0.0,0.0,-2.8944,-2.8892,-3.0367,-3.1422,0.0,0.0,-3.1561,-3.2625,-3.2338,-3.1435,0.0,0.0,0.0,0.0,0.0,0.0,0.0,0.0,0.0,0.0,0.0,0.0,0.0,0.0,0.0,0.0,0.0,0.0,0.0,0.0,0.0,0.0,0.0,0.0,0.0,0.0,0.0,0.0,0.0,0.0,0.0,0.0,0.0,0.0,0.0,0.0,0.0,0.0,0.0,0.0,0.0,0.0,0.0,0.0,0.0,0.0,0.0,0.0,0.0,0.0,0.0,0.0,0.0,0.0,0.0,-2.6772,-3.1016,-3.3192,-3.3136,-3.353,-3.344,-3.2857,-2.9359,-2.6475,0.0,0.0,0.0,0.0,0.0,0.0,0.0,0.0,0.0,0.0,0.0,0.0,0.0,0.0,0.0,0.0,0.0,0.0,0.0,0.0,0.0,0.0,0.0,0.0,0.0,0.0,0.0,0.0,0.0,0.0,0.0,0.0,0.0,0.0,0.0,0.0,0.0,0.0,0.0,0.0,0.0,-3.0536,-3.0522,-3.2439,-3.3824,0.0,0.0,-3.3798,-3.3707,-3.5071,-3.4623,-3.0001,0.0,0.0,0.0,0.0,0.0,0.0,0.0,0.0,0.0,0.0,0.0,0.0,0.0,0.0,0.0,0.0,0.0,0.0,0.0,0.0,0.0,0.0,0.0,0.0,0.0,0.0,0.0,0.0,0.0,0.0,0.0,0.0,0.0,0.0,0.0,0.0,0.0,0.0,0.0,0.0,0.0,0.0,0.0,0.0,0.0,0.0,0.0,0.0,0.0,0.0,0.0,0.0,0.0,-2.5972,-2.7962,-3.1544,-3.3522,-3.3844,-3.3732,-3.3323,-3.2544,-2.9743,-2.725,0.0,0.0,0.0,0.0,0.0,0.0,0.0,0.0,0.0,0.0,0.0,0.0,0.0,0.0,0.0,0.0,0.0,0.0,0.0,0.0,0.0,0.0,0.0,0.0,0.0,0.0,0.0,0.0,-1.6339,-1.6411,-1.572,0.0,0.0,0.0,0.0,0.0,0.0,0.0,0.0,0.0,0.0,-3.2044,-3.2811,-3.4486,0.0,0.0,-3.4491,-3.4356,-3.4522,-3.4222,-3.3357,-3.1422,-2.8818,0.0,0.0,0.0,0.0,0.0,0.0,0.0,0.0,0.0,0.0,0.0,0.0,0.0,0.0,0.0,0.0,0.0,0.0,0.0,0.0,0.0,0.0,0.0,0.0,0.0,0.0,0.0,0.0,0.0,0.0,0.0,0.0,0.0,0.0,0.0,0.0,0.0,0.0,0.0,0.0,0.0,0.0,0.0,0.0,0.0,0.0,0.0,0.0,0.0,0.0,0.0,0.0,-2.6572,-2.8948,-3.23,-3.4272,-3.4778,-3.4321,-3.3555,-3.2537,-3.0255,-2.8006,0.0,0.0,0.0,0.0,0.0,0.0,0.0,0.0,0.0,0.0,0.0,0.0,0.0,0.0,0.0,0.0,0.0,0.0,0.0,0.0,0.0,0.0,0.0,0.0,0.0,0.0,0.0,0.0,-1.7264,-1.7012,-1.5934,0.0,0.0,0.0,0.0,0.0,0.0,0.0,0.0,0.0,0.0,-3.342,-3.4033,-3.5582,-3.6288,-3.5378,-3.4662,-3.4283,-3.4499,-3.331,-3.225,-3.1979,0.0,0.0,0.0,0.0,0.0,0.0,0.0,0.0,0.0,0.0,0.0,0.0,0.0,0.0,0.0,0.0,0.0,0.0,0.0,0.0,0.0,0.0,0.0,0.0,0.0,0.0,0.0,0.0,0.0,0.0,0.0,0.0,0.0,0.0,0.0,0.0,0.0,0.0,0.0,0.0,0.0,0.0,0.0,0.0,0.0,0.0,0.0,0.0,0.0,0.0,0.0,0.0,0.0,-2.7298,-2.9498,-3.3406,-3.555,-3.5911,-3.5178,-3.4243,-3.316,-3.0881,-2.8634,-2.6583,0.0,0.0,0.0,0.0,0.0,0.0,0.0,0.0,0.0,0.0,0.0,0.0,0.0,0.0,0.0,0.0,0.0,0.0,0.0,0.0,0.0,0.0,0.0,0.0,0.0,0.0,-1.5382,-1.6044,-1.6415,0.0,0.0,0.0,0.0,0.0,0.0,0.0,0.0,0.0,0.0,-3.1661,-3.4604,-3.3755,-3.5416,-3.629,-3.5148,-3.4338,-3.3754,-3.356,-3.283,-3.2006,0.0,0.0,0.0,0.0,0.0,0.0,0.0,0.0,0.0,0.0,0.0,0.0,0.0,0.0,0.0,0.0,0.0,0.0,0.0,0.0,0.0,0.0,0.0,0.0,0.0,0.0,0.0,-2.2524,-2.2873,0.0,0.0,0.0,0.0,0.0,0.0,0.0,0.0,0.0,0.0,0.0,-2.7162,-2.7689,0.0,0.0,0.0,0.0,0.0,0.0,0.0,0.0,0.0,0.0,0.0,0.0,-2.8474,-3.0568,-3.4654,-3.6625,-3.6282,-3.5839,-3.4862,-3.3293,-3.147,-2.8876,-2.5328,0.0,0.0,0.0,0.0,0.0,0.0,0.0,0.0,0.0,0.0,0.0,0.0,0.0,0.0,0.0,0.0,0.0,0.0,0.0,0.0,0.0,0.0,0.0,0.0,0.0,-1.7119,0.0,0.0,0.0,0.0,0.0,0.0,0.0,0.0,0.0,0.0,0.0,-2.7002,-2.8921,-3.1431,-3.3168,-3.348,-3.4237,-3.4639,0.0,0.0,0.0,0.0,0.0,0.0,0.0,0.0,0.0,0.0,0.0,0.0,0.0,0.0,-3.0163,-2.8125,-2.8207,-2.8435,-2.816,0.0,0.0,0.0,0.0,0.0,0.0,0.0,0.0,0.0,0.0,0.0,0.0,0.0,0.0,0.0,0.0,-2.6551,0.0,0.0,0.0,0.0,0.0,0.0,0.0,0.0,-3.0334,-3.1966,-3.2244,-3.2788,-3.2508,0.0,-3.0433,-2.7336,0.0,0.0,0.0,0.0,0.0,0.0,0.0,0.0,-2.931,-3.1598,-3.5164,-3.6996,-3.6923,-3.6036,-3.4913,-3.3595,-3.1708,-2.9364,-2.6454,-2.4876,-2.3253,0.0,0.0,0.0,0.0,0.0,0.0,0.0,0.0,0.0,0.0,0.0,0.0,0.0,0.0,0.0,0.0,0.0,0.0,0.0,0.0,0.0,0.0,0.0,-1.8677,0.0,0.0,0.0,0.0,0.0,0.0,0.0,0.0,0.0,-2.3661,-2.5955,-2.8362,-3.0422,-3.1889,-3.267,-3.2529,0.0,0.0,0.0,0.0,0.0,0.0,0.0,-3.187,-3.2601,-3.2335,-3.2529,-3.424,-3.4853,-3.5106,-3.4993,0.0,0.0,-3.125,-3.1161,-3.1486,-3.1397,-3.196,-3.2344,-3.202,-3.1901,-3.1901,0.0,0.0,0.0,0.0,0.0,0.0,0.0,0.0,-3.0681,-3.0435,0.0,-2.9773,0.0,0.0,0.0,0.0,0.0,0.0,0.0,0.0,-3.6866,-3.8933,-3.7673,-3.7407,-3.6912,-3.6026,-3.4421,-3.2704,-3.0814,-2.7782,0.0,0.0,0.0,0.0,0.0,0.0,-2.9814,-3.2665,-3.5182,-3.6923,-3.7856,-3.5954,-3.4613,-3.394,-3.1547,-3.0113,-2.9725,-2.7035,-2.5867,-2.6515,-2.284,0.0,0.0,0.0,0.0,0.0,0.0,0.0,0.0,0.0,0.0,0.0,0.0,0.0,0.0,0.0,0.0,0.0,0.0,0.0,0.0,-1.9414,0.0,0.0,0.0,0.0,0.0,0.0,0.0,0.0,0.0,0.0,-2.6303,-2.8014,-2.9847,-3.1458,0.0,0.0,0.0,0.0,-3.3444,-3.1793,-3.1853,-3.2173,-3.2298,-3.2963,-3.3769,-3.4581,0.0,0.0,-3.6533,-3.5926,-3.5707,-3.6242,-3.642,-3.5945,-3.4666,-3.4399,-3.4641,-3.5337,-3.5419,-3.535,-3.535,-3.535,-3.535,-3.8843,0.0,0.0,0.0,0.0,-3.2723,-3.494,-3.8256,-3.8329,-3.8182,-3.7862,-3.6622,0.0,0.0,0.0,0.0,0.0,0.0,-3.3691,-3.6241,-3.9144,-4.0798,-4.1439,-4.1776,-4.1595,-4.0899,-3.9205,-3.791,-3.6977,-3.4868,-3.1001,-2.5529,0.0,0.0,0.0,0.0,-3.1933,-3.4911,-3.7763,-3.8816,-3.798,-3.7059,-3.5661,-3.3832,-3.1831,-3.0873,-3.1131,-2.907,-2.7254,-2.5885,-2.5312,0.0,0.0,0.0,0.0,0.0,0.0,0.0,0.0,0.0,0.0,0.0,0.0,0.0,0.0,0.0,0.0,0.0,0.0,0.0,-1.998,-2.1205,-2.1244,0.0,0.0,0.0,0.0,0.0,0.0,0.0,0.0,0.0,-3.119,-3.0934,-3.0725,0.0,0.0,-3.1299,-3.1135,-3.1777,-3.2729,-3.4091,0.0,0.0,0.0,-3.4548,-3.4212,-3.5443,-3.7079,-3.8293,-3.8359,-3.9062,-3.9553,-3.9247,-3.9188,-3.8919,-3.8142,-3.7545,-3.731,-3.7584,-3.8267,-3.8889,-3.8889,-3.8889,-3.8859,-4.7306,-4.3118,-3.9095,-3.7789,-3.8415,-3.8864,-4.0875,-4.3945,-4.3721,-4.325,-4.262,-4.1363,-3.8523,-3.4524,-3.3246,0.0,0.0,0.0,-3.7175,-3.99,-4.1337,-4.2577,-4.365,-4.4068,-4.3912,-4.331,-4.2291,-4.1272,-4.0278,-3.8592,-3.5239,-3.0343,0.0,0.0,-2.8851,-3.1437,-3.3811,-3.6038,-3.8574,-3.9246,-3.781,-3.6823,-3.5491,-3.3744,-3.2418,-3.1912,-3.2311,-3.0594,-2.91,-2.8037,-2.7348,-2.5849,0.0,0.0,0.0,0.0,0.0,0.0,0.0,0.0,0.0,0.0,0.0,-1.8905,-1.8879,0.0,0.0,0.0,-2.0991,-2.1611,-2.2218,-2.2742,0.0,0.0,0.0,0.0,0.0,0.0,0.0,-2.6495,-2.9389,-3.2103,-3.4133,-3.3963,-3.3615,-3.3541,-3.2928,-3.23,-3.1827,0.0,-3.3333,-3.4481,-3.4347,-3.4691,-3.6259,-3.5937,-3.5882,-3.7157,-3.8353,-3.9199,-3.9258,-4.0024,-4.0427,-4.0127,-4.0008,-3.9888,-3.9499,-3.908,-3.8811,-3.8811,-3.9439,-3.9978,-4.0008,-4.0008,-4.0008,-5.468,-5.3074,-4.5428,-4.3406,-4.5268,-4.5171,-4.6491,-4.846,-4.7388,-4.6299,-4.5257,-4.4507,-4.2266,-3.902,-3.7509,0.0,0.0,-3.9306,-4.092,-4.2447,-4.3467,-4.4225,-4.4668,-4.4668,-4.446,-4.3938,-4.3859,-4.2997,-4.1404,-3.9903,-3.8385,-3.6767,-3.4736,-3.3189,-3.2328,-3.407,-3.544,-3.626,-3.8091,-3.8561,-3.7411,-3.5771,-3.4485,-3.3672,-3.3125,-3.2977,-3.3275,-3.1639,-3.0994,-3.1526,-2.9076,-2.7616,-2.7631,0.0,0.0,0.0,0.0,0.0,0.0,0.0,0.0,0.0,0.0,0.0,0.0,0.0,0.0,0.0,-2.3733,0.0,-2.5191,-2.4353,0.0,0.0,0.0,-2.5314,-2.7709,-2.9256,-3.0444,-3.1282,0.0,0.0,-3.5829,0.0,-3.7738,-3.7813,-3.6583,-3.5006,-3.3146,-3.4266,-3.4913,-3.4236,-3.5021,-3.5989,-3.6608,-3.7272,-3.8074,-3.9013,-3.9403,-3.9373,-3.9373,-3.9403,-3.9403,-3.9349,-3.9349,-3.929,-3.9224,-3.914,-3.926,-3.9134,-3.932,-3.9373,-3.9349,-3.9409,-3.9469,-5.6876,-5.6432,-5.3544,-5.171,-5.0653,-5.0584,-5.123,-5.204,-5.089,-4.9758,-4.8596,-4.7148,-4.5054,-4.2631,-4.1802,-4.1697,-4.2293,-4.271,-4.3336,-4.4121,-4.4382,-4.4591,-4.4722,-4.4694,-4.4643,-4.4487,-4.3624,-4.3023,-4.2527,-4.1333,-3.99,-3.8339,-3.7551,-3.6016,-3.3803,-3.4574,-3.555,-3.6673,-3.7535,-3.7475,-3.6387,-3.5892,-3.4828,-3.3148,-3.3037,-3.295,-3.2751,-3.1498,-3.068,-3.0497,-3.0239,-2.9108,-2.6973,-2.5881,0.0,0.0,0.0,0.0,0.0,0.0,0.0,0.0,0.0,-2.1067,-2.129,0.0,-2.3006,0.0,-2.4969,-2.6477,-2.754,-2.7911,0.0,0.0,-2.8892,-2.98,-3.1068,-3.3031,-3.4399,-3.464,-3.6322,-3.7907,-3.9006,-3.945,-4.0003,-4.0991,-3.8506,-3.6445,-3.625,-3.6465,-3.7031,-3.7719,-3.7793,-3.8263,-3.8981,-3.9114,-3.9053,-3.9337,-3.9373,-3.9403,-3.9373,-3.9403,-3.926,-3.8781,-3.8631,-3.8452,-3.8003,-3.7883,-3.7913,-3.7973,-3.8656,-3.926,-3.8781,-3.905,-3.9373,-5.8052,-5.7974,-5.7059,-5.5961,-5.4733,-5.3975,-5.3844,-5.4053,-5.2903,-5.1727,-5.0524,-4.859,-4.6734,-4.5062,-4.4696,-4.4591,-4.467,-4.4931,-4.4931,-4.4694,-4.4929,-4.4983,-4.4694,-4.4694,-4.4694,-4.4668,-4.4068,-4.365,-4.3363,-4.25,-4.1464,-4.0312,-3.9899,-3.8362,-3.5819,-3.5308,-3.5331,-3.5574,-3.6204,-3.6478,-3.6589,-3.5588,-3.4296,-3.2677,-3.24,-3.1937,-3.1199,-3.0448,-2.9688,-2.8937,-2.9189,-2.8611,-2.7017,-2.603,-2.4985,0.0,0.0,0.0,0.0,0.0,0.0,0.0,0.0,0.0,0.0,0.0,-2.5443,-2.5331,-2.677,-2.8084,-2.8978,-2.9572,-3.0289,-3.1232,-3.2435,-3.3716,-3.5142,-3.7053,-3.8435,-3.8697,-3.9759,-4.0811,-4.1519,-4.1401,-4.1498,-4.2312,-4.0326,-3.8672,-3.8275,-3.8312,-3.8542,-3.8706,-3.8665,-3.8875,-3.9677,-3.9304,-3.896,-3.8931,-3.8721,-3.8512,-3.8476,-3.8542,-3.8392,-3.8033,-3.7943,-3.7853,-3.7494,-3.7404,-3.7345,-3.7195,-3.7823,-3.8302,-3.8033,-3.8272,-3.8536,-5.847,-5.834,-5.7791,-5.7503,-5.732,-5.5674,-5.5046,-5.502,-5.3949,-5.2746,-5.1361,-4.9244,-4.7754,-4.6813,-4.6656,-4.629,-4.5767,-4.6186,-4.5794,-4.472,-4.5216,-4.519,-4.4748,-4.4694,-4.4694,-4.4722,-4.4643,-4.433,-4.3755,-4.3206,-4.2553,-4.1877,-4.1229,-3.9702,-3.7475,-3.594,-3.4793,-3.3958,-3.4676,-3.562,-3.6623,-3.491,-3.3258,-3.1832,-3.1425,-3.0635,-2.9301,-2.9169,-2.8639,-2.7604,-2.7555,-2.7568,-2.7606,-2.6117,-2.5326,0.0,-2.3637,0.0,0.0,0.0,0.0,0.0,0.0,0.0,0.0,-2.8175,-2.8411,-2.8127,-2.8825,-2.9553,-3.0147,-3.0817,-3.2182,-3.4444,-3.5858,-3.7353,-3.9246,-4.0749,-4.1833,-4.247,-4.3,-4.329,-4.308,-4.2761,-4.25,-4.2261,-4.1773,-4.0723,-3.9504,-3.9576,-3.9518,-3.8178,-3.8399,-3.8864,-3.9072,-3.8736,-3.8422,-3.8362,-3.7913,-3.7404,-3.7494,-3.7464,-3.7404,-3.7315,-3.7285,-3.7255,-3.7195,-3.7135,-3.6956,-3.6447,-3.6806,-3.7195,-3.7285,-3.7434,-3.7614,-5.8235,-5.7835,-5.7216,-5.6693,-5.6144,-5.4889,-5.4654,-5.5046,-5.4341,-5.2877,-5.0864,-4.9505,-4.8799,-4.8512,-4.7597,-4.6865,-4.629,-4.595,-4.5346,-4.4694,-4.4772,-4.4853,-4.4694,-4.4694,-4.4694,-4.4696,-4.4251,-4.3729,-4.318,-4.2605,-4.1544,-4.0082,-3.9143,-3.7908,-3.6408,0.0,0.0,0.0,-3.4168,-3.4351,-3.3467,-3.3608,-3.2285,-2.9534,-3.0548,0.0,-2.8578,-2.8721,-2.8851,-2.8748,-2.8786,0.0,0.0,0.0,0.0,0.0,0.0,0.0,0.0,0.0,0.0,0.0,-2.8755,-2.8765,-2.7817,-2.8584,-2.9471,-3.0264,-3.0507,-3.1306,-3.2867,-3.4272,-3.5667,-3.7261,-3.9178,-4.0739,-4.1701,-4.2473,-4.2991,-4.308,-4.3269,-4.312,-4.2671,-4.288,-4.2701,-4.1713,-4.1931,-4.1406,-3.9549,-3.9832,-3.9973,-3.9262,-3.9054,-3.9232,-3.9327,-3.8764,-3.8272,-3.8302,-3.7853,-3.7404,-3.7345,-3.7345,-3.7165,-3.6776,-3.6656,-3.6477,-3.5998,-3.5878,-3.5908,-3.5729,-3.5789,-3.6028,-3.6537,-3.7045,-3.7584,-5.7765,0.0,-5.6615,-5.604,0.0,-5.4889,-5.4158,-5.3347,-5.3034,-5.1805,-4.9897,-4.9035,-4.8643,-4.859,-4.7728,-4.7022,-4.6499,-4.6473,-4.5947,-4.5192,-4.5111,-4.5323,-4.5584,-4.5297,-4.5323,-4.5558,-4.5009,-4.4591,-4.4198,-4.3154,-4.2112,-4.1285,-4.0211,-3.912,-3.8033,-3.6816,-3.5801,-3.502,-3.5184,-3.5016,-3.4466,-3.4242,-3.2842,-3.0194,0.0,0.0,0.0,0.0,0.0,0.0,0.0,0.0,0.0,0.0,0.0,-2.8461,-2.8176,-2.8276,-2.8888,-2.9441,-3.0174,-3.1006,-3.1541,-3.1356,-3.0195,-3.0911,-3.1647,-3.2209,-3.2275,-3.2817,-3.417,-3.526,-3.6297,-3.7316,-3.9102,-4.0479,-4.1015,-4.1844,-4.2602,-4.311,-4.2761,-4.2342,-4.241,-4.1683,-4.1175,-4.0516,-4.0367,-3.9984,-3.8841,-3.929,-3.9589,-3.8566,-3.8387,-3.8422,-3.8392,-3.7883,-3.7464,-3.7375,-3.6896,-3.6507,-3.6477,-3.6477,-3.6357,-3.6058,-3.5998,-3.5878,-3.5609,-3.5489,-3.5489,-3.5459,-3.522,-3.4951,-3.51,-3.5789,-3.6656,-5.732,-5.6745,-5.6066,-5.5438,-5.4942,-5.4733,-5.3373,-5.1282,0.0,0.0,0.0,-4.8433,-4.8172,-4.8146,-4.7597,-4.7074,-4.6656,-4.6996,-4.6682,-4.5794,-4.5607,-4.5924,-4.6447,-4.5794,-4.5767,-4.629,-4.5741,-4.5428,-4.5245,-4.3755,-4.2971,-4.2788,-4.1668,-4.0744,-4.0058,-3.8491,-3.7629,-3.7434,-3.6333,-3.5743,-3.5771,-3.4892,-3.3496,-3.148,-3.1511,-3.0922,-2.9723,-2.9959,-2.9924,-2.9361,-2.9297,-2.9376,-2.9495,-2.9495,-2.9376,-2.9224,-2.9599,-3.0374,-3.1405,-3.2034,-3.2853,-3.3979,-3.3849,-3.3513,-3.2966,-3.3431,-3.3718,-3.3744,-3.3744,-3.4003,-3.4673,-3.5317,-3.59,-3.6497,-3.7941,-3.9097,-3.953,-4.0371,-4.1326,-4.2227,-4.1599,-4.1145,-4.1482,-4.0397,-3.9254,-3.908,-3.8811,-3.8093,-3.7584,-3.8272,-3.8626,-3.7764,-3.755,-3.7464,-3.7345,-3.6956,-3.6537,-3.6567,-3.5998,-3.5519,-3.5489,-3.5489,-3.5489,-3.5579,-3.5489,-3.5519,-3.5519,-3.5489,-3.5489,-3.5489,-3.4951,-3.4294,-3.3784,-3.4262,-3.516,-5.732,-5.6719,-5.5674,-5.4889,-5.4262,-5.3269,-5.1831,-5.0106,-4.9636,-4.9296,-4.9035,-4.8433,-4.8172,-4.8146,-4.7597,-4.7283,-4.7122,-4.6787,-4.6499,0.0,-4.5846,-4.5924,-4.6421,-4.5375,-4.5166,-4.5663,-4.514,-4.4591,-4.4068,-4.3389,-4.2788,-4.2214,-4.0952,-4.0236,-3.9982,-3.8894,-3.8288,-3.8182,-3.6218,-3.4618,-3.3404,-3.3362,-3.2825,-3.1721,-3.1447,-3.1094,-3.0647,-3.0499,-3.0474,-3.054,-3.054,-3.081,-3.1362,-3.1402,-3.1618,-3.2057,-3.2188,-3.25,-3.3178,-3.3766,-3.4523,-3.5574,-3.4842,-3.4251,-3.4142,-3.4225,-3.4293,-3.4293,-3.4319,-3.4334,-3.4474,-3.521,-3.5954,-3.6579,-3.7489,-3.8291,-3.8858,-3.9272,-3.9565,-3.9808,-3.9721,-3.9499,-3.923,-3.923,-3.8841,-3.8063,-3.7913,-3.7913,-3.7015,-3.7225,-3.7584,-3.7464,-3.7404,-3.7404,-3.7225,-3.6896,-3.6477,-3.6477,-3.5908,-3.5489,-3.5489,-3.5489,-3.5489,-3.5489,-3.5459,-3.5459,-3.5459,-3.5489,-3.54,-3.534,-3.4801,-3.4234,-3.3514,-3.3245,-3.3425,-5.6484,-5.5386,-5.4837,-5.4105,-5.3164,-5.1701,-5.0655,-4.9819,-4.8956,-4.859,-4.8538,-4.7963,-4.7885,-4.812,-4.7597,-4.7153,-4.6865,-4.6917,-4.6761,-4.6473,-4.6212,-4.6395,-4.6839,-4.6081,-4.582,-4.6029,-4.5506,-4.5088,-4.4748,-4.3624,-4.2892,-4.2579,-4.1387,-4.0542,-4.0083,-3.955,-3.8592,-3.7119,-3.5935,-3.5062,-3.4366,-3.4228,-3.3905,-3.3499,-3.3111,-3.2895,-3.2765,-3.2682,-3.2682,-3.2765,-3.2765,-3.289,-3.3204,-3.3204,-3.3198,-3.3221,-3.3456,-3.3744,-3.4005,-3.4554,-3.5234,-3.5992,-3.5338,-3.4894,-3.4894,-3.4894,-3.4999,-3.5286,-3.5312,-3.5312,-3.5312,-3.5431,-3.5603,-3.5911,-3.6661,-3.7138,-3.7297,-3.8051,-3.8542,-3.8606,-3.8434,-3.8332,-3.8392,-3.8063,-3.7674,-3.6985,-3.6956,-3.6596,-3.6058,-3.6207,-3.6387,-3.6357,-3.6387,-3.6387,-3.6357,-3.6178,-3.5968,-3.5938,-3.5699,-3.5519,-3.5489,-3.5489,-3.5489,-3.5459,-3.525,-3.4981,-3.4951,-3.4951,-3.4801,-3.4442,-3.4203,-3.3604,-3.2706,-3.2138,-3.2467,-5.5883,-5.4393,-5.4131,-5.3347,-5.2171,-5.0734,-5.0028,-4.9793,-4.8826,-4.8303,-4.812,-4.7728,-4.778,-4.812,-4.7728,-4.7205,-4.6813,-4.7257,-4.7231,-4.6708,-4.6682,-4.6917,-4.7148,-4.663,-4.6238,-4.6055,-4.5637,-4.5242,-4.4905,-4.3623,-4.2892,-4.2579,-4.1742,-4.1023,-4.0389,-3.9753,-3.8413,-3.6389,-3.5476,-3.5138,-3.533,-3.5378,-3.5321,-3.5009,-3.4745,-3.4528,-3.4424,-3.4397,-3.4397,-3.4397,-3.4397,-3.4397,-3.4397,-3.4397,-3.4214,-3.3875,-3.4162,-3.4528,-3.4789,-3.5208,-3.5783,-3.6436,-3.5757,-3.5391,-3.5626,-3.5547,-3.5574,-3.5887,-3.5966,-3.607,-3.6018,-3.573,-3.5469,-3.5512,-3.5907,-3.6085,-3.5873,-3.6549,-3.7223,-3.7407,-3.7034,-3.693,-3.737,-3.6896,-3.6327,-3.6207,-3.5818,-3.5519,-3.5489,-3.5489,-3.5489,-3.5489,-3.5489,-3.5549,-3.5489,-3.534,-3.528,-3.528,-3.51,-3.504,-3.51,-3.516,-3.528,-3.528,-3.4983,-3.4623,-3.4533,-3.4384,-3.4054,-3.3484,-3.3006,-3.2377,-3.133,-3.1091,-3.1481,-5.6092,-5.4942,-5.387,-5.2772,-5.1622,-5.0943,-5.0342,-4.9819,-4.9244,-4.8669,-4.8198,-4.812,-4.812,-4.8172,-4.812,-4.778,-4.7283,-4.7832,-4.778,-4.7226,-4.7257,-4.7226,-4.7179,-4.6212,-4.5428,-4.5009,-4.4853,-4.433,-4.3493,-4.3127,-4.2449,-4.1585,-4.135,-4.1274,-4.0943,-3.8818,-3.7517,-3.7169,-3.4757,-3.3843,-3.4557,-3.6008,-3.6225,-3.5015,-3.5158,-3.4946,-3.4476,-3.4397,-3.4397,-3.4397,-3.4397,-3.4397,-3.4397,-3.4397,-3.4371,-3.4319,-3.4371,-3.4842,-3.5809,-3.5992,-3.6515,-3.7482,-3.6201,-3.573,-3.6619,-3.6305,-3.5809,-3.56,-3.5835,-3.6175,-3.6096,-3.6044,-3.5966,-3.5913,-3.5676,-3.5388,-3.5326,-3.462,-3.4475,-3.5134,-3.5158,-3.4911,-3.58,-3.5786,-3.5669,-3.5699,-3.5609,-3.5489,-3.5489,-3.5489,-3.5489,-3.5489,-3.5489,-3.5489,-3.54,-3.4951,-3.4653,-3.4563,-3.4114,-3.4083,-3.4352,-3.4203,-3.3993,-3.4891,-3.4861,-3.4444,-3.4294,-3.4054,-3.3395,-3.2647,-3.1779,-3.0672,-2.9983,-2.9924,-3.0492,-5.5125,-5.4001,-5.2825,-5.1648,-5.0603,-5.0002,-4.9636,-4.9374,-4.8799,-4.8407,-4.8198,-4.8172,-4.8172,-4.8172,-4.8172,-4.7885,-4.7362,-4.7571,-4.7545,-4.7278,-4.7278,-4.6939,-4.626,-4.5872,-4.514,-4.4357,-4.4225,-4.399,-4.3493,-4.284,-4.2108,-4.1402,-4.1324,-4.1324,-4.1222,-4.023,-3.9271,-3.8467,-3.7072,-3.6063,-3.5649,-3.5581,-3.5841,-3.6077,-3.5609,-3.5208,-3.492,-3.4607,-3.4397,-3.4397,-3.4397,-3.4397,-3.4397,-3.4397,-3.4397,-3.4424,-3.5051,-3.5757,-3.6567,-3.6645,-3.6985,-3.7848,-3.6593,-3.5992,-3.641,-3.6227,-3.5887,-3.5547,-3.6436,-3.7168,-3.7063,-3.6541,-3.6096,-3.6044,-3.5626,-3.5263,-3.5007,-3.4902,-3.4901,-3.4994,-3.4946,-3.4927,-3.5267,-3.5403,-3.5487,-3.5489,-3.5489,-3.5489,-3.5489,-3.5489,-3.5489,-3.5489,-3.5489,-3.531,-3.4981,-3.4322,-3.3994,-3.3873,-3.3694,-3.3694,-3.3724,-3.3754,-3.3754,-3.4292,-3.4083,-3.3903,-3.3873,-3.3694,-3.3215,-3.2138,-3.0941,-2.9891,-2.9651,-2.9894,-3.0372,-5.4341,-5.306,-5.1858,-5.0812,-4.9845,-4.9139,-4.8826,-4.8773,-4.8224,-4.7937,-4.7963,-4.812,-4.8172,-4.8172,-4.8172,-4.7806,-4.7205,-4.7414,-4.7388,-4.7179,-4.7414,-4.697,-4.595,-4.5846,-4.5166,-4.4068,-4.4068,-4.3964,-4.3572,-4.25,-4.1716,-4.135,-4.1324,-4.1324,-4.1248,-4.0967,-4.0256,-3.9321,-3.8514,-3.7639,-3.6723,-3.5908,-3.5877,-3.6554,-3.6113,-3.5626,-3.5286,-3.4868,-3.4554,-3.4424,-3.4397,-3.4397,-3.4397,-3.4397,-3.4476,-3.4711,-3.5704,-3.6541,-3.6985,-3.7142,-3.7429,-3.7743,-3.6802,-3.6096,-3.607,-3.5966,-3.5704,-3.5469,-3.6593,-3.7325,-3.7299,-3.6619,-3.6149,-3.607,-3.5626,-3.5189,-3.5035,-3.5211,-3.5268,-3.5283,-3.5468,-3.5508,-3.5605,-3.5696,-3.5789,-3.5549,-3.5489,-3.5489,-3.5489,-3.5489,-3.5489,-3.5489,-3.534,-3.504,-3.4563,-3.3994,-3.3544,-3.3185,-3.3095,-3.2916,-3.3095,-3.3125,-3.3335,-3.3574,-3.3365,-3.3215,-3.3155,-3.3066,-3.2467,-3.115,-3.0133,-2.9651,-2.9621,-2.9983,-3.0372,-5.4105,-5.2433,-5.1309,-5.0394,-4.9766,-4.8695,-4.8198,-4.8146,-4.7623,-4.7388,-4.7435,-4.7963,-4.8172,-4.8172,-4.8172,-4.7597,-4.6813,-4.7623,-4.7519,-4.6787,-4.7623,-4.7519,-4.6499,-4.6421,-4.5532,-4.4068,-4.433,-4.4068,-4.3075,-4.1951,-4.135,-4.1324,-4.1324,-4.1324,-4.1145,-4.018,-3.9447,-3.9346,-3.8241,-3.7493,-3.7526,-3.747,-3.6912,-3.6253,-3.6548,-3.6384,-3.5495,-3.5286,-3.4999,-3.4424,-3.4397,-3.4397,-3.4397,-3.4424,-3.4685,-3.5312,-3.6332,-3.6959,-3.709,-3.7534,-3.7848,-3.7743,-3.6802,-3.6096,-3.607,-3.56,-3.5286,-3.5286,-3.5783,-3.6201,-3.6201,-3.6096,-3.6062,-3.6079,-3.5574,-3.525,-3.5342,-3.5022,-3.521,-3.5741,-3.6069,-3.6237,-3.6395,-3.6443,-3.6148,-3.5759,-3.5549,-3.5519,-3.5489,-3.5489,-3.5489,-3.54,-3.504,-3.4563,-3.4444,-3.3964,-3.3305,-3.2976,-3.2647,-3.1989,-3.2049,-3.2228,-3.2647,-3.2886,-3.2826,-3.2706,-3.2467,-3.1869,-3.1002,-3.0193,-2.9864,-2.9562,-2.9774,-2.9681,-3.0103,-5.2772,-5.0786,-5.0028,-4.9139,-4.8224,-4.7806,-4.744,-4.7127,-4.7283,-4.7278,-4.7383,-4.7937,-4.8172,-4.8172,-4.8172,-4.7963,-4.7597,-4.7649,-4.7414,-4.7074,-4.7466,-4.7048,-4.6029,-4.5924,-4.5454,-4.4539,-4.4251,-4.3781,-4.2971,-4.1873,-4.1324,-4.1324,-4.1324,-4.1324,-4.1222,-4.0865,-4.0585,-4.0434,-3.9271,-3.8662,-3.8759,-3.8038,-3.7402,-3.7175,-3.7059,-3.6802,-3.641,-3.5704,-3.5208,-3.4972,-3.4607,-3.4397,-3.4424,-3.4763,-3.5417,-3.6279,-3.6776,-3.7168,-3.7534,-3.7769,-3.79,-3.7821,-3.6776,-3.6096,-3.594,-3.5286,-3.4737,-3.4763,-3.4868,-3.4999,-3.5077,-3.5338,-3.5789,-3.6109,-3.5389,-3.5171,-3.5805,-3.5319,-3.5036,-3.6241,-3.6736,-3.6921,-3.7015,-3.7075,-3.6836,-3.6267,-3.6118,-3.5938,-3.5609,-3.5489,-3.5489,-3.5459,-3.528,-3.4981,-3.4503,-3.3933,-3.3365,-3.3095,-3.2766,-3.2467,-3.2407,-3.1989,-3.2198,-3.2348,-3.2288,-3.2437,-3.2258,-3.1899,-3.0793,-3.0283,-2.9924,-2.9834,-3.0103,-3.0013,-3.0492,-5.1518,-4.9949,-4.9322,-4.8407,-4.7304,-4.7127,-4.6734,-4.629,-4.6604,-4.6865,-4.7127,-4.7649,-4.8015,-4.8146,-4.8172,-4.8172,-4.8146,-4.778,-4.7414,-4.71,-4.72,-4.6734,-4.5767,-4.5611,-4.5323,-4.4722,-4.4147,-4.3572,-4.2971,-4.2056,-4.1507,-4.1324,-4.1324,-4.1324,-4.1324,-4.1324,-4.1324,-4.1069,-4.0408,-3.9943,-3.9741,-3.8807,-3.8192,-3.8069,-3.7586,-3.7194,-3.7011,-3.6253,-3.573,-3.5521,-3.4999,-3.4685,-3.4737,-3.526,-3.5992,-3.6881,-3.7194,-3.7456,-3.7821,-3.79,-3.79,-3.7848,-3.6828,-3.6096,-3.6018,-3.5051,-3.4502,-3.4397,-3.4397,-3.4397,-3.4476,-3.4789,-3.5226,-3.5675,-3.5189,-3.5277,-3.6306,-3.6016,-3.6385,-3.7415,-3.7581,-3.7637,-3.7709,-3.7729,-3.7434,-3.6866,-3.6626,-3.6267,-3.5938,-3.5609,-3.5489,-3.5489,-3.5489,-3.528,-3.5011,-3.4592,-3.3873,-3.3514,-3.3245,-3.2946,-3.2677,-3.2198,-3.1839,-3.1869,-3.1929,-3.2108,-3.2019,-3.175,-3.1271,-3.0672,-3.0313,-3.0163,-3.0313,-3.0432,-3.0853,-5.0472,-4.9845,-4.9296,-4.8355,-4.7257,-4.6761,-4.6186,-4.5689,-4.5715,-4.6081,-4.663,-4.7127,-4.7702,-4.8094,-4.8172,-4.8172,-4.8094,-4.8094,-4.7519,-4.6682,-4.7048,-4.6682,-4.5663,-4.5611,-4.5297,-4.4722,-4.4147,-4.3598,-4.3075,-4.2474,-4.1925,-4.1455,-4.1402,-4.1428,-4.135,-4.1402,-4.1376,-4.1326,-4.1224,-4.0961,-4.0409,-3.9711,-3.9138,-3.8684,-3.8135,-3.7586,-3.709,-3.6959,-3.6619,-3.6096,-3.5547,-3.5312,-3.5338,-3.5757,-3.6384,-3.7011,-3.756,-3.7848,-3.79,-3.79,-3.79,-3.7743,-3.6802,-3.6096,-3.5966,-3.5077,-3.4397,-3.4397,-3.4397,-3.4397,-3.4397,-3.445,-3.4559,-3.4522,-3.5155,-3.5615,-3.6056,-3.7222,-3.8427,-3.887,-3.8561,-3.8319,-3.8353,-3.8286,-3.7983,-3.749,-3.6977,-3.6559,-3.6324,-3.5938,-3.5609,-3.5489,-3.5489,-3.54,-3.5429,-3.54,-3.4622,-3.3963,-3.3724,-3.3484,-3.3275,-3.2886,-3.2318,-3.2198,-3.175,-3.1869,-3.1809,-3.154,-3.1361,-3.0853,-3.0642,-3.0522,-3.0672,-3.0823,-3.0972,-5.0054,-4.9793,-4.8852,-4.7806,-4.6787,-4.6552,-4.5924,-4.5088,-4.5428,-4.595,-4.6499,-4.7074,-4.7649,-4.8068,-4.8172,-4.7989,-4.7649,-4.7937,-4.7571,-4.6656,-4.6682,-4.6369,-4.5741,-4.5611,-4.5268,-4.4722,-4.4147,-4.3834,-4.3546,-4.3023,-4.2474,-4.2004,-4.1899,-4.1899,-4.1899,-4.1899,-4.1899,-4.195,-4.1899,-4.1428,-4.0488,-3.9886,-3.9337,-3.8736,-3.8187,-3.7795,-3.7639,-3.722,-3.6907,-3.6724,-3.5809,-3.5469,-3.5809,-3.6018,-3.6567,-3.7482,-3.7795,-3.79,-3.79,-3.79,-3.79,-3.7691,-3.6802,-3.6201,-3.5992,-3.5051,-3.4424,-3.4397,-3.4397,-3.4397,-3.4397,-3.4397,-3.4605,-3.5237,-3.5534,-3.6016,-3.6621,-3.7501,-3.8202,-3.8538,-3.8826,-3.9,-3.8924,-3.8727,-3.8286,-3.8037,-3.7405,-3.6939,-3.6552,-3.6354,-3.5968,-3.5639,-3.5579,-3.5519,-3.5489,-3.5489,-3.51,-3.4622,-3.4382,-3.4173,-3.3963,-3.3335,-3.2856,-3.2258,-3.1809,-3.157,-3.1511,-3.1421,-3.1271,-3.1271,-3.1122,-3.1122,-3.1152,-3.1241,-3.1301,-4.9766,-4.9479,-4.8564,-4.7519,-4.6525,-4.6499,-4.582,-4.4879,-4.5114,-4.5611,-4.6186,-4.6761,-4.7336,-4.7832,-4.8094,-4.7989,-4.7675,-4.7832,-4.7362,-4.6604,-4.6499,-4.6081,-4.5401,-4.5297,-4.5085,-4.4748,-4.4382,-4.4068,-4.3912,-4.3493,-4.3049,-4.2579,-4.25,-4.2474,-4.2474,-4.25,-4.2474,-4.2474,-4.2316,-4.1821,-4.1063,-4.0305,-3.973,-3.9311,-3.8815,-3.8449,-3.8214,-3.7821,-3.7534,-3.722,-3.6436,-3.6149,-3.641,-3.6462,-3.6881,-3.7639,-3.79,-3.79,-3.79,-3.79,-3.79,-3.7691,-3.6802,-3.6123,-3.5913,-3.5051,-3.4424,-3.4397,-3.4397,-3.4397,-3.4397,-3.4397,-3.4688,-3.5128,-3.5816,-3.6582,-3.7577,-3.8023,-3.8352,-3.8612,-3.8826,-3.9083,-3.9156,-3.9053,-3.8502,-3.8345,-3.7942,-3.7389,-3.7001,-3.6816,-3.644,-3.6088,-3.5998,-3.5818,-3.5549,-3.5489,-3.5489,-3.528,-3.507,-3.4921,-3.4771,-3.3724,-3.2976,-3.2168,-3.163,-3.154,-3.1511,-3.1511,-3.1421,-3.1481,-3.1511,-3.1421,-3.1361,-3.1391,-3.1451,-4.9584,-4.9061,-4.846,-4.7519,-4.6552,-4.6499,-4.582,-4.4853,-4.472,-4.5085,-4.5715,-4.6212,-4.6787,-4.7362,-4.7858,-4.7989,-4.8041,-4.7702,-4.7179,-4.6656,-4.6421,-4.5924,-4.4957,-4.4798,-4.4746,-4.4694,-4.4696,-4.4434,-4.4016,-4.3938,-4.3624,-4.3127,-4.3075,-4.3075,-4.3075,-4.3075,-4.3075,-4.2997,-4.2605,-4.2317,-4.2185,-4.1141,-4.0488,-4.0409,-3.9886,-3.9337,-3.8841,-3.8606,-3.8344,-3.7848,-3.7142,-3.6854,-3.6959,-3.6985,-3.7246,-3.7848,-3.79,-3.79,-3.79,-3.79,-3.79,-3.7795,-3.6933,-3.6123,-3.5992,-3.5208,-3.4502,-3.4424,-3.4397,-3.4397,-3.4397,-3.4397,-3.4481,-3.4703,-3.5909,-3.7396,-3.898,-3.8723,-3.8716,-3.9046,-3.8789,-3.8538,-3.9301,-3.9228,-3.8841,-3.8576,-3.8339,-3.7876,-3.7594,-3.7332,-3.7097,-3.6746,-3.6327,-3.5968,-3.5639,-3.5489,-3.5489,-3.5459,-3.528,-3.519,-3.4891,-3.3844,-3.2856,-3.2049,-3.16,-3.154,-3.1511,-3.1511,-3.1511,-3.1511,-3.1511,-3.1511,-3.1511,-3.1511,-3.1511,-4.9819,-4.9584,-4.859,-4.7519,-4.6552,-4.6499,-4.582,-4.4746,-4.4694,-4.5007,-4.5558,-4.5767,-4.6395,-4.7283,-4.7466,-4.7545,-4.7623,-4.7832,-4.7388,-4.6604,-4.6499,-4.582,-4.4931,-4.4694,-4.4694,-4.4694,-4.4694,-4.4643,-4.4513,-4.446,-4.4199,-4.3676,-4.365,-4.365,-4.365,-4.365,-4.365,-4.365,-4.3572,-4.3154,-4.2735,-4.2108,-4.1507,-4.1036,-4.054,-3.9965,-3.939,-3.8945,-3.824,-3.7325,-3.7116,-3.7011,-3.7037,-3.7037,-3.7299,-3.7769,-3.79,-3.79,-3.79,-3.79,-3.79,-3.7848,-3.7168,-3.6593,-3.6123,-3.5469,-3.4894,-3.4554,-3.4397,-3.4397,-3.4397,-3.4397,-3.4647,-3.5359,-3.6267,-3.7548,-3.887,-3.9265,-3.9192,-3.9337,-3.9156,-3.9192,-3.9192,-3.901,-3.8723,-3.8804,-3.8583,-3.8245,-3.7935,-3.7908,-3.7679,-3.6892,-3.642,-3.6028,-3.5759,-3.5579,-3.5489,-3.5489,-3.534,-3.513,-3.4532,-3.3544,-3.2617,-3.172,-3.157,-3.1511,-3.1511,-3.1511,-3.1511,-3.1511,-3.1511,-3.1511,-3.1511,-3.1511,-3.1511,-4.9766,-4.9479,-4.8564,-4.7519,-4.6552,-4.6499,-4.5794,-4.4879,-4.4694,-4.485,-4.5216,-4.5532,-4.5947,-4.663,-4.71,-4.7278,-4.7388,-4.7675,-4.744,-4.6891,-4.6342,-4.5584,-4.485,-4.4694,-4.4694,-4.4694,-4.4694,-4.4694,-4.4668,-4.4694,-4.4539,-4.4304,-4.4225,-4.4225,-4.4225,-4.4225,-4.4225,-4.4199,-4.4016,-4.3676,-4.3363,-4.2814,-4.2422,-4.1977,-4.1455,-4.0801,-4.0017,-3.9155,-3.837,-3.7821,-3.7534,-3.7377,-3.7377,-3.7377,-3.756,-3.79,-3.79,-3.79,-3.79,-3.79,-3.79,-3.7795,-3.7351,-3.675,-3.6175,-3.56,-3.5051,-3.4502,-3.4424,-3.4397,-3.4397,-3.4397,-3.4786,-3.5602,-3.6425,-3.7434,-3.876,-3.9156,-3.9337,-3.9403,-3.9403,-3.9403,-3.9403,-3.8973,-3.8826,-3.8789,-3.8464,-3.8304,-3.8216,-3.8279,-3.808,-3.7212,-3.6656,-3.6387,-3.5848,-3.5549,-3.5489,-3.5489,-3.513,-3.4983,-3.4502,-3.3544,-3.2736,-3.2019,-3.172,-3.1511,-3.157,-3.157,-3.1511,-3.1511,-3.1511,-3.1511,-3.1511,-3.163,-3.163,-4.9662,-4.9113,-4.8538,-4.7571,-4.6578,-4.6473,-4.5794,-4.4824,-4.4694,-4.4748,-4.4879,-4.5323,-4.5584,-4.5634,-4.6547,-4.7122,-4.7278,-4.7414,-4.733,-4.6913,-4.6342,-4.5506,-4.4929,-4.472,-4.4694,-4.4694,-4.4694,-4.4694,-4.4694,-4.4694,-4.4694,-4.4643,-4.467,-4.4722,-4.4643,-4.467,-4.4668,-4.4591,-4.4251,-4.4068,-4.3912,-4.352,-4.3232,-4.2944,-4.2291,-4.1585,-4.0644,-3.9651,-3.8867,-3.8789,-3.824,-3.7874,-3.7848,-3.7874,-3.79,-3.7952,-3.8004,-3.8057,-3.8004,-3.8057,-3.8031,-3.7952,-3.7482,-3.6828,-3.6332,-3.5783,-3.5234,-3.4659,-3.445,-3.4397,-3.4397,-3.4397,-3.4688,-3.544,-3.6267,-3.7204,-3.7985,-3.8833,-3.9403,-3.9403,-3.9403,-3.9403,-3.9403,-3.9337,-3.9156,-3.8973,-3.8686,-3.8672,-3.8656,-3.867,-3.8234,-3.746,-3.7045,-3.6806,-3.6148,-3.5489,-3.5489,-3.5459,-3.4953,-3.4683,-3.4651,-3.3903,-3.3125,-3.2497,-3.2198,-3.1959,-3.178,-3.172,-3.16,-3.1511,-3.1511,-3.1511,-3.1511,-3.178,-3.1869,-5.0263,-4.9662,-4.9113,-4.7963,-4.663,-4.6473,-4.582,-4.472,-4.4694,-4.4694,-4.472,-4.4879,-4.5192,-4.5611,-4.5895,-4.6447,-4.7148,-4.7226,-4.7278,-4.7174,-4.6656,-4.6003,-4.5428,-4.5009,-4.4748,-4.4748,-4.4694,-4.4694,-4.4694,-4.4694,-4.4694,-4.4694,-4.4694,-4.4694,-4.4694,-4.4694,-4.4694,-4.4668,-4.4591,-4.4539,-4.4539,-4.4356,-4.4042,-4.3572,-4.2735,-4.2108,-4.1664,-4.0671,-3.986,-3.9285,-3.8527,-3.7952,-3.79,-3.79,-3.79,-3.7978,-3.8318,-3.8527,-3.8527,-3.8449,-3.8501,-3.837,-3.7926,-3.7456,-3.6854,-3.6227,-3.5678,-3.5129,-3.4685,-3.4424,-3.4397,-3.4397,-3.4605,-3.5073,-3.6068,-3.7011,-3.7396,-3.8509,-3.9301,-3.9337,-3.9337,-3.9373,-3.9337,-3.9301,-3.9192,-3.9119,-3.9083,-3.9119,-3.9083,-3.898,-3.8288,-3.751,-3.7315,-3.6956,-3.6058,-3.5489,-3.5489,-3.5489,-3.5011,-3.4743,-3.4711,-3.4442,-3.3724,-3.3155,-3.2736,-3.2467,-3.2288,-3.1839,-3.169,-3.16,-3.16,-3.163,-3.178,-3.1989,-3.2019,-5.0603,-5.0237,-4.9427,-4.8381,-4.7283,-4.6708,-4.5976,-4.5192,-4.4826,-4.4694,-4.4694,-4.4694,-4.485,-4.5218,-4.5451,-4.5973,-4.6552,-4.7127,-4.7492,-4.7545,-4.7153,-4.6578,-4.6003,-4.5428,-4.5036,-4.4746,-4.4694,-4.4694,-4.4694,-4.4694,-4.4694,-4.4694,-4.4694,-4.4694,-4.4694,-4.4694,-4.485,-4.5007,-4.4798,-4.4798,-4.5088,-4.4798,-4.4224,-4.352,-4.2631,-4.2056,-4.1664,-4.0906,-4.0331,-3.9782,-3.8919,-3.8161,-3.7952,-3.79,-3.79,-3.7978,-3.8397,-3.8527,-3.8423,-3.8553,-3.8579,-3.837,-3.8057,-3.7612,-3.7063,-3.6436,-3.5887,-3.5312,-3.4789,-3.4397,-3.4397,-3.4397,-3.4522,-3.5155,-3.6108,-3.7011,-3.7615,-3.8649,-3.9192,-3.8973,-3.8789,-3.8797,-3.8833,-3.9046,-3.9228,-3.9156,-3.8686,-3.8723,-3.9083,-3.8891,-3.8246,-3.7674,-3.7485,-3.6956,-3.5968,-3.5489,-3.5489,-3.5459,-3.531,-3.519,-3.519,-3.4861,-3.4412,-3.3903,-3.3455,-3.3125,-3.2886,-3.2348,-3.2108,-3.2378,-3.2437,-3.2138,-3.2108,-3.2497,-3.2258,-5.0812,-5.0577,-4.961,-4.8773,-4.7937,-4.6917,-4.6133,-4.5558,-4.4929,-4.4694,-4.4694,-4.4694,-4.472,-4.4853,-4.5245,-4.5451,-4.5869,-4.6656,-4.7336,-4.7728,-4.7257,-4.6787,-4.6316,-4.5794,-4.519,-4.4746,-4.4694,-4.4694,-4.4694,-4.4694,-4.4694,-4.4694,-4.4694,-4.4694,-4.4694,-4.4824,-4.5059,-4.5373,-4.5297,-4.5218,-4.5401,-4.4955,-4.4199,-4.318,-4.25,-4.2004,-4.1585,-4.101,-4.054,-4.0383,-3.9494,-3.871,-3.8161,-3.7926,-3.79,-3.7926,-3.8527,-3.8762,-3.8658,-3.8762,-3.8867,-3.8214,-3.8083,-3.7769,-3.722,-3.6541,-3.5966,-3.5417,-3.4894,-3.4397,-3.4397,-3.4397,-3.4744,-3.5399,-3.6227,-3.7165,-3.7947,-3.876,-3.9046,-3.8723,-3.8789,-3.887,-3.8723,-3.8826,-3.901,-3.9119,-3.8649,-3.8464,-3.8833,-3.8905,-3.8377,-3.7966,-3.7844,-3.7255,-3.6237,-3.5549,-3.5519,-3.5519,-3.5459,-3.5459,-3.5489,-3.525,-3.4861,-3.4622,-3.4203,-3.3873,-3.3484,-3.3036,-3.3006,-3.3335,-3.2946,-3.2318,-3.2467,-3.3006,-3.2617,-5.0917,-5.0028,-4.9845,-4.8904,-4.7492,-4.6761,-4.6159,-4.5529,-4.4983,-4.4694,-4.4694,-4.4694,-4.4694,-4.472,-4.4746,-4.5085,-4.5715,-4.6342,-4.6917,-4.731,-4.6944,-4.6552,-4.6316,-4.5872,-4.5242,-4.4824,-4.472,-4.48,-4.4746,-4.4694,-4.4798,-4.472,-4.4694,-4.4694,-4.4879,-4.5192,-4.548,-4.5767,-4.5872,-4.5924,-4.5637,-4.4905,-4.4068,-4.2997,-4.2369,-4.2082,-4.1925,-4.1455,-4.0932,-4.0461,-4.0226,-3.9547,-3.8815,-3.8266,-3.8031,-3.8161,-3.8867,-3.9259,-3.9233,-3.9703,-3.9782,-3.939,-3.8815,-3.8292,-3.7639,-3.6776,-3.6149,-3.5704,-3.5051,-3.445,-3.4397,-3.4476,-3.4439,-3.4991,-3.5949,-3.6933,-3.7424,-3.8323,-3.9192,-3.89,-3.8943,-3.898,-3.876,-3.8716,-3.8973,-3.9192,-3.9083,-3.8936,-3.9119,-3.9145,-3.8913,-3.856,-3.8332,-3.7494,-3.6596,-3.5938,-3.5579,-3.5609,-3.5579,-3.5459,-3.5489,-3.5489,-3.528,-3.5011,-3.4771,-3.4442,-3.4053,-3.3694,-3.3425,-3.3395,-3.2916,-3.2378,-3.2766,-3.3155,-3.3185,-5.0681,-4.9871,-4.961,-4.8826,-4.7728,-4.6839,-4.6159,-4.5529,-4.5009,-4.4694,-4.4694,-4.4694,-4.4694,-4.4694,-4.4694,-4.5062,-4.5584,-4.5872,-4.6369,-4.6708,-4.6604,-4.6264,-4.6107,-4.5715,-4.5297,-4.4929,-4.5009,-4.5166,-4.5192,-4.5164,-4.5138,-4.5114,-4.4931,-4.4694,-4.4824,-4.5297,-4.5767,-4.6055,-4.6316,-4.6342,-4.5872,-4.4748,-4.3441,-4.2683,-4.2108,-4.1899,-4.203,-4.1611,-4.135,-4.1219,-4.0749,-4.0174,-3.9625,-3.9102,-3.8632,-3.8553,-3.9155,-3.9625,-3.9703,-4.0069,-3.9991,-3.9207,-3.8867,-3.8475,-3.7874,-3.7116,-3.6358,-3.5783,-3.5704,-3.4999,-3.4502,-3.4659,-3.4895,-3.5249,-3.6148,-3.6738,-3.7127,-3.8069,-3.8546,-3.8797,-3.8612,-3.8538,-3.8612,-3.8686,-3.8973,-3.9192,-3.9337,-3.9403,-3.9403,-3.9284,-3.9134,-3.8715,-3.8357,-3.7724,-3.6943,-3.6343,-3.5875,-3.5848,-3.5729,-3.5639,-3.5489,-3.5489,-3.5489,-3.537,-3.513,-3.4891,-3.4771,-3.4472,-3.3993,-3.3574,-3.3514,-3.3425,-3.3245,-3.3245,-3.3395,-5.0185,-4.9505,-4.9087,-4.8486,-4.7728,-4.6734,-4.6055,-4.5558,-4.4929,-4.4694,-4.4694,-4.4694,-4.4694,-4.4694,-4.472,-4.4929,-4.5399,-4.5399,-4.5767,-4.6212,-4.6264,-4.6003,-4.5741,-4.5503,-4.5268,-4.4905,-4.5297,-4.5611,-4.5584,-4.5715,-4.5741,-4.5506,-4.5033,-4.4746,-4.4824,-4.5323,-4.5898,-4.6316,-4.6473,-4.6421,-4.5532,-4.4121,-4.2657,-4.2056,-4.1559,-4.1559,-4.1821,-4.1742,-4.1742,-4.1716,-4.135,-4.0749,-4.054,-4.0069,-3.9573,-3.9233,-3.9547,-3.9703,-3.9913,-4.0331,-4.0278,-3.9442,-3.9155,-3.8736,-3.8057,-3.7403,-3.6619,-3.5913,-3.56,-3.5521,-3.4842,-3.4894,-3.5083,-3.5397,-3.5976,-3.666,-3.6777,-3.7309,-3.7985,-3.8098,-3.8023,-3.8098,-3.8277,-3.8789,-3.9083,-3.8936,-3.9083,-3.9403,-3.9403,-3.9403,-3.9194,-3.8644,-3.8227,-3.7769,-3.7223,-3.6734,-3.6365,-3.6237,-3.6058,-3.5848,-3.5669,-3.5489,-3.5489,-3.5489,-3.5459,-3.525,-3.522,-3.51,-3.4592,-3.4322,-3.4442,-3.4173,-3.3604,-3.3694,-3.3993,-4.9374,-4.8381,-4.8303,-4.7675,-4.6682,-4.6029,-4.5715,-4.5477,-4.4903,-4.4694,-4.4694,-4.4694,-4.4694,-4.4694,-4.4694,-4.472,-4.4798,-4.4903,-4.5218,-4.5663,-4.5715,-4.5663,-4.5611,-4.5611,-4.519,-4.4905,-4.5294,-4.5529,-4.5767,-4.6133,-4.6081,-4.566,-4.5477,-4.519,-4.4746,-4.5323,-4.5898,-4.6369,-4.6499,-4.582,-4.4487,-4.352,-4.2579,-4.1742,-4.1376,-4.1455,-4.1716,-4.1873,-4.2159,-4.2264,-4.2159,-4.169,-4.1219,-4.0595,-4.0357,-4.0252,-4.0305,-4.0331,-4.0435,-4.0775,-4.0827,-4.0148,-4.0069,-3.9599,-3.8736,-3.7769,-3.709,-3.6854,-3.6096,-3.5469,-3.5103,-3.4789,-3.4638,-3.488,-3.5494,-3.5816,-3.5976,-3.6503,-3.7193,-3.7501,-3.7424,-3.7758,-3.7985,-3.8612,-3.9119,-3.8936,-3.887,-3.9192,-3.9403,-3.9403,-3.9156,-3.8631,-3.8256,-3.783,-3.7571,-3.7081,-3.6941,-3.6738,-3.6387,-3.6118,-3.5878,-3.5669,-3.5489,-3.5489,-3.5489,-3.5489,-3.54,-3.525,-3.5011,-3.4831,-3.4713,-3.4203,-3.3634,-3.3993,-3.4562,-4.8146,-4.7675,-4.7362,-4.6761,-4.6003,-4.5715,-4.5373,-4.5059,-4.4853,-4.4694,-4.4694,-4.4694,-4.4694,-4.4694,-4.4694,-4.4694,-4.4694,-4.4694,-4.4798,-4.5088,-4.5085,-4.5085,-4.5059,-4.5059,-4.485,-4.4929,-4.5323,-4.5872,-4.6081,-4.6264,-4.629,-4.6107,-4.5767,-4.5242,-4.4772,-4.5323,-4.5898,-4.6395,-4.663,-4.6055,-4.4696,-4.3755,-4.2814,-4.1428,-4.135,-4.1638,-4.2082,-4.2108,-4.263,-4.2892,-4.2892,-4.2552,-4.2317,-4.1979,-4.1794,-4.1402,-4.1428,-4.1272,-4.1036,-4.1219,-4.0984,-4.0618,-4.0409,-4.0017,-3.9233,-3.8501,-3.7795,-3.7508,-3.6776,-3.607,-3.5495,-3.5077,-3.4737,-3.4805,-3.5301,-3.5153,-3.5399,-3.5816,-3.6334,-3.6582,-3.6933,-3.7309,-3.772,-3.8277,-3.8863,-3.9046,-3.901,-3.9265,-3.9403,-3.9403,-3.9046,-3.8554,-3.8267,-3.7981,-3.7755,-3.7463,-3.7535,-3.7312,-3.6716,-3.6447,-3.6148,-3.5938,-3.5729,-3.5549,-3.5519,-3.5519,-3.5489,-3.54,-3.519,-3.5011,-3.4833,-3.4472,-3.4233,-3.4592,-3.504,-4.6861,-4.6808,-4.6447,-4.5924,-4.5346,-4.5346,-4.5085,-4.472,-4.4694,-4.4694,-4.4694,-4.4694,-4.4694,-4.4694,-4.4694,-4.4694,-4.4694,-4.4694,-4.4694,-4.4694,-4.4694,-4.472,-4.4746,-4.472,-4.472,-4.4694,-4.5088,-4.5611,-4.6081,-4.6395,-4.6473,-4.6473,-4.6107,-4.5454,-4.4981,-4.5085,-4.5611,-4.6186,-4.6734,-4.6238,-4.5114,-4.4279,-4.3127,-4.2134,-4.1611,-4.1768,-4.2579,-4.2631,-4.2944,-4.3493,-4.3441,-4.3206,-4.3154,-4.2892,-4.25,-4.2134,-4.2028,-4.1873,-4.1611,-4.1533,-4.1272,-4.1036,-4.0853,-4.0827,-4.0383,-3.9625,-3.8919,-3.8449,-3.7612,-3.675,-3.5992,-3.5652,-3.5338,-3.5273,-3.5493,-3.5167,-3.4925,-3.5463,-3.5818,-3.6096,-3.6492,-3.7,-3.7386,-3.791,-3.8427,-3.8943,-3.9192,-3.9337,-3.9373,-3.9337,-3.9156,-3.8686,-3.7927,-3.7916,-3.8274,-3.8113,-3.8132,-3.789,-3.7302,-3.6896,-3.6686,-3.6297,-3.5998,-3.5818,-3.5639,-3.5519,-3.5489,-3.5429,-3.54,-3.525,-3.513,-3.507,-3.507,-3.537,-3.5609,-4.5686,-4.5741,-4.5689,-4.5349,-4.4772,-4.4746,-4.472,-4.4694,-4.4694,-4.4694,-4.4694,-4.4694,-4.4694,-4.4694,-4.4694,-4.4694,-4.4694,-4.4694,-4.4694,-4.4694,-4.4694,-4.4694,-4.4694,-4.4694,-4.4694,-4.4694,-4.4905,-4.5218,-4.5689,-4.6186,-4.6369,-4.6447,-4.6395,-4.5689,-4.5166,-4.5062,-4.5323,-4.5872,-4.6447,-4.6369,-4.5428,-4.4591,-4.3624,-4.284,-4.1977,-4.1611,-4.229,-4.2709,-4.3258,-4.3938,-4.3885,-4.3807,-4.3755,-4.3493,-4.3049,-4.2682,-4.2499,-4.2343,-4.216,-4.1925,-4.2054,-4.2054,-4.1977,-4.1873,-4.1664,-4.0827,-4.0122,-3.9442,-3.8501,-3.7665,-3.6933,-3.6436,-3.6149,-3.5974,-3.5963,-3.5736,-3.5424,-3.5204,-3.5523,-3.5656,-3.6136,-3.6844,-3.7606,-3.8202,-3.8501,-3.898,-3.9228,-3.9403,-3.9301,-3.9265,-3.9228,-3.876,-3.7663,-3.7738,-3.8767,-3.87,-3.8135,-3.8197,-3.8028,-3.7674,-3.7404,-3.6926,-3.6207,-3.6118,-3.5968,-3.5729,-3.5549,-3.5639,-3.5669,-3.5549,-3.5429,-3.537,-3.5459,-3.5699,-3.6028,-4.5346,-4.5088,-4.5088,-4.4931,-4.4694,-4.4694,-4.4694,-4.4694,-4.4694,-4.4694,-4.4694,-4.4694,-4.4694,-4.4694,-4.4694,-4.4694,-4.4694,-4.4694,-4.4694,-4.4694,-4.4694,-4.4694,-4.4694,-4.4694,-4.4694,-4.4694,-4.4694,-4.4981,-4.5637,-4.5898,-4.5924,-4.6107,-4.6578,-4.6212,-4.5637,-4.5166,-4.5375,-4.5741,-4.6369,-4.6495,-4.5689,-4.5271,-4.4513,-4.352,-4.2866,-4.2709,-4.318,-4.3415,-4.3859,-4.4225,-4.4356,-4.4408,-4.4408,-4.4121,-4.3755,-4.3258,-4.318,-4.2997,-4.2605,-4.2213,-4.1794,-4.2264,-4.2448,-4.2709,-4.2657,-4.1664,-4.1036,-4.0278,-3.9311,-3.8423,-3.8083,-3.756,-3.7142,-3.6802,-3.6567,-3.6384,-3.6088,-3.5869,-3.5685,-3.6007,-3.6488,-3.7039,-3.7872,-3.8649,-3.8833,-3.9083,-3.9228,-3.9373,-3.9301,-3.9156,-3.9119,-3.8797,-3.7729,-3.7615,-3.8612,-3.8405,-3.7982,-3.8348,-3.8661,-3.8362,-3.7973,-3.6985,-3.6417,-3.6357,-3.6267,-3.5998,-3.5878,-3.5998,-3.5878,-3.5609,-3.5609,-3.5669,-3.5818,-3.6028,-3.6477,-4.5114,-4.4694,-4.4694,-4.4694,-4.4694,-4.4694,-4.4694,-4.4694,-4.4694,-4.4694,-4.4694,-4.4694,-4.4694,-4.4694,-4.4694,-4.4694,-4.4694,-4.4694,-4.4694,-4.4694,-4.4694,-4.4694,-4.4694,-4.4694,-4.4694,-4.4694,-4.4694,-4.4955,-4.5297,-4.5532,-4.5607,-4.5976,-4.6473,-4.6212,-4.5532,-4.5375,-4.5399,-4.5764,-4.613,-4.6756,-4.6025,-4.566,-4.5558,-4.4513,-4.3807,-4.3546,-4.3807,-4.3964,-4.4095,-4.4539,-4.4853,-4.4983,-4.5009,-4.4931,-4.467,-4.433,-4.3964,-4.3755,-4.3363,-4.2788,-4.2369,-4.3101,-4.3363,-4.3441,-4.3101,-4.25,-4.2108,-4.1141,-4.0122,-3.9364,-3.9155,-3.8579,-3.8344,-3.8083,-3.7691,-3.7429,-3.7077,-3.6744,-3.6513,-3.6468,-3.7075,-3.7882,-3.8341,-3.9143,-3.9194,-3.9281,-3.9265,-3.9403,-3.9337,-3.9192,-3.8973,-3.8538,-3.7729,-3.7947,-3.8389,-3.7956,-3.7748,-3.8789,-3.902,-3.8901,-3.8392,-3.7434,-3.7015,-3.7225,-3.6985,-3.6387,-3.6118,-3.6028,-3.5848,-3.5579,-3.5759,-3.6058,-3.6237,-3.6507,-3.7045,-4.472,-4.4694,-4.4694,-4.4694,-4.4694,-4.4694,-4.4694,-4.4694,-4.4694,-4.4694,-4.4694,-4.4694,-4.4694,-4.4694,-4.4694,-4.4694,-4.4694,-4.4694,-4.4694,-4.4694,-4.4694,-4.4694,-4.4694,-4.4694,-4.4694,-4.4694,-4.4694,-4.472,-4.4853,-4.519,-4.5425,-4.5637,-4.595,-4.595,-4.4853,-4.472,-4.5007,-4.5503,-4.5634,-4.6208,-4.6573,-4.6133,-4.5924,-4.5794,-4.4879,-4.4513,-4.4722,-4.4591,-4.467,-4.4853,-4.5375,-4.5532,-4.548,-4.5584,-4.5349,-4.4931,-4.4382,-4.4304,-4.4539,-4.4068,-4.4095,-4.4278,-4.433,-4.4382,-4.4016,-4.3624,-4.3023,-4.1899,-4.1167,-4.0566,-4.0095,-3.9599,-3.952,-3.9337,-3.8945,-3.8786,-3.8391,-3.7803,-3.7569,-3.7883,-3.8462,-3.9044,-3.9311,-3.9563,-3.9572,-3.954,-3.9463,-3.9403,-3.9337,-3.9046,-3.876,-3.8323,-3.7691,-3.7653,-3.7805,-3.7501,-3.7625,-3.873,-3.9313,-3.917,-3.896,-3.8302,-3.8063,-3.8123,-3.7644,-3.7015,-3.6477,-3.5998,-3.5998,-3.6088,-3.6297,-3.6537,-3.6686,-3.7015,-3.7614,-4.4694,-4.4694,-4.4694,-4.4694,-4.4694,-4.4694,-4.4694,-4.4694,-4.4694,-4.4694,-4.4694,-4.4694,-4.4694,-4.4694,-4.4694,-4.4694,-4.4694,-4.4694,-4.4694,-4.4694,-4.4694,-4.4694,-4.4694,-4.4694,-4.4694,-4.4694,-4.4694,-4.4694,-4.472,-4.4981,-4.5036,-4.514,-4.5349,-4.5268,-4.5138,-4.4955,-4.4824,-4.5007,-4.5428,-4.5976,-4.6604,-4.6395,-4.6421,-4.6917,-4.5976,-4.5663,-4.5794,-4.5506,-4.5401,-4.5349,-4.582,-4.5976,-4.5846,-4.5898,-4.6081,-4.5898,-4.5584,-4.548,-4.5558,-4.5297,-4.5245,-4.5166,-4.5114,-4.5218,-4.5036,-4.4617,-4.3729,-4.2709,-4.2082,-4.1507,-4.0932,-4.0749,-4.0671,-4.0592,-4.0376,-4.0442,-4.0134,-3.9294,-3.8858,-3.9632,-4.0311,-3.9601,-3.9528,-3.9683,-3.9765,-3.9526,-3.9348,-3.9294,-3.9265,-3.8752,-3.8352,-3.8098,-3.7653,-3.7472,-3.7281,-3.7088,-3.7386,-3.836,-3.9083,-3.9313,-3.911,-3.8841,-3.8601,-3.8392,-3.8033,-3.7614,-3.7045,-3.6596,-3.6626,-3.6716,-3.6956,-3.7195,-3.7375,-3.7764,-3.8272,-4.4694,-4.4694,-4.4694,-4.4694,-4.4694,-4.4694,-4.4694,-4.4694,-4.4694,-4.4694,-4.4694,-4.4694,-4.4694,-4.4694,-4.4694,-4.4694,-4.4694,-4.4694,-4.4694,-4.4694,-4.4694,-4.4694,-4.4694,-4.4694,-4.4694,-4.4694,-4.4694,-4.4694,-4.4694,-4.4694,-4.472,-4.48,-4.4694,-4.4957,-4.4981,-4.4824,-4.4694,-4.4824,-4.5166,-4.5532,-4.6055,-4.6342,-4.6734,-4.7048,-4.6917,-4.6734,-4.6708,-4.6552,-4.6264,-4.6003,-4.6055,-4.629,-4.6159,-4.6238,-4.6578,-4.6682,-4.6734,-4.6447,-4.6186,-4.6421,-4.6264,-4.5924,-4.5924,-4.5898,-4.582,-4.5349,-4.4643,-4.3755,-4.2892,-4.2186,-4.1664,-4.1559,-4.1345,-4.1214,-4.1444,-4.148,-4.1551,-4.0668,-4.0557,-4.1299,-4.0998,-4.0305,-3.9616,-3.9735,-3.9868,-3.9549,-3.9231,-3.9208,-3.9083,-3.8575,-3.8089,-3.7834,-3.7386,-3.6972,-3.6855,-3.6816,-3.7271,-3.8089,-3.8649,-3.9192,-3.9313,-3.911,-3.8901,-3.8661,-3.8332,-3.8003,-3.7554,-3.7285,-3.7375,-3.7494,-3.7674,-3.7883,-3.8063,-3.8332,-3.8631,-4.4694,-4.4694,-4.4694,-4.4694,-4.4694,-4.4694,-4.4694,-4.4694,-4.4694,-4.4694,-4.4694,-4.4694,-4.4694,-4.4694,-4.4694,-4.4694,-4.4694,-4.4694,-4.4694,-4.4694,-4.4694,-4.4694,-4.4694,-4.4694,-4.4694,-4.4694,-4.4694,-4.4694,-4.4694,-4.4694,-4.4694,-4.4694,-4.4694,-4.4826,-4.4772,-4.4746,-4.4694,-4.48,-4.4853,-4.5271,-4.5741,-4.6159,-4.6656,-4.7048,-4.7174,-4.7257,-4.7179,-4.6996,-4.6473,-4.6238,-4.6264,-4.6447,-4.6525,-4.6499,-4.6865,-4.7179,-4.7362,-4.7022,-4.6708,-4.7022,-4.7127,-4.6813,-4.6656,-4.6578,-4.6342,-4.595,-4.5166,-4.4251,-4.3258,-4.2631,-4.2108,-4.1815,-4.1495,-4.1679,-4.2,-4.2236,-4.2516,-4.239,-4.2396,-4.231,-4.1666,-4.0942,-4.0114,-3.9964,-3.9712,-3.9299,-3.8974,-3.8745,-3.8649,-3.8397,-3.7947,-3.7653,-3.7155,-3.6385,-3.6267,-3.6373,-3.6961,-3.7682,-3.8427,-3.8973,-3.9126,-3.9313,-3.92,-3.896,-3.8691,-3.8392,-3.8182,-3.8153,-3.8212,-3.8302,-3.8212,-3.8242,-3.8302,-3.8272,-3.8422,-4.4694,-4.4694,-4.4694,-4.4694,-4.4694,-4.4694,-4.4694,-4.4694,-4.4694,-4.4694,-4.4694,-4.4694,-4.4694,-4.4694,-4.4694,-4.4694,-4.4694,-4.4694,-4.4694,-4.4694,-4.4694,-4.4694,-4.4694,-4.4694,-4.4694,-4.4694,-4.4694,-4.4694,-4.4694,-4.4694,-4.4694,-4.4694,-4.4694,-4.4694,-4.4694,-4.4694,-4.4694,-4.4694,-4.4694,-4.5062,-4.5428,-4.582,-4.6447,-4.6887,-4.7174,-4.7362,-4.7519,-4.7597,-4.7179,-4.6891,-4.6944,-4.7074,-4.71,-4.71,-4.7336,-4.7832,-4.7885,-4.7702,-4.7257,-4.7174,-4.7252,-4.72,-4.7048,-4.7127,-4.6944,-4.6395,-4.5558,-4.4434,-4.3232,-4.2396,-4.1889,-4.1588,-4.1652,-4.2086,-4.2569,-4.3204,-4.3424,-4.3296,-4.3356,-4.3053,-4.2393,-4.1077,-4.0307,-3.9762,-3.9437,-3.9033,-3.8751,-3.8559,-3.8173,-3.7919,-3.7729,-3.7396,-3.6699,-3.5949,-3.5856,-3.5936,-3.657,-3.7271,-3.806,-3.8767,-3.9043,-3.929,-3.9343,-3.9224,-3.896,-3.896,-3.902,-3.8931,-3.8691,-3.8571,-3.8482,-3.8512,-3.8512,-3.8482,-3.8422,-4.4513,-4.4722,-4.4694,-4.4694,-4.4694,-4.4694,-4.4563,-4.446,-4.4563,-4.4694,-4.4694,-4.4694,-4.4694,-4.4694,-4.4694,-4.4694,-4.4694,-4.4694,-4.4694,-4.4694,-4.4694,-4.4694,-4.4694,-4.4694,-4.4694,-4.4694,-4.4694,-4.4694,-4.4694,-4.4694,-4.4694,-4.4694,-4.4694,-4.4694,-4.4694,-4.4694,-4.4694,-4.4694,-4.4746,-4.4903,-4.5138,-4.5425,-4.6107,-4.6552,-4.6839,-4.7231,-4.7519,-4.7675,-4.744,-4.6891,-4.6787,-4.6996,-4.7127,-4.7336,-4.7702,-4.812,-4.812,-4.7806,-4.7362,-4.7022,-4.7022,-4.6917,-4.6787,-4.6761,-4.6787,-4.6499,-4.5375,-4.4253,-4.3023,-4.1974,-4.1561,-4.1293,-4.1893,-4.2466,-4.3324,-4.4197,-4.4155,-4.4033,-4.3858,-4.3686,-4.2611,-4.1175,-4.0277,-3.9732,-3.9367,-3.9179,-3.9062,-3.8966,-3.8315,-3.7501,-3.7281,-3.7088,-3.6267,-3.5494,-3.5534,-3.5856,-3.661,-3.7347,-3.7985,-3.8627,-3.8984,-3.905,-3.899,-3.911,-3.9164,-3.9194,-3.9224,-3.914,-3.896,-3.8841,-3.8751,-3.8721,-3.8691,-3.8601,-3.8571,-4.4095,-4.4565,-4.4589,-4.4617,-4.4643,-4.4617,-4.4356,-4.4017,-4.4408,-4.4643,-4.4643,-4.4668,-4.4694,-4.4694,-4.4694,-4.4694,-4.4694,-4.4694,-4.4694,-4.4694,-4.4694,-4.4694,-4.4694,-4.4694,-4.4694,-4.4694,-4.4694,-4.4694,-4.4694,-4.4694,-4.4694,-4.4694,-4.4694,-4.4694,-4.4694,-4.4694,-4.4694,-4.4694,-4.4694,-4.4772,-4.485,-4.5164,-4.5611,-4.5767,-4.6133,-4.6499,-4.6656,-4.6708,-4.6734,-4.6212,-4.5976,-4.629,-4.6839,-4.7519,-4.7989,-4.8146,-4.8172,-4.7728,-4.7205,-4.6682,-4.6537,-4.6301,-4.5957,-4.6238,-4.643,-4.6476,-4.5552,-4.4098,-4.2807,-4.1895,-4.1432,-4.1334,-4.1745,-4.2408,-4.324,-4.3767,-4.3845,-4.3733,-4.3725,-4.3329,-4.2324,-4.098,-4.0367,-3.9858,-3.9582,-3.942,-3.9444,-3.9473,-3.89,-3.7816,-3.7211,-3.7028,-3.6425,-3.5829,-3.5776,-3.6175,-3.6883,-3.7567,-3.8202,-3.8598,-3.9026,-3.8871,-3.8542,-3.8871,-3.929,-3.9313,-3.9313,-3.926,-3.92,-3.917,-3.908,-3.896,-3.8871,-3.8811,-3.8781,-4.331,-4.3467,-4.3912,-4.4068,-4.4095,-4.4068,-4.4016,-4.3885,-4.399,-4.4068,-4.4147,-4.4487,-4.4642,-4.467,-4.4668,-4.4694,-4.4694,-4.4694,-4.4694,-4.4694,-4.4694,-4.4694,-4.4694,-4.4694,-4.4694,-4.4694,-4.4694,-4.4694,-4.4694,-4.4694,-4.4694,-4.4694,-4.4694,-4.4694,-4.4694,-4.4694,-4.4694,-4.4694,-4.4694,-4.4694,-4.4746,-4.4824,-4.5059,-4.5373,-4.582,-4.6055,-4.6133,-4.6081,-4.5976,-4.5663,-4.5245,-4.5637,-4.6503,-4.7545,-4.8094,-4.8172,-4.812,-4.7597,-4.6896,-4.6301,-4.6024,-4.6009,-4.5873,-4.6182,-4.634,-4.6327,-4.5553,-4.4033,-4.2755,-4.1898,-4.1327,-4.1379,-4.1602,-4.2342,-4.3053,-4.3271,-4.3488,-4.342,-4.3464,-4.2753,-4.1811,-4.1181,-4.0569,-4.0157,-3.9888,-3.9881,-4.0061,-4.0077,-3.9765,-3.8964,-3.7882,-3.7497,-3.6961,-3.6543,-3.6373,-3.661,-3.7453,-3.8023,-3.8649,-3.8964,-3.9074,-3.8901,-3.8691,-3.905,-3.9379,-3.9373,-3.9403,-3.9373,-3.9313,-3.9313,-3.9284,-3.92,-3.92,-3.917,-3.914,-4.2788,-4.3049,-4.3363,-4.3493,-4.3493,-4.3493,-4.3363,-4.3232,-4.3389,-4.3337,-4.3389,-4.4147,-4.4591,-4.4487,-4.4591,-4.4694,-4.4694,-4.4694,-4.4694,-4.4694,-4.4694,-4.4694,-4.4694,-4.4694,-4.4694,-4.4694,-4.4694,-4.4694,-4.4694,-4.4694,-4.4694,-4.4694,-4.4694,-4.4694,-4.4694,-4.4694,-4.4694,-4.4694,-4.4694,-4.4694,-4.4694,-4.4746,-4.4798,-4.5138,-4.5297,-4.548,-4.5454,-4.5349,-4.514,-4.5036,-4.4774,-4.5218,-4.6107,-4.7127,-4.7832,-4.8015,-4.7885,-4.7414,-4.6559,-4.5864,-4.5422,-4.5277,-4.5144,-4.5204,-4.5233,-4.509,-4.4906,-4.3519,-4.2166,-4.1253,-4.0976,-4.096,-4.1425,-4.2067,-4.2831,-4.3319,-4.3165,-4.2972,-4.3097,-4.3071,-4.2375,-4.1914,-4.1354,-4.0995,-4.0666,-4.0247,-4.0457,-4.0546,-4.0293,-4.006,-3.9024,-3.8112,-3.7691,-3.7414,-3.7347,-3.7606,-3.8098,-3.8649,-3.9083,-3.896,-3.8931,-3.8901,-3.8931,-3.908,-3.926,-3.9373,-3.9403,-3.9403,-3.9403,-3.9373,-3.9373,-3.9343,-3.9403,-3.9403,-3.9313,-4.2343,-4.2788,-4.2892,-4.2918,-4.2918,-4.2918,-4.2657,-4.2395,-4.2788,-4.2709,-4.2579,-4.4042,-4.4278,-4.4225,-4.4434,-4.4617,-4.4694,-4.4694,-4.4694,-4.4694,-4.4694,-4.4694,-4.4694,-4.4694,-4.4694,-4.4694,-4.4694,-4.4694,-4.4694,-4.4694,-4.4694,-4.4694,-4.4694,-4.4694,-4.4694,-4.4694,-4.4694,-4.4694,-4.4694,-4.4694,-4.4694,-4.4694,-4.472,-4.4694,-4.4643,-4.4643,-4.4696,-4.4408,-4.4173,-4.4147,-4.4199,-4.4748,-4.548,-4.6447,-4.7153,-4.7492,-4.7414,-4.6787,-4.5957,-4.5156,-4.472,-4.4402,-4.4157,-4.4116,-4.4234,-4.4197,-4.4065,-4.3409,-4.2091,-4.1384,-4.1137,-4.0944,-4.148,-4.1798,-4.2566,-4.318,-4.2841,-4.2541,-4.2733,-4.2981,-4.2692,-4.2261,-4.2081,-4.1722,-4.1235,-4.0816,-4.0726,-4.0756,-4.0741,-4.0672,-4.0127,-3.9294,-3.8696,-3.8492,-3.8185,-3.8389,-3.8686,-3.8936,-3.9235,-3.8949,-3.8841,-3.899,-3.902,-3.8871,-3.905,-3.9284,-3.9403,-3.9403,-3.9403,-3.9403,-3.9403,-3.9403,-3.9403,-3.9403,-3.9403,-4.1533,-4.1664,-4.2134,-4.2317,-4.2343,-4.2395,-4.2316,-4.2316,-4.2735,-4.2683,-4.2657,-4.3781,-4.4408,-4.3939,-4.446,-4.4668,-4.4694,-4.4694,-4.4694,-4.4694,-4.4694,-4.4694,-4.4694,-4.4694,-4.4694,-4.4694,-4.4694,-4.4694,-4.4694,-4.4694,-4.4694,-4.4694,-4.4694,-4.4694,-4.4694,-4.4694,-4.4694,-4.4694,-4.4694,-4.4694,-4.4694,-4.4694,-4.4694,-4.4565,-4.4278,-4.4434,-4.4278,-4.331,-4.3101,-4.3101,-4.331,-4.3964,-4.4696,-4.5506,-4.6159,-4.6578,-4.6525,-4.582,-4.4991,-4.4492,-4.4014,-4.3717,-4.3663,-4.3931,-4.4052,-4.4317,-4.4167,-4.4049,-4.3092,-4.2565,-4.225,-4.1744,-4.1922,-4.1831,-4.2262,-4.2426,-4.2396,-4.2069,-4.1987,-4.2162,-4.2132,-4.2111,-4.2291,-4.1841,-4.1235,-4.0995,-4.1145,-4.1212,-4.1362,-4.1232,-4.1109,-4.0482,-3.974,-3.8977,-3.8468,-3.8863,-3.9156,-3.9337,-3.9373,-3.92,-3.914,-3.926,-3.923,-3.908,-3.914,-3.9343,-3.9403,-3.9403,-3.9403,-3.9403,-3.9403,-3.9403,-3.9403,-3.9403,-3.9403]}]]